[[{"header":{"parameterUnit":"m.s-1","parameterCategory":1,"la1":31.0,"la2":29.5877,"lo1":-88.7671,"lo2":-86.6584,"dy":0.0162,"dx":0.0185,"nx":115,"ny":88,"refTime":"2025-01-04T06:00:00:Z","depth":0,"parameterNumber":2,"parameterNumberName":"U-component_of_WINDS"},"data":[0.0,0.0,0.0,0.0,0.0,0.0,0.0,0.0,0.0,0.0,0.0,0.0,0.0,0.0,0.0,0.0,0.0,0.0,0.0,0.0,0.0,0.0,0.0,0.0,0.0,0.0,0.0,0.0,0.0,0.0,0.0,0.0,0.0,0.0,0.0,0.0,0.0,0.0,0.0,0.0,0.0,0.0,0.0,0.0,0.0,0.0,0.0,0.0,0.0,0.0,0.0,0.0,0.0,0.0,0.0,0.0,0.0,0.0,0.0,0.0,0.0,0.0,0.0,0.0,0.0,0.0,0.0,0.0,0.0,0.0,0.0,0.0,0.0,0.0,0.0,0.0,0.0,0.0,0.0,0.0,0.0,0.0,0.0,0.0,0.0,0.0,0.0,0.0,0.0,0.0,0.0,0.0,0.0,0.0,0.0,0.0,0.0,0.0,0.0,0.0,0.0,0.0,0.0,0.0,0.0,0.0,0.0,0.0,0.0,0.0,0.0,0.0,0.0,0.0,0.0,0.0,0.0,0.0,0.0,0.0,0.0,0.0,0.0,0.0,0.0,0.0,0.0,0.0,0.0,0.0,0.0,0.0,0.0,0.0,0.0,0.0,0.0,0.0,0.0,0.0,0.0,0.0,0.0,0.0,0.0,0.0,0.0,0.0,0.0,0.0,0.0,0.0,0.0,0.0,0.0,0.0,0.0,0.0,0.0,0.0,0.0,0.0,0.0,0.0,0.0,0.0,0.0,0.0,0.0,0.0,0.0,0.0,0.0,0.0,0.0,0.0,0.0,0.0,0.0,0.0,0.0,0.0,0.0,0.0,0.0,0.0,0.0,0.0,0.0,0.0,0.0,0.0,0.0,0.0,0.0,0.0,0.0,0.0,0.0,0.0,0.0,0.0,0.0,0.0,0.0,0.0,0.0,0.0,0.0,0.0,0.0,0.0,0.0,0.0,0.0,0.0,0.0,0.0,0.0,0.0,0.0,0.0,0.0,0.0,0.0,0.0,0.0,0.0,0.0,0.0,0.0,0.0,0.0,0.0,0.0,0.0,0.0,0.0,0.0,0.0,0.0,0.0,0.0,0.0,0.0,0.0,0.0,0.0,0.0,0.0,0.0,0.0,0.0,0.0,0.0,0.0,0.0,0.0,0.0,0.0,0.0,0.0,0.0,0.0,0.0,0.0,0.0,0.0,0.0,0.0,0.0,0.0,0.0,0.0,0.0,0.0,0.0,0.0,0.0,0.0,0.0,0.0,0.0,0.0,0.0,0.0,0.0,0.0,0.0,0.0,0.0,0.0,0.0,0.0,0.0,0.0,0.0,0.0,0.0,0.0,0.0,0.0,0.0,0.0,0.0,0.0,0.0,0.0,0.0,0.0,0.0,0.0,0.0,0.0,0.0,0.0,0.0,0.0,0.0,0.0,0.0,0.0,0.0,0.0,0.0,0.0,0.0,0.0,0.0,0.0,0.0,0.0,0.0,0.0,0.0,0.0,0.0,0.0,0.0,0.0,0.0,0.0,0.0,0.0,0.0,0.0,0.0,0.0,0.0,0.0,0.0,0.0,0.0,0.0,0.0,0.0,0.0,0.0,0.0,0.0,0.0,0.0,0.0,0.0,0.0,0.0,0.0,0.0,0.0,0.0,0.0,0.0,0.0,0.0,0.0,0.0,0.0,0.0,0.0,0.0,0.0,0.0,0.0,0.0,0.0,0.0,0.0,0.0,0.0,0.0,0.0,0.0,0.0,0.0,0.0,0.0,0.0,0.0,0.0,0.0,0.0,0.0,0.0,0.0,0.0,0.0,0.0,0.0,0.0,0.0,0.0,0.0,0.0,0.0,0.0,0.0,0.0,0.0,0.0,0.0,0.0,0.0,0.0,0.0,0.0,0.0,0.0,0.0,0.0,0.0,0.0,0.0,0.0,0.0,0.0,0.0,0.0,0.0,0.0,0.0,0.0,0.0,0.0,0.0,0.0,0.0,0.0,0.0,0.0,0.0,0.0,0.0,0.0,0.0,0.0,0.0,0.0,0.0,0.0,0.0,0.0,0.0,0.0,0.0,0.0,0.0,0.0,0.0,0.0,0.0,0.0,0.0,0.0,0.0,0.0,0.0,0.0,0.0,0.0,0.0,0.0,0.0,0.0,0.0,0.0,0.0,0.0,0.0,0.0,0.0,0.0,0.0,0.0,0.0,0.0,0.0,0.0,0.0,0.0,0.0,0.0,0.0,0.0,0.0,0.0,0.0,0.0,0.0,0.0,0.0,0.0,0.0,0.0,0.0,0.0,0.0,0.0,0.0,0.0,0.0,0.0,0.0,0.0,0.0,0.0,0.0,0.0,0.0,0.0,0.0,0.0,0.0,0.0,0.0,0.0,0.0,0.0,0.0,0.0,0.0,0.0,0.0,0.0,0.0,0.0,0.0,0.0,0.0,0.0,0.0,0.0,0.0,0.0,0.0,0.0,0.0,0.0,0.0,0.0,0.0,0.0,0.0,0.0,0.0,0.0,0.0,0.0,0.0,0.0,0.0,0.0,0.0,0.0,0.0,0.0,0.0,0.0,0.0,0.0,0.0,0.0,0.0,0.0,0.0,0.0,0.0,0.0,0.0,0.0,0.0,0.0,0.0,0.0,0.0,0.0,0.0,0.0,0.0,0.0,0.0,0.0,0.0,0.0,0.0,0.0,0.0,0.0,0.0,0.0,0.0,0.0,0.0,0.0,0.0,0.0,0.0,0.0,0.0,0.0,0.0,0.0,0.0,0.0,0.0,0.0,0.0,0.0,0.0,0.0,0.0,0.0,0.0,0.0,0.0,0.0,0.0,0.0,0.0,0.0,0.0,0.0,0.0,0.0,0.0,0.0,0.0,0.0,0.0,0.0,0.0,0.0,0.0,0.0,0.0,0.0,0.0,0.0,0.0,0.0,0.0,0.0,0.0,0.0,0.0,0.0,0.0,0.0,0.0,0.0,0.0,0.0,0.0,0.0,0.0,0.0,0.0,0.0,0.0,0.0,0.0,0.0,0.0,0.0,0.0,0.0,0.0,0.0,0.0,0.0,0.0,0.0,0.0,0.0,0.0,0.0,0.0,0.0,0.0,0.0,0.0,0.0,0.0,0.0,0.0,0.0,0.0,0.0,0.0,0.0,0.0,0.0,0.0,0.0,0.0,0.0,0.0,0.0,0.0,0.0,0.0,0.0,0.0,0.0,0.0,0.0,0.0,0.0,0.0,0.0,0.0,0.0,0.0,0.0,0.0,0.0,0.0,0.0,0.0,0.0,0.0,0.0,0.0,0.0,0.0,0.0,0.0,0.0,0.0,0.0,0.0,0.0,0.0,0.0,0.0,0.0,0.0,0.0,0.0,0.0,0.0,0.0,0.0,0.0,0.0,0.0,0.0,0.0,0.0,0.0,0.0,0.0,0.0,0.0,0.0,0.0,0.0,0.0,0.0,0.0,0.0,0.0,0.0,0.0,0.0,0.0,0.0,0.0,0.0,0.0,0.0,0.0,0.0,0.0,0.0,0.0,0.0,0.0,0.0,0.0,0.0,0.0,0.0,0.0,0.0,0.0,0.0,0.0,0.0,0.0,0.0,0.0,0.0,0.0,0.0,0.0,0.0,0.0,0.0,0.0,0.0,0.0,0.0,0.0,0.0,0.0,0.0,0.0,0.0,0.0,0.0,0.0,0.0,0.0,0.0,0.0,0.0,0.0,0.0,0.0,0.0,0.0,0.0,0.0,0.0,0.0,0.0,0.0,0.0,0.0,0.0,0.0,0.0,0.0,0.0,0.0,0.0,0.0,0.0,0.0,0.0,0.0,0.0,0.0,0.0,0.0,0.0,0.0,0.0,0.0,0.0,0.0,0.0,0.0,0.0,0.0,0.0,0.0,0.0,0.0,0.0,0.0,0.0,0.0,0.0,0.0,0.0,0.0,0.0,0.0,0.0,0.0,0.0,0.0,0.0,0.0,0.0,0.0,0.0,0.0,0.0,0.0,0.0,0.0,0.0,0.0,0.0,0.0,0.0,0.0,0.0,0.0,0.0,0.0,0.0,0.0,0.0,0.0,0.0,0.0,0.0,0.0,0.0,0.0,0.0,0.0,0.0,0.0,0.0,0.0,0.0,0.0,0.0,0.0,0.0,0.0,0.0,0.0,0.0,0.0,0.0,0.0,0.0,0.0,0.0,0.0,0.0,0.0,0.0,0.0,0.0,0.0,0.0,0.0,0.0,0.0,0.0,0.0,0.0,0.0,0.0,0.0,0.0,0.0,0.0,0.0,0.0,4.2359,0.0,0.0,0.0,0.0,0.0,0.0,0.0,0.0,0.0,0.0,0.0,0.0,0.0,0.0,0.0,0.0,0.0,0.0,0.0,0.0,0.0,0.0,0.0,0.0,0.0,0.0,0.0,0.0,0.0,0.0,0.0,0.0,0.0,0.0,0.0,0.0,0.0,0.0,0.0,0.0,0.0,0.0,0.0,0.0,0.0,0.0,0.0,0.0,0.0,0.0,0.0,0.0,0.0,0.0,0.0,0.0,0.0,0.0,0.0,0.0,0.0,0.0,0.0,0.0,0.0,0.0,0.0,0.0,0.0,0.0,0.0,0.0,0.0,0.0,0.0,0.0,0.0,0.0,0.0,0.0,0.0,0.0,0.0,0.0,0.0,0.0,0.0,0.0,0.0,0.0,0.0,0.0,0.0,0.0,0.0,0.0,0.0,0.0,0.0,0.0,0.0,0.0,0.0,0.0,0.0,0.0,0.0,0.0,0.0,0.0,4.3497,4.3497,4.3497,4.3314,4.2983,0.0,0.0,0.0,0.0,0.0,0.0,0.0,0.0,0.0,0.0,0.0,0.0,0.0,0.0,0.0,0.0,0.0,0.0,0.0,0.0,0.0,0.0,0.0,0.0,0.0,0.0,0.0,0.0,0.0,0.0,0.0,0.0,0.0,0.0,0.0,0.0,0.0,0.0,0.0,0.0,0.0,0.0,0.0,0.0,0.0,0.0,0.0,0.0,0.0,0.0,0.0,0.0,0.0,0.0,0.0,0.0,0.0,0.0,0.0,0.0,0.0,0.0,0.0,0.0,0.0,0.0,0.0,0.0,0.0,0.0,0.0,0.0,0.0,0.0,0.0,0.0,0.0,0.0,0.0,0.0,0.0,0.0,0.0,0.0,0.0,0.0,0.0,0.0,0.0,0.0,0.0,0.0,0.0,0.0,0.0,0.0,0.0,0.0,0.0,0.0,0.0,0.0,0.0,0.0,0.0,0.0,0.0,0.0,0.0,0.0,0.0,0.0,4.4994,4.4961,4.4856,0.0,0.0,0.0,0.0,0.0,0.0,0.0,0.0,0.0,0.0,0.0,0.0,0.0,0.0,0.0,0.0,0.0,0.0,0.0,0.0,0.0,0.0,0.0,0.0,0.0,0.0,0.0,0.0,0.0,0.0,0.0,0.0,0.0,0.0,0.0,0.0,0.0,0.0,0.0,0.0,0.0,0.0,0.0,0.0,0.0,0.0,0.0,0.0,0.0,0.0,0.0,0.0,0.0,0.0,0.0,0.0,0.0,0.0,0.0,0.0,0.0,0.0,0.0,0.0,0.0,0.0,0.0,0.0,0.0,0.0,0.0,0.0,0.0,0.0,0.0,0.0,0.0,0.0,0.0,0.0,0.0,0.0,0.0,0.0,0.0,0.0,0.0,0.0,0.0,0.0,0.0,0.0,0.0,0.0,0.0,0.0,0.0,0.0,0.0,0.0,0.0,0.0,0.0,0.0,0.0,0.0,0.0,0.0,0.0,0.0,4.609,4.9408,4.9447,0.0,4.9005,0.0,0.0,0.0,0.0,0.0,0.0,0.0,0.0,0.0,0.0,0.0,0.0,0.0,0.0,0.0,0.0,0.0,0.0,0.0,0.0,0.0,0.0,0.0,0.0,0.0,0.0,0.0,0.0,0.0,0.0,0.0,0.0,0.0,0.0,0.0,0.0,0.0,0.0,0.0,0.0,0.0,0.0,0.0,0.0,0.0,0.0,0.0,0.0,0.0,0.0,0.0,0.0,0.0,0.0,0.0,0.0,0.0,0.0,0.0,0.0,0.0,0.0,0.0,0.0,0.0,0.0,0.0,0.0,0.0,0.0,0.0,0.0,0.0,0.0,0.0,0.0,0.0,0.0,0.0,0.0,0.0,0.0,0.0,0.0,0.0,0.0,0.0,0.0,0.0,0.0,0.0,0.0,0.0,0.0,0.0,0.0,0.0,0.0,0.0,0.0,0.0,0.0,0.0,0.0,0.0,0.0,0.0,0.0,0.0,0.0,0.0,5.004,4.9898,4.9711,0.0,0.0,0.0,0.0,0.0,0.0,0.0,0.0,0.0,0.0,0.0,0.0,0.0,0.0,0.0,0.0,0.0,0.0,0.0,0.0,0.0,0.0,0.0,0.0,0.0,0.0,0.0,0.0,0.0,0.0,0.0,0.0,0.0,0.0,0.0,0.0,0.0,0.0,0.0,0.0,0.0,0.0,0.0,0.0,0.0,0.0,0.0,0.0,0.0,0.0,0.0,0.0,0.0,0.0,0.0,0.0,0.0,0.0,0.0,0.0,0.0,0.0,0.0,0.0,0.0,0.0,0.0,0.0,0.0,0.0,0.0,0.0,0.0,0.0,0.0,0.0,0.0,0.0,0.0,0.0,0.0,0.0,0.0,0.0,0.0,0.0,0.0,0.0,0.0,0.0,0.0,0.0,0.0,0.0,0.0,0.0,0.0,0.0,0.0,0.0,0.0,0.0,0.0,0.0,0.0,0.0,0.0,0.0,0.0,0.0,5.0123,0.0,5.2023,5.1491,5.0637,4.9416,0.0,0.0,0.0,0.0,0.0,0.0,0.0,0.0,0.0,0.0,0.0,0.0,0.0,0.0,0.0,0.0,0.0,0.0,0.0,0.0,0.0,0.0,0.0,0.0,0.0,0.0,0.0,0.0,0.0,0.0,0.0,0.0,0.0,0.0,0.0,0.0,0.0,0.0,0.0,0.0,0.0,0.0,0.0,0.0,0.0,0.0,0.0,0.0,0.0,0.0,0.0,0.0,0.0,0.0,0.0,0.0,0.0,0.0,0.0,0.0,0.0,0.0,0.0,0.0,0.0,0.0,0.0,0.0,0.0,0.0,0.0,0.0,0.0,0.0,0.0,0.0,0.0,0.0,0.0,0.0,0.0,0.0,0.0,0.0,0.0,0.0,0.0,0.0,0.0,0.0,0.0,0.0,0.0,0.0,0.0,0.0,0.0,0.0,0.0,0.0,0.0,0.0,0.0,0.0,0.0,0.0,0.0,0.0,0.0,5.3286,5.3519,5.6882,5.581,5.3187,0.0,0.0,0.0,0.0,0.0,0.0,0.0,0.0,0.0,0.0,0.0,0.0,0.0,0.0,0.0,0.0,0.0,0.0,0.0,0.0,0.0,0.0,0.0,0.0,0.0,0.0,0.0,0.0,0.0,0.0,0.0,0.0,0.0,0.0,0.0,0.0,0.0,0.0,0.0,0.0,0.0,0.0,0.0,0.0,0.0,0.0,0.0,0.0,0.0,0.0,0.0,0.0,0.0,0.0,0.0,0.0,0.0,0.0,0.0,0.0,0.0,0.0,0.0,0.0,0.0,0.0,0.0,0.0,0.0,0.0,0.0,0.0,0.0,0.0,0.0,0.0,0.0,0.0,0.0,0.0,0.0,0.0,0.0,0.0,0.0,0.0,0.0,0.0,0.0,0.0,0.0,0.0,0.0,0.0,0.0,0.0,0.0,0.0,0.0,0.0,0.0,0.0,0.0,0.0,0.0,0.0,0.0,0.0,0.0,4.9534,5.0784,5.4368,6.0167,5.4736,5.1775,0.0,0.0,0.0,0.0,0.0,0.0,0.0,0.0,0.0,0.0,0.0,0.0,0.0,0.0,0.0,0.0,0.0,0.0,0.0,0.0,0.0,0.0,0.0,0.0,0.0,0.0,0.0,0.0,0.0,0.0,0.0,0.0,0.0,0.0,0.0,0.0,0.0,0.0,0.0,0.0,0.0,0.0,0.0,0.0,0.0,0.0,0.0,0.0,0.0,0.0,0.0,0.0,0.0,0.0,0.0,0.0,0.0,0.0,0.0,0.0,0.0,0.0,0.0,0.0,0.0,0.0,0.0,0.0,0.0,0.0,0.0,0.0,0.0,0.0,0.0,0.0,0.0,0.0,0.0,0.0,0.0,0.0,0.0,0.0,0.0,0.0,0.0,0.0,0.0,0.0,0.0,0.0,0.0,0.0,0.0,0.0,0.0,0.0,0.0,0.0,0.0,0.0,0.0,0.0,0.0,0.0,0.0,0.0,0.0,4.926,0.0,5.6637,0.0,5.422,5.0694,0.0,0.0,0.0,0.0,0.0,0.0,0.0,0.0,0.0,0.0,0.0,0.0,0.0,0.0,0.0,0.0,0.0,0.0,0.0,0.0,0.0,0.0,0.0,0.0,0.0,0.0,0.0,0.0,0.0,0.0,0.0,0.0,0.0,0.0,0.0,0.0,0.0,0.0,0.0,0.0,0.0,0.0,0.0,0.0,0.0,0.0,0.0,0.0,0.0,0.0,0.0,0.0,0.0,0.0,0.0,0.0,0.0,0.0,0.0,0.0,0.0,0.0,0.0,0.0,0.0,0.0,0.0,0.0,0.0,0.0,0.0,0.0,0.0,0.0,0.0,0.0,0.0,0.0,0.0,0.0,0.0,0.0,0.0,0.0,0.0,0.0,0.0,0.0,0.0,0.0,0.0,0.0,0.0,0.0,0.0,0.0,0.0,0.0,0.0,0.0,0.0,0.0,0.0,0.0,0.0,0.0,0.0,0.0,0.0,5.6472,5.9935,6.0142,5.722,5.4753,5.0215,0.0,0.0,0.0,0.0,0.0,0.0,0.0,0.0,0.0,0.0,0.0,0.0,0.0,0.0,0.0,0.0,0.0,0.0,0.0,0.0,0.0,0.0,0.0,0.0,0.0,0.0,0.0,0.0,0.0,0.0,0.0,0.0,0.0,0.0,0.0,0.0,0.0,0.0,0.0,0.0,0.0,0.0,0.0,0.0,0.0,0.0,0.0,0.0,0.0,0.0,0.0,0.0,0.0,0.0,0.0,0.0,0.0,0.0,0.0,0.0,0.0,0.0,0.0,0.0,0.0,0.0,0.0,0.0,0.0,0.0,0.0,0.0,0.0,0.0,0.0,0.0,0.0,0.0,0.0,0.0,0.0,0.0,0.0,0.0,0.0,0.0,0.0,0.0,0.0,0.0,0.0,0.0,0.0,0.0,0.0,0.0,0.0,0.0,0.0,0.0,0.0,0.0,0.0,0.0,0.0,0.0,0.0,0.0,0.0,5.2752,5.6537,5.9473,6.1012,5.3865,5.0675,0.0,0.0,0.0,0.0,0.0,0.0,0.0,0.0,0.0,0.0,0.0,0.0,0.0,0.0,0.0,0.0,0.0,0.0,0.0,0.0,0.0,0.0,0.0,0.0,0.0,0.0,0.0,0.0,0.0,0.0,0.0,0.0,0.0,0.0,0.0,0.0,0.0,0.0,0.0,0.0,0.0,0.0,0.0,0.0,0.0,0.0,0.0,0.0,0.0,0.0,0.0,0.0,0.0,0.0,0.0,0.0,0.0,0.0,0.0,0.0,0.0,0.0,0.0,0.0,0.0,0.0,0.0,0.0,0.0,0.0,0.0,0.0,0.0,0.0,0.0,0.0,0.0,0.0,0.0,0.0,0.0,0.0,0.0,0.0,0.0,0.0,0.0,0.0,0.0,0.0,0.0,0.0,0.0,0.0,0.0,0.0,0.0,0.0,0.0,0.0,0.0,0.0,0.0,0.0,0.0,0.0,0.0,0.0,0.0,5.709,6.0649,6.282,6.3281,5.6165,5.2741,5.3472,0.0,0.0,0.0,0.0,0.0,0.0,0.0,0.0,0.0,0.0,0.0,0.0,0.0,0.0,0.0,0.0,0.0,0.0,0.0,0.0,0.0,0.0,0.0,0.0,0.0,0.0,0.0,0.0,0.0,0.0,0.0,0.0,0.0,0.0,0.0,0.0,0.0,0.0,0.0,0.0,0.0,0.0,0.0,0.0,0.0,0.0,0.0,0.0,0.0,0.0,0.0,0.0,0.0,0.0,0.0,0.0,0.0,0.0,0.0,0.0,0.0,0.0,0.0,0.0,0.0,0.0,0.0,0.0,0.0,0.0,0.0,0.0,0.0,0.0,0.0,0.0,0.0,0.0,0.0,0.0,0.0,0.0,0.0,0.0,0.0,0.0,0.0,0.0,0.0,0.0,0.0,0.0,0.0,0.0,0.0,0.0,0.0,0.0,0.0,0.0,0.0,0.0,0.0,0.0,0.0,0.0,0.0,0.0,6.7496,7.1036,7.009,6.4397,6.1204,5.6242,0.0,0.0,0.0,0.0,0.0,0.0,0.0,0.0,0.0,0.0,0.0,0.0,0.0,0.0,0.0,0.0,0.0,0.0,0.0,0.0,0.0,0.0,0.0,0.0,0.0,0.0,0.0,0.0,0.0,0.0,0.0,0.0,0.0,0.0,0.0,0.0,0.0,0.0,0.0,0.0,0.0,0.0,0.0,0.0,0.0,0.0,0.0,0.0,0.0,0.0,0.0,0.0,0.0,0.0,0.0,0.0,0.0,0.0,0.0,0.0,0.0,0.0,0.0,0.0,0.0,0.0,0.0,0.0,0.0,0.0,0.0,0.0,0.0,0.0,0.0,0.0,0.0,0.0,0.0,0.0,0.0,0.0,0.0,0.0,0.0,0.0,0.0,0.0,0.0,0.0,0.0,0.0,0.0,0.0,0.0,0.0,0.0,0.0,0.0,0.0,0.0,0.0,0.0,0.0,0.0,0.0,0.0,0.0,0.0,7.2677,7.8519,7.9054,7.3668,6.5705,6.0204,0.0,0.0,0.0,0.0,0.0,0.0,0.0,0.0,0.0,0.0,0.0,0.0,0.0,0.0,0.0,0.0,0.0,0.0,0.0,0.0,0.0,0.0,0.0,0.0,0.0,0.0,0.0,0.0,0.0,0.0,0.0,0.0,0.0,0.0,0.0,0.0,0.0,0.0,0.0,0.0,0.0,0.0,0.0,0.0,0.0,0.0,0.0,0.0,0.0,0.0,0.0,0.0,0.0,0.0,0.0,0.0,0.0,0.0,0.0,0.0,0.0,0.0,0.0,0.0,0.0,0.0,0.0,0.0,0.0,0.0,0.0,0.0,0.0,0.0,0.0,0.0,0.0,0.0,0.0,0.0,0.0,0.0,0.0,0.0,0.0,0.0,0.0,0.0,0.0,0.0,0.0,0.0,0.0,0.0,0.0,0.0,0.0,0.0,0.0,0.0,0.0,0.0,0.0,0.0,0.0,0.0,0.0,0.0,7.1756,7.8359,8.373,8.5093,8.217,7.3591,6.6205,0.0,0.0,0.0,0.0,0.0,0.0,0.0,0.0,0.0,0.0,0.0,0.0,0.0,0.0,0.0,0.0,0.0,0.0,0.0,0.0,0.0,0.0,0.0,0.0,0.0,0.0,0.0,0.0,0.0,0.0,0.0,0.0,0.0,0.0,0.0,0.0,0.0,0.0,0.0,0.0,0.0,0.0,0.0,0.0,0.0,0.0,0.0,0.0,0.0,0.0,0.0,0.0,0.0,0.0,0.0,0.0,0.0,0.0,0.0,0.0,0.0,0.0,0.0,0.0,0.0,0.0,0.0,0.0,0.0,0.0,0.0,0.0,0.0,0.0,0.0,0.0,0.0,0.0,0.0,0.0,0.0,0.0,0.0,0.0,0.0,0.0,0.0,0.0,0.0,0.0,0.0,0.0,0.0,0.0,0.0,0.0,0.0,0.0,0.0,0.0,0.0,0.0,0.0,0.0,0.0,0.0,0.0,0.0,7.631,8.3556,8.7337,8.9133,8.8748,8.2093,7.2745,0.0,0.0,0.0,0.0,0.0,0.0,0.0,0.0,0.0,0.0,0.0,0.0,0.0,0.0,0.0,0.0,0.0,0.0,0.0,0.0,0.0,0.0,0.0,0.0,0.0,0.0,0.0,0.0,0.0,0.0,0.0,0.0,0.0,0.0,0.0,0.0,0.0,0.0,0.0,0.0,0.0,0.0,0.0,0.0,0.0,0.0,0.0,0.0,0.0,0.0,0.0,0.0,0.0,0.0,0.0,0.0,0.0,0.0,0.0,0.0,0.0,0.0,0.0,0.0,0.0,0.0,0.0,0.0,0.0,0.0,0.0,0.0,0.0,0.0,0.0,0.0,0.0,0.0,0.0,0.0,0.0,0.0,0.0,0.0,0.0,0.0,0.0,0.0,0.0,0.0,0.0,0.0,0.0,0.0,0.0,0.0,0.0,0.0,0.0,0.0,0.0,0.0,0.0,0.0,0.0,0.0,0.0,0.0,7.8922,8.455,8.9873,9.2018,9.0671,8.2131,7.4091,0.0,0.0,0.0,0.0,0.0,0.0,0.0,0.0,0.0,0.0,0.0,0.0,0.0,0.0,0.0,0.0,0.0,0.0,0.0,0.0,0.0,0.0,0.0,0.0,0.0,0.0,0.0,0.0,0.0,0.0,0.0,0.0,0.0,0.0,0.0,0.0,0.0,0.0,0.0,0.0,0.0,0.0,0.0,0.0,0.0,0.0,0.0,0.0,3.9717,0.0,0.0,0.0,0.0,0.0,0.0,0.0,0.0,0.0,0.0,0.0,0.0,0.0,0.0,0.0,0.0,0.0,0.0,0.0,0.0,0.0,0.0,0.0,0.0,0.0,0.0,0.0,0.0,0.0,0.0,0.0,0.0,0.0,0.0,0.0,0.0,0.0,0.0,0.0,0.0,0.0,0.0,0.0,0.0,0.0,0.0,0.0,0.0,0.0,0.0,0.0,0.0,0.0,0.0,0.0,0.0,0.0,0.0,0.0,8.2336,8.773,9.1331,9.2903,9.2133,8.4901,7.713,0.0,0.0,0.0,0.0,0.0,0.0,0.0,0.0,0.0,0.0,0.0,0.0,0.0,0.0,0.0,0.0,0.0,0.0,0.0,0.0,0.0,0.0,0.0,0.0,0.0,0.0,0.0,0.0,0.0,0.0,0.0,0.0,0.0,0.0,0.0,0.0,0.0,0.0,0.0,0.0,0.0,0.0,0.0,0.0,0.0,0.0,0.0,0.0,0.0,0.0,0.0,0.0,0.0,0.0,0.0,0.0,0.0,0.0,0.0,0.0,0.0,0.0,0.0,0.0,0.0,0.0,0.0,0.0,0.0,0.0,0.0,0.0,0.0,0.0,0.0,0.0,0.0,0.0,0.0,0.0,0.0,0.0,0.0,0.0,0.0,0.0,0.0,0.0,0.0,0.0,0.0,0.0,0.0,0.0,0.0,0.0,0.0,0.0,0.0,0.0,0.0,0.0,0.0,0.0,0.0,0.0,0.0,7.7535,8.506,9.1297,9.2444,9.3095,9.3403,8.8171,8.0516,0.0,0.0,0.0,0.0,0.0,0.0,0.0,0.0,0.0,0.0,0.0,0.0,0.0,0.0,0.0,0.0,0.0,0.0,0.0,0.0,0.0,0.0,0.0,0.0,0.0,0.0,0.0,0.0,0.0,0.0,0.0,0.0,0.0,0.0,0.0,0.0,0.0,0.0,0.0,3.7881,4.269,0.0,0.0,0.0,0.0,0.0,0.0,0.0,0.0,4.2727,0.0,0.0,0.0,0.0,0.0,0.0,0.0,0.0,0.0,0.0,0.0,0.0,0.0,0.0,0.0,0.0,0.0,0.0,0.0,0.0,0.0,0.0,0.0,0.0,0.0,0.0,0.0,0.0,0.0,0.0,0.0,0.0,0.0,0.0,0.0,0.0,0.0,0.0,0.0,0.0,0.0,0.0,0.0,0.0,0.0,0.0,0.0,0.0,0.0,0.0,0.0,0.0,0.0,0.0,0.0,0.0,7.7476,7.9361,8.4445,9.3024,9.4136,9.398,9.2672,8.8979,8.2208,7.2245,0.0,0.0,0.0,0.0,0.0,0.0,0.0,0.0,0.0,0.0,0.0,0.0,0.0,0.0,0.0,0.0,0.0,0.0,0.0,0.0,0.0,0.0,0.0,0.0,0.0,0.0,0.0,0.0,0.0,0.0,0.0,0.0,0.0,0.0,0.0,0.0,0.0,0.0,0.0,4.9517,5.1426,0.0,0.0,0.0,0.0,0.0,0.0,0.0,0.0,4.2103,0.0,0.0,0.0,0.0,0.0,0.0,0.0,0.0,0.0,0.0,0.0,0.0,0.0,0.0,0.0,0.0,0.0,0.0,0.0,0.0,0.0,0.0,0.0,0.0,0.0,0.0,0.0,0.0,0.0,0.0,0.0,0.0,0.0,0.0,0.0,0.0,0.0,0.0,0.0,0.0,0.0,0.0,0.0,0.0,0.0,0.0,0.0,0.0,0.0,0.0,0.0,0.0,0.0,0.0,0.0,7.5993,8.1724,8.7637,9.406,9.4328,9.3749,9.2402,8.6209,7.9246,0.0,0.0,0.0,0.0,0.0,0.0,0.0,0.0,0.0,0.0,0.0,0.0,0.0,0.0,0.0,0.0,0.0,0.0,0.0,0.0,0.0,0.0,0.0,0.0,0.0,0.0,0.0,0.0,0.0,0.0,0.0,0.0,0.0,0.0,0.0,0.0,0.0,0.0,0.0,0.0,5.0986,5.2417,5.3739,0.0,0.0,0.0,0.0,0.0,0.0,4.614,4.3938,0.0,0.0,0.0,0.0,0.0,0.0,0.0,0.0,0.0,0.0,0.0,0.0,0.0,0.0,0.0,0.0,0.0,0.0,0.0,0.0,0.0,0.0,0.0,0.0,0.0,0.0,0.0,0.0,0.0,0.0,0.0,0.0,0.0,0.0,0.0,0.0,0.0,0.0,0.0,0.0,0.0,0.0,0.0,0.0,0.0,0.0,0.0,0.0,0.0,0.0,0.0,0.0,0.0,0.0,0.0,7.3695,8.2931,8.9979,9.4443,9.4057,9.3133,9.1864,8.4055,7.6861,0.0,0.0,0.0,0.0,0.0,0.0,0.0,0.0,0.0,0.0,0.0,0.0,0.0,0.0,0.0,0.0,0.0,0.0,0.0,0.0,0.0,0.0,0.0,0.0,0.0,0.0,0.0,0.0,0.0,0.0,0.0,0.0,0.0,0.0,0.0,0.0,0.0,0.0,0.0,0.0,0.0,5.3775,5.5978,5.3298,0.0,0.0,0.0,0.0,5.205,5.0435,0.0,0.0,0.0,0.0,0.0,0.0,0.0,0.0,0.0,0.0,0.0,0.0,0.0,0.0,0.0,0.0,0.0,0.0,0.0,0.0,0.0,0.0,0.0,0.0,0.0,0.0,0.0,0.0,0.0,0.0,0.0,0.0,0.0,0.0,0.0,0.0,0.0,0.0,0.0,0.0,0.0,0.0,0.0,0.0,0.0,0.0,0.0,0.0,0.0,0.0,0.0,0.0,0.0,0.0,0.0,0.0,7.4269,8.0915,8.7325,9.348,9.3749,9.2595,9.0248,8.6286,7.9285,0.0,0.0,0.0,0.0,0.0,0.0,0.0,0.0,0.0,0.0,0.0,0.0,0.0,0.0,0.0,0.0,0.0,0.0,0.0,0.0,0.0,0.0,0.0,0.0,0.0,0.0,0.0,0.0,0.0,0.0,0.0,0.0,0.0,0.0,0.0,0.0,0.0,0.0,0.0,0.0,0.0,5.8951,5.5207,5.5427,5.5684,0.0,0.0,5.5317,5.785,5.851,0.0,0.0,0.0,0.0,0.0,0.0,0.0,0.0,0.0,0.0,0.0,0.0,0.0,0.0,0.0,0.0,0.0,0.0,0.0,0.0,0.0,0.0,0.0,0.0,0.0,0.0,0.0,0.0,0.0,0.0,0.0,0.0,0.0,0.0,0.0,0.0,0.0,0.0,0.0,0.0,0.0,0.0,0.0,0.0,0.0,0.0,0.0,0.0,0.0,0.0,0.0,0.0,0.0,0.0,0.0,6.4422,7.4543,8.2477,8.8825,9.3441,9.3249,9.1787,8.9286,8.3131,7.5822,0.0,0.0,0.0,0.0,0.0,0.0,0.0,0.0,0.0,0.0,0.0,0.0,0.0,0.0,0.0,0.0,0.0,0.0,0.0,0.0,0.0,0.0,0.0,0.0,0.0,0.0,0.0,0.0,0.0,0.0,0.0,0.0,0.0,0.0,0.0,0.0,0.0,0.0,0.0,0.0,0.0,0.0,5.9098,5.9024,0.0,0.0,0.0,5.9318,6.2218,0.0,0.0,0.0,0.0,0.0,0.0,0.0,0.0,0.0,0.0,0.0,0.0,0.0,0.0,0.0,0.0,0.0,0.0,0.0,0.0,0.0,0.0,0.0,0.0,0.0,0.0,0.0,0.0,0.0,0.0,0.0,0.0,0.0,0.0,0.0,0.0,0.0,0.0,0.0,0.0,0.0,0.0,0.0,0.0,0.0,0.0,0.0,0.0,0.0,0.0,0.0,0.0,0.0,0.0,0.0,0.0,0.0,7.4388,8.4022,9.0325,9.2941,9.2672,9.1171,8.8325,8.1323,0.0,0.0,0.0,0.0,0.0,0.0,0.0,0.0,0.0,0.0,0.0,0.0,0.0,0.0,0.0,0.0,0.0,0.0,0.0,0.0,0.0,0.0,0.0,0.0,0.0,0.0,0.0,2.5915,0.0,0.0,0.0,0.0,0.0,0.0,0.0,0.0,0.0,0.0,0.0,0.0,0.0,0.0,5.8951,6.2365,6.2658,6.3319,0.0,0.0,6.3686,6.6145,6.5118,6.163,0.0,0.0,0.0,0.0,0.0,0.0,0.0,0.0,0.0,0.0,0.0,0.0,0.0,0.0,0.0,0.0,0.0,0.0,0.0,0.0,0.0,0.0,0.0,0.0,0.0,0.0,0.0,0.0,0.0,0.0,0.0,0.0,0.0,0.0,0.0,0.0,0.0,0.0,0.0,0.0,0.0,0.0,0.0,0.0,0.0,0.0,0.0,0.0,0.0,0.0,0.0,0.0,0.0,0.0,0.0,7.3667,8.4291,9.0287,9.1364,9.2133,9.0902,8.7555,8.3824,7.6438,0.0,0.0,0.0,0.0,0.0,0.0,0.0,0.0,0.0,0.0,0.0,0.0,0.0,0.0,0.0,0.0,0.0,0.0,0.0,0.0,0.0,0.0,0.0,0.0,0.0,0.0,0.0,0.0,0.0,0.0,0.0,0.0,0.0,0.0,0.0,0.0,0.0,0.0,0.0,0.0,0.0,6.0823,6.2585,6.5999,6.8898,0.0,0.0,6.9522,6.9743,7.2092,6.9486,5.6455,0.0,0.0,0.0,0.0,0.0,0.0,0.0,0.0,0.0,0.0,0.0,0.0,0.0,0.0,0.0,0.0,0.0,0.0,0.0,0.0,0.0,0.0,0.0,0.0,0.0,0.0,0.0,0.0,0.0,0.0,0.0,0.0,0.0,0.0,0.0,0.0,0.0,0.0,0.0,0.0,0.0,0.0,0.0,0.0,0.0,0.0,0.0,0.0,0.0,0.0,0.0,0.0,0.0,6.6141,7.3457,8.3292,8.9286,9.1133,9.1518,9.0325,8.7478,8.4093,7.7207,0.0,0.0,0.0,0.0,0.0,0.0,0.0,0.0,0.0,0.0,0.0,0.0,0.0,0.0,0.0,0.0,0.0,0.0,0.0,0.0,0.0,0.0,0.0,0.0,0.0,0.0,0.0,0.0,3.5642,3.6083,3.4688,0.0,0.0,0.0,0.0,0.0,0.0,0.0,0.0,0.0,0.0,6.3356,6.7467,6.9376,0.0,0.0,7.2422,7.2275,7.4258,7.1835,6.7247,5.9979,5.5133,0.0,0.0,0.0,0.0,0.0,0.0,0.0,0.0,0.0,0.0,0.0,0.0,0.0,0.0,0.0,0.0,0.0,0.0,0.0,0.0,0.0,0.0,0.0,0.0,0.0,0.0,0.0,0.0,0.0,0.0,0.0,0.0,0.0,0.0,0.0,0.0,0.0,0.0,0.0,0.0,0.0,0.0,0.0,0.0,0.0,0.0,0.0,0.0,0.0,0.0,0.0,0.0,6.5974,7.3822,8.2785,8.8479,9.0787,9.0787,8.9594,8.7055,8.3939,7.7861,0.0,0.0,0.0,0.0,0.0,0.0,0.0,0.0,0.0,0.0,0.0,0.0,0.0,0.0,0.0,0.0,0.0,0.0,0.0,0.0,0.0,0.0,0.0,0.0,0.0,0.0,0.0,0.0,3.8285,3.7624,3.4614,0.0,0.0,0.0,0.0,0.0,0.0,0.0,0.0,0.0,0.0,6.6145,7.1248,7.2239,7.3083,7.4992,7.3487,7.2936,7.5175,7.1431,6.6623,6.1667,0.0,0.0,0.0,0.0,0.0,0.0,0.0,0.0,0.0,0.0,0.0,0.0,0.0,0.0,0.0,0.0,0.0,0.0,0.0,0.0,0.0,0.0,0.0,0.0,0.0,0.0,0.0,0.0,0.0,0.0,3.402,0.0,0.0,0.0,0.0,0.0,0.0,0.0,0.0,0.0,0.0,0.0,0.0,0.0,0.0,0.0,0.0,0.0,0.0,0.0,0.0,0.0,0.0,0.0,7.463,8.3009,8.8205,8.9863,8.9902,8.8709,8.6247,8.3632,7.8669,7.0898,0.0,0.0,0.0,0.0,0.0,0.0,0.0,0.0,0.0,0.0,0.0,0.0,0.0,0.0,0.0,0.0,0.0,0.0,0.0,0.0,0.0,0.0,0.0,0.0,0.0,0.0,3.7331,3.6817,3.5495,0.0,0.0,0.0,0.0,0.0,0.0,0.0,0.0,0.0,0.0,6.4016,6.9045,7.3083,7.4331,7.5139,7.5946,7.345,7.1468,7.1688,7.1945,6.9412,0.0,0.0,0.0,0.0,0.0,0.0,0.0,0.0,0.0,0.0,0.0,0.0,0.0,0.0,0.0,0.0,0.0,0.0,0.0,0.0,0.0,0.0,0.0,0.0,0.0,0.0,0.0,4.2842,4.1619,0.0,0.0,0.0,0.0,0.0,0.0,0.0,0.0,0.0,0.0,0.0,5.7473,5.9447,0.0,0.0,0.0,0.0,0.0,0.0,0.0,0.0,0.0,0.0,0.0,0.0,6.5974,7.386,8.1708,8.6824,8.9017,8.9056,8.8402,8.6978,8.4478,7.8515,6.8667,0.0,0.0,0.0,0.0,0.0,0.0,0.0,0.0,0.0,0.0,0.0,0.0,0.0,0.0,0.0,0.0,0.0,0.0,0.0,0.0,0.0,0.0,0.0,0.0,0.0,3.7655,0.0,0.0,0.0,0.0,0.0,0.0,0.0,0.0,0.0,0.0,0.0,5.6161,6.3135,6.8017,7.1945,7.4918,7.5983,7.6607,0.0,0.0,0.0,0.0,0.0,0.0,0.0,0.0,0.0,0.0,0.0,0.0,0.0,0.0,6.4347,5.3885,5.0655,4.9811,5.0582,0.0,0.0,0.0,0.0,0.0,0.0,0.0,0.0,0.0,0.0,0.0,0.0,0.0,0.0,0.0,0.0,4.5578,0.0,0.0,0.0,0.0,0.0,0.0,0.0,0.0,5.9858,6.3705,6.4859,6.7077,6.65,0.0,6.1516,5.6598,0.0,0.0,0.0,0.0,0.0,0.0,0.0,0.0,6.6551,7.4707,8.147,8.6011,8.8132,8.8282,8.7858,8.694,8.4209,7.8784,7.0437,6.5359,6.0319,0.0,0.0,0.0,0.0,0.0,0.0,0.0,0.0,0.0,0.0,0.0,0.0,0.0,0.0,0.0,0.0,0.0,0.0,0.0,0.0,0.0,0.0,0.0,3.9906,0.0,0.0,0.0,0.0,0.0,0.0,0.0,0.0,0.0,5.0545,5.6124,6.2365,6.8238,7.1762,7.4441,7.6276,0.0,0.0,0.0,0.0,0.0,0.0,0.0,7.0,7.044,6.8458,6.6696,6.6549,6.9889,7.2165,7.077,0.0,0.0,6.1887,5.8584,5.7776,5.8877,5.9685,6.0566,6.1924,6.3466,6.4787,0.0,0.0,0.0,0.0,0.0,0.0,0.0,0.0,5.3395,5.3933,0.0,5.1713,0.0,0.0,0.0,0.0,0.0,0.0,0.0,0.0,6.8629,7.2283,7.2322,7.2409,7.1986,7.1206,7.1717,6.8679,6.205,5.2549,0.0,0.0,0.0,0.0,0.0,0.0,6.809,7.7092,8.2317,8.5703,8.7286,8.7358,8.6935,8.6055,8.2939,7.9592,7.6169,7.2706,6.7898,6.1358,5.6934,0.0,0.0,0.0,0.0,0.0,0.0,0.0,0.0,0.0,0.0,0.0,0.0,0.0,0.0,0.0,0.0,0.0,0.0,0.0,0.0,4.2526,0.0,0.0,0.0,0.0,0.0,0.0,0.0,0.0,0.0,0.0,5.7712,6.2768,6.8421,7.3046,0.0,0.0,0.0,0.0,7.6533,7.7378,7.5469,7.4294,7.5139,7.5689,7.5065,7.2239,0.0,0.0,7.2569,7.4955,7.6276,7.2496,7.5102,7.6974,7.5175,7.0734,6.8274,6.9596,6.8274,6.7797,6.9853,7.1505,7.3083,6.6461,0.0,0.0,0.0,0.0,6.0819,6.3358,6.7898,6.559,6.3974,6.2781,5.9777,0.0,0.0,0.0,0.0,0.0,0.0,6.3243,6.7321,7.1898,7.4938,7.6707,7.7331,7.7177,7.6284,7.4734,7.2669,7.009,6.5474,5.7857,4.7663,0.0,0.0,0.0,0.0,7.1822,7.8015,8.2624,8.5395,8.644,8.6478,8.6055,8.5286,8.3708,8.1554,7.8784,7.6015,7.2245,6.7321,6.1935,0.0,0.0,0.0,0.0,0.0,0.0,0.0,0.0,0.0,0.0,0.0,0.0,0.0,0.0,0.0,0.0,0.0,0.0,0.0,4.201,4.289,4.2874,0.0,0.0,0.0,0.0,0.0,0.0,0.0,0.0,0.0,6.9125,7.027,7.1725,0.0,0.0,7.7745,7.7378,7.8112,7.9029,7.9837,0.0,0.0,0.0,7.8332,7.7451,7.8846,8.0755,8.1746,8.0938,8.1305,8.1305,8.0057,8.0424,8.0645,8.0021,7.6644,7.4037,7.4294,7.4735,7.5469,7.6754,7.8295,7.9323,7.6471,7.0383,6.7745,6.7686,6.9283,6.8629,7.0706,7.4361,7.2476,7.1168,7.0244,6.7741,6.4245,6.0089,5.7751,0.0,0.0,0.0,6.8475,7.2822,7.513,7.74,7.9477,8.0092,8.0054,7.9438,7.7616,7.631,7.5476,7.363,6.7282,5.7088,0.0,0.0,6.1473,6.8667,7.4745,7.9438,8.3086,8.528,8.6094,8.6094,8.5863,8.5363,8.4555,8.3208,8.1362,7.9515,7.6707,7.286,6.7667,6.1781,0.0,0.0,0.0,0.0,0.0,0.0,0.0,0.0,0.0,0.0,0.0,3.7969,0.0,0.0,0.0,0.0,4.22,4.5666,4.7662,4.8984,0.0,0.0,0.0,0.0,0.0,0.0,0.0,6.544,6.907,7.2221,7.5345,7.5956,7.655,7.7583,7.8738,7.947,7.9286,0.0,8.1048,8.1856,8.2213,8.2534,8.3023,8.1734,8.1169,8.2876,8.3544,8.4022,8.4462,8.4205,8.3911,8.3838,8.3471,8.3141,8.3141,8.1085,7.9213,7.8699,7.958,8.0645,8.1158,8.226,8.2994,8.472,8.349,7.7291,7.4943,7.5399,7.6169,7.6515,7.6515,7.5707,7.613,7.7284,7.4885,7.2803,7.0909,6.7975,0.0,0.0,7.1629,7.4437,7.763,7.8361,7.9554,8.1054,8.1093,8.1093,8.1093,8.0292,7.9485,7.8669,7.7938,7.5207,7.0591,6.8975,6.8783,7.0014,7.3399,7.7207,8.1246,8.374,8.5357,8.6055,8.6055,8.6017,8.5978,8.517,8.4286,8.3478,8.2631,8.0708,7.7476,7.336,6.7744,6.0435,0.0,0.0,0.0,0.0,0.0,0.0,0.0,0.0,0.0,0.0,0.0,0.0,0.0,0.0,0.0,5.0202,0.0,5.5857,5.8165,0.0,0.0,0.0,5.8012,5.9741,6.3896,6.7655,7.0293,0.0,0.0,0.0,0.0,8.2033,8.2312,8.1696,8.1507,8.2279,8.2361,8.2663,8.3566,8.4139,8.4545,8.4903,8.5201,8.5311,8.5013,8.486,8.4866,8.4903,8.4866,8.4829,8.4829,8.4792,8.4792,8.4792,8.4609,8.4315,8.2774,8.3067,8.3544,8.3581,8.4205,8.4719,8.7675,8.7363,8.5753,8.333,8.0554,8.0708,8.117,8.1708,8.0862,8.0015,7.9092,7.7237,7.5101,7.2878,7.2688,7.3553,7.5245,7.6438,7.813,8.0169,8.04,8.0708,8.1093,8.1093,8.1093,8.1093,8.09,8.0708,8.0477,8.0285,7.9246,7.7515,7.763,7.5707,7.1975,7.6899,8.0708,8.2978,8.4863,8.5901,8.6094,8.5517,8.517,8.517,8.3708,8.2824,8.2593,8.1823,8.04,7.8246,7.4784,7.0552,6.5513,5.6857,0.0,0.0,0.0,0.0,0.0,0.0,0.0,0.0,0.0,4.8548,3.82,0.0,5.1241,0.0,5.4357,5.7511,5.8511,5.9742,0.0,0.0,6.4622,6.6566,7.1578,7.2579,7.4143,7.7258,7.9015,8.0507,8.2119,8.3087,8.407,8.5098,8.3779,8.2935,8.3715,8.3972,8.4543,8.5708,8.5741,8.5946,8.7019,8.7427,8.7413,8.7304,8.6804,8.6444,8.6444,8.6444,8.6444,8.6444,8.6444,8.6444,8.6407,8.6444,8.6334,8.5894,8.5527,8.5233,8.5233,8.5857,8.6261,8.9252,8.9175,8.8829,8.7291,8.5132,8.4747,8.4401,8.4132,8.367,8.2708,8.14,8.0131,7.8723,7.7462,7.7523,7.8054,7.9015,7.9438,8.0169,8.1093,8.1093,8.1093,8.1093,8.1093,8.1093,8.1093,8.1093,8.1093,8.1093,8.1093,8.0862,8.04,8.0862,7.9631,7.6976,8.0362,8.267,8.3593,8.5247,8.594,8.5588,8.5132,8.4362,8.3247,8.2631,8.14,7.9554,7.9054,7.7861,7.5745,7.286,6.9821,6.6628,5.9896,5.4664,0.0,0.0,0.0,0.0,0.0,0.0,0.0,0.0,0.0,0.0,0.0,5.6472,0.0,6.1089,0.0,6.559,6.7513,6.9547,7.1681,7.2784,7.4696,7.8152,7.8386,7.9201,8.1537,8.2487,8.3396,8.448,8.5524,8.6404,8.7027,8.6339,8.5681,8.5599,8.6087,8.6855,8.7325,8.7599,8.7961,8.8888,8.8446,8.8227,8.8388,8.7985,8.7489,8.7423,8.7231,8.7031,8.7031,8.7031,8.7031,8.7031,8.7031,8.7031,8.6958,8.6628,8.6371,8.6334,8.6701,8.6848,9.0175,9.0021,8.9294,8.8983,8.8786,8.8055,8.6786,8.5209,8.5209,8.467,8.3708,8.2862,8.2439,8.2432,8.1747,8.1439,8.1439,8.14,8.1439,8.14,8.14,8.1439,8.14,8.14,8.14,8.1439,8.14,8.1362,8.1246,8.1246,8.1246,8.1246,8.1246,8.167,8.2477,8.3324,8.3824,8.3939,8.5363,8.5747,8.5049,8.4824,8.3555,8.1246,8.1477,7.9785,7.5899,7.5899,7.4861,7.2476,7.0437,6.8552,6.6744,6.2666,5.9165,0.0,5.4857,0.0,0.0,0.0,0.0,0.0,0.0,0.0,0.0,5.9935,6.2474,6.532,6.8667,7.1629,7.3937,7.6976,7.8592,7.8092,8.0131,8.1593,8.1747,8.2439,8.3346,8.4403,8.566,8.6277,8.5986,8.7578,8.8654,8.8281,8.8683,8.8547,8.7677,8.822,8.8743,8.8426,8.9377,8.9825,8.9817,8.9122,8.8617,8.9032,8.8636,8.8249,8.819,8.7709,8.7328,8.7328,8.7298,8.7163,8.7132,8.7064,8.7031,8.7031,8.6958,8.6958,8.6958,8.6958,8.7031,9.1595,9.0979,9.079,9.0364,8.9671,8.9517,8.8479,8.694,8.6901,8.6094,8.4599,8.3747,8.3362,8.3324,8.3208,8.3131,8.3131,8.3093,8.3131,8.3131,8.3131,8.3131,8.3131,8.3086,8.3125,8.3131,8.3131,8.2747,8.2093,8.2093,8.2054,8.2054,8.2054,8.2477,8.3362,0.0,0.0,0.0,8.594,8.6055,8.5824,8.4516,8.2978,8.1131,7.9246,0.0,7.4207,7.5284,7.5168,7.3399,7.4091,0.0,0.0,0.0,0.0,0.0,0.0,0.0,0.0,0.0,0.0,0.0,6.6474,6.4974,6.2551,6.7475,7.0821,7.086,7.386,7.6322,7.7476,7.9361,8.0823,8.1362,8.3054,8.4439,8.5093,8.5901,8.6791,8.7683,8.806,8.8141,8.8152,8.9028,8.964,8.9573,9.0224,9.0416,8.9589,8.9275,8.9289,8.9631,8.9946,9.0116,9.0078,8.9855,8.9669,8.9809,8.9377,8.8963,8.891,8.8801,8.8691,8.8636,8.8249,8.7898,8.7898,8.746,8.6995,8.7031,8.7031,8.7031,8.7031,8.7031,8.7031,9.2592,0.0,9.1825,9.1325,0.0,9.0556,8.9825,8.8556,8.7748,8.6709,8.5406,8.4632,8.4247,8.4209,8.3785,8.3593,8.3593,8.3593,8.3593,8.3593,8.3593,8.3593,8.3593,8.3587,8.3587,8.3593,8.3561,8.3368,8.2939,8.2939,8.2939,8.2939,8.2939,8.3362,8.4247,8.5093,8.5709,8.6094,8.6094,8.5901,8.5445,8.4247,8.2593,8.0516,0.0,0.0,0.0,0.0,0.0,0.0,0.0,0.0,0.0,0.0,0.0,6.8321,6.7513,6.7244,6.7667,6.9244,7.1283,7.3822,7.5207,7.4284,7.0514,7.4168,7.6784,7.7169,7.8784,8.0092,8.0977,8.2554,8.3708,8.4209,8.5709,8.694,8.7363,8.7748,8.8209,8.8632,8.9017,8.9286,8.9286,9.0017,9.0517,9.0556,9.0902,9.1064,9.0723,9.0364,9.0284,9.0566,9.0245,9.0241,9.0528,9.0284,9.0245,9.0447,9.0073,8.9669,8.9583,8.9289,8.9122,8.9069,8.8801,8.8503,8.8167,8.7773,8.746,8.7132,8.7031,8.7031,8.7031,8.7031,8.7031,9.3438,9.2672,9.2553,9.2091,9.1402,9.1248,9.071,8.9787,0.0,0.0,0.0,8.5478,8.5132,8.506,8.4362,8.4016,8.4055,8.4016,8.4055,8.4055,8.4055,8.4016,8.4016,8.4055,8.4055,8.4055,8.4061,8.3984,8.3824,8.3824,8.3824,8.3824,8.3824,8.4247,8.5132,8.5786,8.6094,8.6094,8.6094,8.5786,8.5099,8.4286,8.267,8.0323,7.9092,7.6976,7.386,7.3168,7.2168,7.0667,7.0475,7.0898,7.1975,7.2283,7.3322,7.5207,7.6169,7.6784,7.713,7.8554,7.9592,8.0015,8.2016,8.1823,7.8669,7.9669,8.117,8.2824,8.2978,8.3362,8.4401,8.5709,8.6555,8.6555,8.7979,8.8902,8.8902,8.9056,8.921,8.921,8.9787,9.0133,9.0171,9.071,9.121,9.1171,9.1171,9.121,9.121,9.11,9.11,9.11,9.0685,9.0566,9.0914,9.0762,9.0566,9.1026,9.0646,9.0326,9.0203,8.9809,8.9525,8.9573,8.9426,8.9016,8.8446,8.8167,8.7836,8.7095,8.7031,8.7031,8.7031,8.7031,8.7031,9.4328,9.3445,9.2787,9.2438,9.2249,9.1518,9.071,8.9787,8.8132,8.7325,8.7166,8.6286,8.594,8.594,8.5824,8.5747,8.5747,8.5747,8.5747,0.0,8.5747,8.5747,8.5747,8.5747,8.5747,8.5747,8.5747,8.5401,8.4786,8.4747,8.4709,8.4709,8.4709,8.5132,8.5863,8.6055,8.6094,8.6094,8.6094,8.6055,8.594,8.5132,8.3824,8.1977,7.9708,7.7246,7.4668,7.5168,7.5014,7.413,7.6669,7.7669,7.6515,7.7707,7.84,7.8054,7.8784,7.99,8.1323,8.2324,8.3824,8.5901,8.6478,8.5555,8.3016,8.2939,8.3785,8.5363,8.5517,8.6247,8.7748,8.8132,8.8248,8.8363,8.9171,8.9748,8.9748,9.0325,9.0748,9.071,9.0902,9.0979,9.0941,9.1095,9.121,9.121,9.121,9.121,9.121,9.121,9.121,9.121,9.1136,9.11,9.1136,9.1136,9.1064,9.1136,9.11,9.0914,9.0914,9.0839,9.0723,9.0839,9.0364,8.9763,8.9122,8.8446,8.7985,8.7328,8.7163,8.7095,8.7132,8.7064,8.7031,9.5212,9.4368,9.3982,9.3595,9.3095,9.2249,9.1402,9.0517,8.9286,8.8512,8.8089,8.7704,8.7248,8.6819,8.6786,8.6555,8.6094,8.6094,8.6094,8.6094,8.6094,8.6094,8.6094,8.6094,8.6094,8.6094,8.6094,8.5901,8.5593,8.5555,8.5555,8.5555,8.5555,8.5709,8.6094,8.6094,8.6094,8.6094,8.6094,8.6094,8.6094,8.5324,8.4516,8.3708,8.1631,8.0054,7.89,7.8784,7.8592,7.8207,7.9669,8.0362,8.0092,8.0746,8.117,8.1285,8.2093,8.3093,8.4286,8.5593,8.6863,8.8017,8.8094,8.7632,8.6478,8.6363,8.6709,8.744,8.7517,8.7825,8.8632,8.9094,8.9363,8.9363,9.0094,9.0594,9.0633,9.0941,9.1171,9.121,9.121,9.121,9.121,9.121,9.121,9.121,9.121,9.121,9.121,9.121,9.121,9.121,9.121,9.121,9.121,9.121,9.121,9.121,9.121,9.121,9.121,9.121,9.121,9.121,9.0876,9.0447,8.9763,8.9426,8.8872,8.833,8.8093,8.807,8.7709,8.7261,8.6995,9.5942,9.5289,9.5058,9.4482,9.3633,9.2826,9.2133,9.1441,9.0556,8.9859,8.9244,8.8897,8.8325,8.7709,8.7478,8.7017,8.644,8.6209,8.6094,8.6094,8.6094,8.6094,8.6094,8.6094,8.6094,8.6094,8.6094,8.6094,8.6094,8.6094,8.6094,8.6094,8.6094,8.6209,8.6401,8.6401,8.6478,8.6671,8.6671,8.6478,8.6094,8.567,8.544,8.5363,8.417,8.3439,8.3401,8.267,8.2247,8.2247,8.2401,8.2785,8.3401,8.3632,8.4055,8.4709,8.5363,8.6132,8.694,8.8171,8.9056,8.9248,8.9248,8.9248,8.9248,8.9248,8.9171,8.9017,8.8902,8.9017,8.9325,8.9825,9.021,9.0248,9.0979,9.1479,9.1479,9.1479,9.1518,9.1479,9.1325,9.121,9.121,9.121,9.121,9.121,9.121,9.121,9.121,9.121,9.121,9.121,9.121,9.121,9.121,9.121,9.121,9.121,9.121,9.121,9.121,9.121,9.121,9.121,9.121,9.0839,9.0284,9.0035,8.9763,8.9173,8.8963,8.8801,8.813,8.7526,8.6995,9.6249,9.6057,9.5366,9.4482,9.3672,9.2903,9.2479,9.2249,9.1441,9.1056,9.0748,8.9363,8.8709,8.8448,8.7786,8.7435,8.7209,8.6478,8.6132,8.6132,8.6094,8.6094,8.6132,8.6132,8.6094,8.6132,8.617,8.617,8.6094,8.6132,8.6132,8.6094,8.6094,8.6555,8.7171,8.7286,8.7666,8.843,8.8474,8.7709,8.6247,8.6786,8.7171,8.7171,8.7017,8.6901,8.6748,8.6094,8.5632,8.5709,8.6324,8.6786,8.694,8.7632,8.8094,8.8094,8.8248,8.8709,8.9479,8.971,9.0171,9.0864,9.0979,9.0979,9.0979,9.0979,9.0633,9.0094,8.9863,9.0094,9.0864,9.1018,9.1095,9.1133,9.1864,9.2364,9.2402,9.2402,9.2364,9.2402,9.1748,9.121,9.1287,9.1248,9.121,9.121,9.121,9.121,9.121,9.121,9.121,9.121,9.121,9.121,9.121,9.121,9.121,9.121,9.121,9.121,9.121,9.121,9.121,9.121,9.121,9.0914,9.0447,9.0078,8.9901,8.9573,8.9276,8.891,8.8249,8.7489,8.7064,9.6288,9.6249,9.5942,9.5288,9.448,9.4095,9.3403,9.2479,9.2133,9.1672,9.1171,9.0479,8.9906,8.9371,8.9021,8.8632,8.8171,8.7786,8.7363,8.6901,8.6863,8.6863,8.6863,8.6863,8.6863,8.6901,8.6863,8.6632,8.6247,8.6594,8.6863,8.694,8.7363,8.7825,8.8132,8.8171,8.8325,8.8666,8.8705,8.8363,8.7791,8.8017,8.8171,8.8171,8.8171,8.8171,8.8132,8.7786,8.7632,8.7632,8.7979,8.8171,8.8171,8.8517,8.8671,8.8748,8.9633,9.0556,9.1364,9.1864,9.2287,9.2672,9.2672,9.2672,9.2672,9.2672,9.2518,9.2133,9.1248,9.0825,9.121,9.1672,9.1979,9.2056,9.271,9.321,9.321,9.321,9.321,9.3133,9.2479,9.1941,9.1864,9.1518,9.1248,9.121,9.121,9.121,9.121,9.121,9.121,9.121,9.121,9.121,9.121,9.121,9.121,9.121,9.121,9.121,9.121,9.121,9.121,9.121,9.121,9.11,9.0876,9.0762,9.0606,9.0198,8.9476,8.9016,8.8691,8.7836,8.7311,9.6288,9.6288,9.6288,9.5942,9.5326,9.5095,9.4326,9.321,9.2941,9.2364,9.1595,9.1556,9.1095,9.029,9.0021,8.956,8.9056,8.8786,8.8363,8.7786,8.7748,8.7748,8.7748,8.7786,8.7786,8.7748,8.7714,8.744,8.694,8.7401,8.7748,8.7863,8.8402,8.8786,8.9017,8.9017,8.9133,8.9363,8.9363,8.9402,8.9406,8.9367,8.9248,8.9056,8.9286,8.9402,8.9363,8.9402,8.9363,8.9363,8.9363,8.9363,8.9402,8.9594,8.9825,9.0133,9.121,9.2133,9.2787,9.3364,9.3672,9.3672,9.3672,9.3672,9.3672,9.3672,9.3672,9.3557,9.2595,9.1902,9.1979,9.2441,9.2787,9.2903,9.3557,9.4018,9.4057,9.4057,9.4057,9.398,9.3326,9.2826,9.271,9.2133,9.1633,9.1595,9.1364,9.121,9.121,9.121,9.121,9.121,9.121,9.121,9.121,9.121,9.121,9.121,9.121,9.121,9.121,9.121,9.121,9.121,9.121,9.1136,9.1064,9.1136,9.1175,9.0952,9.0241,8.9389,8.9339,8.833,8.7979,9.6288,9.6288,9.6288,9.6249,9.6172,9.5403,9.498,9.4672,9.398,9.3172,9.2515,9.2438,9.1941,9.1133,9.0406,8.9906,8.9787,8.9133,8.8748,8.8632,8.8632,8.8632,8.8632,8.8671,8.8671,8.8632,8.8671,8.8594,8.8479,8.8594,8.8632,8.8671,8.8786,8.9133,8.9748,8.9863,9.0248,9.0825,9.0902,9.1018,9.1018,9.1018,9.0594,9.0017,9.0633,9.0979,9.1018,9.1056,9.1018,9.1056,9.0979,9.1018,9.1133,9.1825,9.2518,9.321,9.3441,9.3557,9.3633,9.3787,9.3826,9.3787,9.3903,9.3787,9.3941,9.3941,9.3941,9.3749,9.3749,9.3595,9.3595,9.3595,9.3672,9.371,9.4441,9.4864,9.4941,9.4941,9.4941,9.4826,9.4172,9.3633,9.3557,9.2941,9.2479,9.221,9.1748,9.1248,9.121,9.121,9.121,9.121,9.121,9.121,9.121,9.121,9.121,9.121,9.121,9.121,9.121,9.121,9.121,9.121,9.121,9.121,9.121,9.121,9.121,9.0989,9.0488,9.0028,8.9809,8.9426,8.9252,9.6288,9.6288,9.6288,9.6288,9.6249,9.5942,9.5518,9.498,9.4672,9.4057,9.3361,9.3246,9.2784,9.2053,9.171,9.1248,9.0748,9.0402,9.0017,8.9517,8.9479,8.9479,8.9479,8.9479,8.9444,8.9483,8.9479,8.921,8.8786,8.921,8.9479,8.9594,9.0017,9.0479,9.071,9.071,9.0902,9.1171,9.121,9.121,9.121,9.121,9.1056,9.0787,9.1018,9.121,9.121,9.121,9.121,9.121,9.121,9.1441,9.2056,9.2826,9.3364,9.371,9.421,9.4518,9.4595,9.5057,9.5365,9.5365,9.5365,9.5326,9.5365,9.5365,9.5365,9.5365,9.5365,9.5365,9.5249,9.4864,9.4518,9.4634,9.5288,9.5788,9.5826,9.5826,9.5826,9.5711,9.5057,9.4364,9.3864,9.3441,9.3095,9.2595,9.221,9.1825,9.1325,9.121,9.121,9.121,9.121,9.121,9.121,9.121,9.121,9.121,9.121,9.121,9.121,9.121,9.121,9.121,9.121,9.1287,9.1287,9.1248,9.1248,9.1216,9.0721,9.0478,9.0078,9.0143,9.0348,9.6288,9.6288,9.6288,9.6288,9.6288,9.6288,9.598,9.5441,9.5403,9.4941,9.4249,9.4131,9.3669,9.2941,9.263,9.2207,9.1595,9.1325,9.0902,9.0364,9.0325,9.0325,9.0325,9.0325,9.0364,9.0329,9.0325,9.0017,8.9633,9.0056,9.0325,9.0364,9.0941,9.121,9.121,9.121,9.121,9.121,9.121,9.121,9.121,9.121,9.121,9.121,9.121,9.121,9.121,9.121,9.121,9.121,9.1441,9.2133,9.321,9.3826,9.4249,9.4557,9.5095,9.5403,9.548,9.598,9.6288,9.6288,9.6288,9.6288,9.6288,9.6288,9.6288,9.6288,9.6288,9.6288,9.6211,9.5749,9.5441,9.548,9.5942,9.6288,9.6288,9.6288,9.6249,9.6172,9.5788,9.5172,9.4634,9.4287,9.3903,9.3326,9.2903,9.221,9.1748,9.1364,9.121,9.121,9.121,9.121,9.121,9.121,9.121,9.121,9.121,9.121,9.121,9.121,9.121,9.121,9.1248,9.1364,9.1364,9.1325,9.1402,9.1482,9.1489,9.1298,9.1135,9.1233,9.1482,9.6288,9.6288,9.6288,9.6288,9.6288,9.6288,9.6288,9.6211,9.6211,9.5749,9.5058,9.502,9.452,9.3676,9.3095,9.2592,9.2402,9.1787,9.1325,9.1095,9.1095,9.1095,9.1095,9.1056,9.1056,9.1095,9.1171,9.121,9.1133,9.1248,9.1325,9.1248,9.1287,9.1325,9.121,9.121,9.121,9.121,9.121,9.121,9.121,9.121,9.121,9.121,9.1248,9.1325,9.1287,9.1287,9.1325,9.1402,9.2056,9.3249,9.4557,9.4941,9.5326,9.5942,9.6211,9.6249,9.6249,9.6249,9.6288,9.6288,9.6288,9.6288,9.6288,9.6288,9.6288,9.6288,9.6288,9.6288,9.6288,9.6211,9.6172,9.6288,9.6249,9.6288,9.6288,9.6288,9.6288,9.6288,9.6172,9.6249,9.6057,9.548,9.4903,9.448,9.3633,9.2749,9.2518,9.1979,9.1402,9.1287,9.1402,9.1479,9.1325,9.121,9.121,9.121,9.121,9.121,9.121,9.121,9.121,9.121,9.121,9.1287,9.1595,9.1595,9.1825,9.1944,9.1948,9.214,9.2181,9.2255,9.2786,9.6288,9.6288,9.6288,9.6288,9.6288,9.6288,9.6288,9.6288,9.6288,9.6134,9.5942,9.5903,9.5405,9.4712,9.4289,9.3903,9.3326,9.2979,9.2326,9.1402,9.121,9.1248,9.1248,9.121,9.121,9.1325,9.1825,9.2095,9.2172,9.2633,9.2672,9.221,9.2095,9.1787,9.1287,9.121,9.121,9.121,9.121,9.121,9.121,9.121,9.121,9.1248,9.1787,9.2095,9.2095,9.2095,9.2095,9.2095,9.2903,9.3826,9.4826,9.5557,9.6019,9.6249,9.6288,9.6288,9.6288,9.6288,9.6288,9.6288,9.6288,9.6288,9.6288,9.6288,9.6288,9.6288,9.6288,9.6288,9.6288,9.6288,9.6288,9.6288,9.6288,9.6288,9.6288,9.6288,9.6288,9.6288,9.6288,9.6288,9.6249,9.5903,9.5634,9.5134,9.448,9.398,9.3403,9.3018,9.2633,9.2249,9.2133,9.1864,9.1595,9.1518,9.1518,9.1325,9.121,9.121,9.121,9.121,9.121,9.1402,9.1364,9.1595,9.1825,9.2018,9.2326,9.2633,9.2828,9.2943,9.3056,9.3445,9.4024,9.6288,9.6288,9.6288,9.6288,9.6288,9.6288,9.6288,9.6288,9.6288,9.6288,9.6288,9.6288,9.6019,9.5481,9.5174,9.4674,9.4172,9.3864,9.3133,9.2172,9.1748,9.1825,9.2056,9.213,9.2095,9.221,9.271,9.2941,9.2979,9.3403,9.3441,9.3018,9.2941,9.271,9.2172,9.2133,9.2133,9.2133,9.2133,9.2133,9.2133,9.2133,9.2133,9.221,9.2672,9.2941,9.2941,9.321,9.3287,9.3172,9.3749,9.4557,9.5403,9.598,9.6288,9.6288,9.6288,9.6288,9.6288,9.6288,9.6288,9.6288,9.6288,9.6288,9.6288,9.6288,9.6288,9.6288,9.6288,9.6288,9.6288,9.6288,9.6288,9.6288,9.6288,9.6288,9.6288,9.6288,9.6288,9.6288,9.6288,9.6288,9.6288,9.6288,9.6095,9.5557,9.5172,9.4903,9.4249,9.3864,9.3403,9.3095,9.2979,9.2518,9.1902,9.1825,9.1864,9.1556,9.121,9.121,9.121,9.121,9.1248,9.1941,9.2133,9.2903,9.321,9.2979,9.3095,9.3364,9.3672,9.371,9.3864,9.4711,9.5213,9.6288,9.6288,9.6288,9.6288,9.6288,9.6288,9.6288,9.6288,9.6288,9.6288,9.6288,9.6288,9.6288,9.6095,9.5481,9.5135,9.4941,9.4403,9.4057,9.3672,9.3172,9.3018,9.3364,9.34,9.3361,9.348,9.3672,9.3749,9.3787,9.4018,9.3787,9.3787,9.3749,9.371,9.348,9.3633,9.348,9.3441,9.3518,9.3518,9.3518,9.3557,9.3557,9.3557,9.3672,9.3787,9.3864,9.448,9.4634,9.4095,9.4672,9.5403,9.6095,9.6288,9.6288,9.6288,9.6288,9.6288,9.6288,9.6288,9.6288,9.6288,9.6288,9.6288,9.6288,9.6288,9.6288,9.6288,9.6288,9.6288,9.6288,9.6288,9.6288,9.6288,9.6288,9.6288,9.6288,9.6288,9.6288,9.6288,9.6288,9.6288,9.6288,9.6288,9.6249,9.6095,9.5595,9.5249,9.5057,9.4634,9.4018,9.3826,9.3787,9.3326,9.2749,9.2672,9.271,9.2441,9.1979,9.1825,9.171,9.171,9.1864,9.2479,9.3056,9.3903,9.421,9.3787,9.3864,9.4287,9.4441,9.4441,9.4864,9.5634,9.5865,9.6288,9.6288,9.6288,9.6288,9.6288,9.6288,9.6288,9.6288,9.6288,9.6288,9.6288,9.6288,9.6288,9.6249,9.6095,9.598,9.5826,9.5672,9.5634,9.548,9.4749,9.4018,9.3749,9.371,9.3749,9.3864,9.4403,9.4635,9.4711,9.5211,9.5211,9.4672,9.4634,9.4326,9.3826,9.3787,9.3672,9.3672,9.371,9.3749,9.3787,9.3787,9.3672,9.3749,9.4326,9.4634,9.4711,9.548,9.5903,9.5672,9.5788,9.6057,9.6249,9.6288,9.6288,9.6288,9.6288,9.6288,9.6288,9.6288,9.6288,9.6288,9.6288,9.6288,9.6288,9.6288,9.6288,9.6288,9.6288,9.6288,9.6288,9.6288,9.6288,9.6288,9.6288,9.6288,9.6288,9.6288,9.6288,9.6288,9.6288,9.6288,9.6288,9.6288,9.6288,9.6249,9.6057,9.5865,9.5672,9.5634,9.5134,9.4749,9.4557,9.4134,9.3749,9.3633,9.3518,9.3364,9.3095,9.2864,9.2787,9.2749,9.3018,9.3441,9.3749,9.4441,9.4403,9.4172,9.4634,9.5172,9.5365,9.5441,9.5672,9.6172,9.6134,9.6288,9.6288,9.6288,9.6288,9.6288,9.6288,9.6288,9.6288,9.6288,9.6288,9.6288,9.6288,9.6288,9.6288,9.6288,9.6288,9.6288,9.6288,9.6249,9.6211,9.5749,9.5057,9.4518,9.4518,9.4788,9.4826,9.5288,9.5518,9.5634,9.6095,9.598,9.5634,9.5518,9.5249,9.4941,9.4788,9.4788,9.4826,9.4788,9.4788,9.4788,9.4788,9.4788,9.4864,9.5326,9.5557,9.5634,9.6019,9.6288,9.6288,9.6288,9.6288,9.6288,9.6288,9.6288,9.6288,9.6288,9.6288,9.6288,9.6288,9.6288,9.6288,9.6288,9.6288,9.6288,9.6288,9.6288,9.6288,9.6288,9.6288,9.6288,9.6288,9.6288,9.6288,9.6288,9.6288,9.6288,9.6288,9.6288,9.6288,9.6288,9.6288,9.6288,9.6288,9.6288,9.6288,9.6288,9.6211,9.6211,9.6288,9.6172,9.5672,9.5365,9.498,9.4788,9.4672,9.421,9.4057,9.4134,9.3903,9.3749,9.3749,9.4018,9.4287,9.4557,9.4788,9.4864,9.5018,9.5403,9.5865,9.6134,9.6211,9.6249,9.6288,9.6288,9.6288,9.6288,9.6288,9.6288,9.6288,9.6288,9.6288,9.6288,9.6288,9.6288,9.6288,9.6288,9.6288,9.6288,9.6288,9.6288,9.6288,9.6288,9.6288,9.6288,9.6134,9.5788,9.5288,9.5711,9.598,9.6057,9.6249,9.6211,9.6172,9.6249,9.6288,9.6172,9.6211,9.6249,9.598,9.6095,9.6249,9.6095,9.598,9.598,9.598,9.598,9.5942,9.598,9.6019,9.6134,9.6172,9.6288,9.6288,9.6288,9.6288,9.6288,9.6288,9.6288,9.6288,9.6288,9.6288,9.6326,9.6442,9.6557,9.6596,9.6711,9.6749,9.6557,9.6749,9.6711,9.6557,9.6557,9.6365,9.6288,9.6326,9.6365,9.6403,9.6365,9.6288,9.6288,9.6288,9.6288,9.6288,9.6288,9.6288,9.6288,9.6288,9.6288,9.6288,9.6288,9.6288,9.6288,9.6288,9.6288,9.6288,9.6172,9.598,9.5903,9.5788,9.5711,9.5134,9.4711,9.5018,9.4941,9.4672,9.4711,9.498,9.5211,9.5365,9.5595,9.5826,9.6057,9.6172,9.6172,9.6249,9.6249,9.6288,9.6288,9.6288,9.6288,9.6288,9.6288,9.6288,9.6288,9.6288,9.6288,9.6288,9.6288,9.6288,9.6288,9.6288,9.6288,9.6288,9.6288,9.6288,9.6288,9.6288,9.6288,9.6288,9.6288,9.6249,9.6019,9.6249,9.6288,9.6288,9.6288,9.6288,9.6288,9.6288,9.6288,9.6288,9.6288,9.6288,9.6288,9.6288,9.6288,9.6288,9.6288,9.6288,9.6288,9.6288,9.6288,9.6288,9.6288,9.6288,9.6288,9.6288,9.6288,9.6288,9.6326,9.6403,9.6403,9.6403,9.648,9.648,9.6442,9.6634,9.7096,9.7288,9.7557,9.8019,9.8057,9.8288,9.8211,9.7557,9.7288,9.7134,9.6711,9.648,9.6557,9.6942,9.6942,9.6673,9.6403,9.6365,9.6288,9.6288,9.6288,9.6288,9.6288,9.6288,9.6288,9.6288,9.6288,9.6288,9.6288,9.6288,9.6288,9.6288,9.6288,9.6288,9.6249,9.6095,9.6095,9.6019,9.5749,9.5365,9.5595,9.5749,9.548,9.5441,9.5634,9.5865,9.6095,9.6288,9.6288,9.6288,9.6249,9.6288,9.6288,9.6288,9.6288,9.6288,9.6288,9.6288,9.6288,9.6288,9.6288,9.6288,9.6288,9.6288,9.6288,9.6288,9.6288,9.6288,9.6288,9.6288,9.6288,9.6288,9.6288,9.6288,9.6288,9.6288,9.6288,9.6288,9.6288,9.6288,9.6288,9.6288,9.6288,9.6288,9.6288,9.6288,9.6288,9.6288,9.6288,9.6288,9.6288,9.6288,9.6288,9.6288,9.6288,9.6288,9.6288,9.6288,9.6288,9.6288,9.6288,9.6288,9.6288,9.6288,9.6288,9.6519,9.6749,9.6865,9.6865,9.698,9.725,9.7442,9.748,9.748,9.7634,9.8019,9.8134,9.8288,9.8788,9.8788,9.8788,9.875,9.8327,9.8173,9.8057,9.7788,9.748,9.748,9.775,9.7788,9.7557,9.7096,9.6865,9.6788,9.6557,9.6288,9.6288,9.6288,9.6288,9.6288,9.6288,9.6288,9.6288,9.6288,9.6288,9.6288,9.6288,9.6288,9.6288,9.6288,9.6249,9.6249,9.6249,9.6211,9.6019,9.6019,9.6095,9.598,9.6057,9.6211,9.6288,9.6288,9.6288,9.6288,9.6288,9.6288,9.6288,9.6288,9.6288,9.6288,9.6288,9.6288,9.6288,9.6288,9.6288,9.6288,9.6288,9.6288,9.6288,9.6288,9.6288,9.6288,9.6288,9.6288,9.6288,9.6288,9.6288,9.6288,9.6288,9.6288,9.6288,9.6288,9.6288,9.6288,9.6288,9.6288,9.6288,9.6288,9.6288,9.6288,9.6288,9.6288,9.6288,9.6288,9.6288,9.6288,9.6288,9.6288,9.6288,9.6288,9.6288,9.6288,9.6288,9.6288,9.6365,9.6596,9.6596,9.6749,9.6865,9.6942,9.7057,9.7634,9.7827,9.7904,9.8057,9.8327,9.8788,9.8711,9.8596,9.8711,9.8904,9.9019,9.9058,9.9135,9.925,9.925,9.9288,9.9135,9.9019,9.8981,9.8865,9.8788,9.8827,9.8904,9.8865,9.8634,9.8057,9.7711,9.7403,9.6865,9.6596,9.6288,9.6288,9.6288,9.6288,9.6288,9.6288,9.6288,9.6288,9.6288,9.6288,9.6288,9.6288,9.6288,9.6288,9.6288,9.6288,9.6288,9.6288,9.6288,9.6288,9.6288,9.6288,9.6288,9.6288,9.6288,9.6288,9.6288,9.6288,9.6288,9.6288,9.6288,9.6288,9.6288,9.6288,9.6288,9.6288,9.6288,9.6288,9.6288,9.6288,9.6288,9.6288,9.6288,9.6288,9.6288,9.6288,9.6288,9.6288,9.6288,9.6288,9.6288,9.6288,9.6288,9.6288,9.6288,9.6288,9.6288,9.6288,9.6288,9.6288,9.6288,9.6288,9.6288,9.6288,9.6288,9.6288,9.6288,9.6288,9.6288,9.6288,9.6288,9.6288,9.6288,9.6288,9.6288,9.6288,9.6288,9.6403,9.6749,9.7211,9.7326,9.7596,9.8134,9.8327,9.8442,9.8634,9.9288,9.9558,9.9481,9.9173,9.8981,9.9019,9.9058,9.9327,9.9788,9.9904,10.025,10.0673,10.075,10.075,10.0635,10.0289,9.9942,9.9865,9.9788,9.9635,9.8904,9.9481,9.9442,9.9058,9.8711,9.8365,9.7788,9.7442,9.7019,9.6596,9.6442,9.6288,9.6288,9.6288,9.6288,9.6288,9.6288,9.6288,9.6288,9.6288,9.6288,9.6288,9.6288,9.6288,9.6288,9.6288,9.6288,9.6288,9.6288,9.6288,9.6288,9.6288,9.6288,9.6288,9.6288,9.6288,9.6288,9.6288,9.6288,9.6288,9.6288,9.6288,9.6288,9.6288,9.6288,9.6288,9.6288,9.6288,9.6288,9.6288,9.6288,9.6288,9.6288,9.6288,9.6288,9.6288,9.6288,9.6288,9.6288,9.6288,9.6288,9.6288,9.6288,9.6288,9.6288,9.6288,9.6288,9.6288,9.6288,9.6288,9.6288,9.6288,9.6288,9.6288,9.6288,9.6288,9.6288,9.6288,9.6288,9.6288,9.6288,9.6288,9.6288,9.6288,9.6288,9.6365,9.6673,9.7365,9.7942,9.8173,9.8404,9.8634,9.8788,9.9019,9.9404,9.9865,10.0289,10.0442,10.0366,10.0058,10.0058,10.0019,10.0173,10.0635,10.0712,10.0904,10.1173,10.1289,10.1289,10.125,10.0904,10.0712,10.0712,10.0712,10.0558,10.0212,10.0442,10.0442,10.0173,9.975,9.9288,9.8865,9.8442,9.7788,9.7019,9.6634,9.6442,9.6288,9.6288,9.6288,9.6288,9.6288,9.6288,9.6288,9.6288,9.6288,9.6288,9.6288,9.6288,9.6288,9.6288,9.6288,9.6288,9.6288,9.6288,9.6288,9.6288,9.6288,9.6288,9.6288,9.6288,9.6288,9.6288,9.6288,9.6288,9.6288,9.6288,9.6288,9.6288,9.6288,9.6288,9.6288,9.6288,9.6288,9.6288,9.6288,9.6288,9.6288,9.6288,9.6288,9.6288,9.6288,9.6288,9.6288,9.6288,9.6288,9.6288,9.6288,9.6288,9.6288,9.6288,9.6288,9.6288,9.6288,9.6288,9.6288,9.6288,9.6288,9.6288,9.6288,9.6288,9.6288,9.6288,9.6288,9.6288,9.6288,9.6288,9.6288,9.6288,9.6326,9.6711,9.7365,9.8173,9.8942,9.9058,9.9135,9.9481,9.9519,9.9788,10.0173,10.0442,10.0635,10.1173,10.1289,10.1289,10.1289,10.1289,10.1289,10.125,10.125,10.1212,10.1289,10.1289,10.1289,10.1289,10.125,10.1212,10.1289,10.125,10.1212,10.1058,10.125,10.125,10.1096,10.0635,10.0212,9.9827,9.9327,9.8673,9.7904,9.7057,9.6596,9.648,9.6288,9.6288,9.6288,9.6288,9.6288,9.6288,9.6288,9.6288,9.6288,9.6288,9.6288,9.6288,9.6288,9.6288,9.6288,9.6288,9.6288,9.6288,9.6288,9.6288,9.6288,9.6288,9.6288,9.6288,9.6288,9.6288,9.6288,9.6288,9.6288,9.6288,9.6288,9.6288,9.6288,9.6288,9.6288,9.6288,9.6288,9.6288,9.6288,9.6288,9.6288,9.6288,9.6288,9.6288,9.6288,9.6288,9.6288,9.6288,9.6288,9.6288,9.6288,9.6288,9.6288,9.6288,9.6288,9.6288,9.6288,9.6288,9.6288,9.6288,9.6288,9.6288,9.6288,9.6288,9.6288,9.6288,9.6288,9.6288,9.6288,9.6288,9.6326,9.6711,9.7443,9.825,9.9058,9.9712,9.9981,10.0173,10.0596,10.0673,10.0904,10.0981,10.1096,10.1173,10.1289,10.1289,10.1289,10.1289,10.1289,10.1289,10.1289,10.1289,10.1289,10.1327,10.1404,10.1327,10.1404,10.1327,10.1289,10.1289,10.1289,10.1289,10.1289,10.1289,10.1289,10.1289,10.1135,10.0673,10.0327,10.0212,9.9558,9.8865,9.8096,9.725,9.6749,9.648,9.6288,9.6288,9.6288,9.6288,9.6288,9.6288,9.6288,9.6288,9.6288,9.6288,9.6288,9.6288,9.6288,9.6288,9.6288,9.6288,9.6288,9.6288,9.6288,9.6288,9.6288,9.6288,9.6288,9.6288,9.6288,9.6288,9.6288,9.6288,9.6288,9.6288,9.6288,9.6288,9.6288,9.6288,9.6288,9.6288,9.6288,9.6288,9.6288,9.6288,9.6288,9.6288,9.6288,9.6288,9.6288,9.6288,9.6288,9.6288,9.6288,9.6288,9.6288,9.6288,9.6288,9.6288,9.6288,9.6288,9.6288,9.6288,9.6288,9.6288,9.6326,9.6288,9.6326,9.6326,9.6288,9.648,9.6326,9.6288,9.6403,9.6788,9.7673,9.8712,9.9404,9.9942,10.0712,10.075,10.0981,10.1173,10.1289,10.1289,10.1289,10.1289,10.1289,10.1289,10.1289,10.1289,10.1289,10.1289,10.1289,10.1289,10.1327,10.1366,10.152,10.175,10.2058,10.1981,10.1635,10.1366,10.1289,10.1289,10.1327,10.1327,10.1289,10.1289,10.1327,10.1366,10.1173,10.0866,10.0827,10.0481,9.9788,9.9135,9.8327,9.748,9.6942,9.6673,9.648,9.6403,9.6365,9.6326,9.6288,9.6288,9.6288,9.6288,9.6288,9.6288,9.6288,9.6288,9.6288,9.6288,9.6288,9.6288,9.6288,9.6288,9.6288,9.6288,9.6288,9.6288,9.6288,9.6288,9.6288,9.6288,9.6288,9.6288,9.6288,9.6288,9.6288,9.6288,9.6288,9.6288,9.6288,9.6288,9.6288,9.6288,9.6288,9.6288,9.6288,9.6288,9.6288,9.6288,9.6288,9.6288,9.6288,9.6288,9.6288,9.6288,9.6288,9.6288,9.6288,9.6288,9.6288,9.6326,9.6634,9.6673,9.6749,9.6865,9.698,9.6634,9.6711,9.6826,9.6942,9.7096,9.7134,9.721,9.7865,9.8827,9.9788,10.025,10.0712,10.1096,10.1289,10.1289,10.1289,10.1289,10.1289,10.1289,10.1289,10.1289,10.1289,10.1289,10.152,10.1635,10.175,10.1943,10.1981,10.1981,10.1789,10.2097,10.2404,10.2904,10.2866,10.2251,10.1789,10.1789,10.2058,10.1827,10.152,10.1635,10.1789,10.1712,10.1558,10.1443,10.1327,10.1173,10.1019,10.0558,9.9981,9.9596,9.8711,9.7673,9.7134,9.6749,9.6596,9.6519,9.6403,9.6365,9.6288,9.6288,9.6288,9.6288,9.6288,9.6288,9.6288,9.6288,9.6288,9.6288,9.6288,9.6288,9.6288,9.6288,9.6288,9.6288,9.6288,9.6288,9.6288,9.6288,9.6288,9.6288,9.6288,9.6288,9.6288,9.6288,9.6288,9.6288,9.6288,9.6288,9.6288,9.6288,9.6288,9.6288,9.6288,9.6288,9.6288,9.6288,9.6288,9.6288,9.6288,9.6288,9.6288,9.6403,9.6403,9.6326,9.648,9.6557,9.6557,9.6442,9.6634,9.7134,9.7403,9.7557,9.798,9.7865,9.7557,9.7519,9.7942,9.8173,9.8173,9.8364,9.8518,9.9172,9.9673,10.0288,10.0711,10.1173,10.1212,10.1289,10.1289,10.1289,10.1289,10.1289,10.1289,10.1289,10.1481,10.152,10.1366,10.1597,10.2327,10.2327,10.2674,10.3135,10.2943,10.2981,10.3443,10.3674,10.3712,10.3751,10.3751,10.3328,10.2674,10.2943,10.2712,10.2443,10.2443,10.2597,10.2097,10.1827,10.1712,10.1558,10.1327,10.1173,10.1058,10.075,10.0327,10.0058,9.9096,9.8057,9.7673,9.7057,9.698,9.6596,9.648,9.6326,9.6288,9.6288,9.6288,9.6288,9.6288,9.6288,9.6288,9.6288,9.6288,9.6288,9.6288,9.6288,9.6288,9.6288,9.6288,9.6288,9.6288,9.6288,9.6288,9.6288,9.6288,9.6288,9.6288,9.6288,9.6288,9.6288,9.6288,9.6288,9.6288,9.6288,9.6288,9.6288,9.6288,9.6288,9.6288,9.6288,9.6288,9.6288,9.6288,9.6288,9.6365,9.6865,9.698,9.7019,9.7057,9.7326,9.7442,9.7365,9.7288,9.7711,9.8173,9.8327,9.8365,9.8827,9.9058,9.8865,9.8596,9.8481,9.8711,9.8981,9.9172,9.9596,9.9981,10.0289,10.0866,10.1058,10.1289,10.1289,10.1289,10.1289,10.1289,10.1289,10.1289,10.1327,10.1327,10.1597,10.1904,10.1635,10.2097,10.3097,10.2981,10.3443,10.4251,10.3982,10.3789,10.4289,10.4251,10.4135,10.4559,10.4251,10.3866,10.3635,10.3751,10.352,10.3366,10.3443,10.3405,10.2597,10.2212,10.2174,10.1866,10.1673,10.1481,10.1443,10.125,10.0943,10.0789,10.0558,9.9519,9.8596,9.7942,9.7403,9.7096,9.6826,9.6788,9.6634,9.6596,9.648,9.648,9.6403,9.6288,9.6288,9.6288,9.6288,9.6288,9.6288,9.6288,9.6288,9.6326,9.6365,9.6365,9.6288,9.6288,9.6288,9.6288,9.6288,9.6288,9.6326,9.6288,9.6288,9.6288,9.6288,9.6288,9.6288,9.6288,9.6288,9.6288,9.6288,9.6288,9.6288,9.6288,9.6288,9.6288,9.6288,9.6519,9.6788,9.7211,9.7596,9.7788,9.798,9.8288,9.8365,9.8327,9.8134,9.8788,9.9135,9.9211,9.9173,9.9404,9.9865,10.0096,9.9904,9.9673,9.9635,9.9558,9.9865,10.0289,10.0519,10.0673,10.125,10.1289,10.1289,10.1289,10.1289,10.1289,10.1289,10.1327,10.152,10.1558,10.1673,10.1981,10.2251,10.2481,10.2751,10.3405,10.3905,10.4059,10.4866,10.5136,10.4905,10.5328,10.5136,10.5136,10.5174,10.4943,10.4789,10.4328,10.4443,10.4482,10.4251,10.4328,10.4135,10.3482,10.3558,10.3443,10.2674,10.2289,10.202,10.1827,10.1558,10.1212,10.1135,10.0943,10.0327,9.9327,9.8596,9.8173,9.798,9.7711,9.748,9.7288,9.7057,9.6903,9.6711,9.6519,9.6365,9.6288,9.6288,9.6288,9.6288,9.6326,9.6326,9.6288,9.6326,9.6403,9.6519,9.6596,9.6442,9.6288,9.6365,9.648,9.6634,9.6673,9.6365,9.6288,9.6288,9.6288,9.6288,9.6288,9.6288,9.6326,9.6442,9.6519,9.648,9.6442,9.6442,9.6519,9.6519,9.6711,9.7019,9.748,9.7673,9.8096,9.8634,9.875,9.8827,9.8904,9.8942,9.8981,9.9058,9.9596,10.0058,10.0058,10.0519,10.0981,10.1096,10.0866,10.0866,10.1173,10.1212,10.125,10.125,10.1212,10.125,10.1289,10.1289,10.1289,10.1289,10.1289,10.1289,10.1289,10.152,10.1827,10.2174,10.1981,10.252,10.352,10.2981,10.3443,10.4828,10.4905,10.5328,10.6174,10.6251,10.6213,10.6136,10.5828,10.602,10.6213,10.6136,10.579,10.5174,10.5559,10.5328,10.5174,10.5097,10.4789,10.452,10.4559,10.4251,10.3443,10.2943,10.2674,10.2251,10.1712,10.1327,10.1289,10.1173,10.0827,10.0135,9.9327,9.8904,9.8788,9.8404,9.8134,9.798,9.7711,9.7365,9.7134,9.6673,9.6442,9.6365,9.6326,9.6365,9.648,9.6596,9.6557,9.6442,9.6749,9.7211,9.7096,9.6942,9.7134,9.7326,9.6788,9.6788,9.698,9.7134,9.7019,9.6288,9.6288,9.6288,9.6288,9.6288,9.6288,9.6596,9.7173,9.7634,9.7634,9.7288,9.7634,9.798,9.798,9.7904,9.8057,9.8365,9.9096,9.9558,9.9596,9.9635,10.0058,10.0135,9.9904,9.9904,10.0404,10.0827,10.0866,10.0904,10.1212,10.125,10.1289,10.1289,10.1289,10.1289,10.1289,10.1289,10.1289,10.1289,10.1289,10.1327,10.1327,10.1366,10.1366,10.1404,10.1481,10.152,10.1904,10.2404,10.2828,10.2597,10.3482,10.4328,10.3905,10.4251,10.5366,10.5597,10.552,10.6136,10.6367,10.6367,10.6405,10.6405,10.6405,10.6405,10.6405,10.6174,10.602,10.6136,10.5905,10.5982,10.5944,10.5674,10.502,10.4828,10.4482,10.3943,10.3674,10.3366,10.2751,10.2212,10.1673,10.1443,10.1327,10.1019,10.0789,10.0058,9.9788,9.9635,9.9019,9.8596,9.8557,9.8365,9.798,9.7634,9.7365,9.6942,9.6749,9.6673,9.6596,9.6711,9.7057,9.7365,9.7596,9.7827,9.8019,9.7942,9.798,9.8442,9.8519,9.8134,9.7865,9.8057,9.8211,9.8211,9.6288,9.6288,9.6288,9.6288,9.6288,9.6288,9.6788,9.7557,9.8404,9.8442,9.8134,9.8557,9.875,9.875,9.8788,9.9096,9.925,9.975,10.0404,10.0442,10.0519,10.0789,10.0904,10.0827,10.075,10.1212,10.1289,10.125,10.1212,10.1289,10.1289,10.1289,10.1327,10.1558,10.1673,10.1827,10.1635,10.1597,10.152,10.1635,10.1558,10.1558,10.1789,10.1904,10.2058,10.2289,10.2404,10.2712,10.3174,10.3443,10.3828,10.452,10.4905,10.502,10.5097,10.5751,10.602,10.5905,10.6251,10.6405,10.6405,10.6405,10.6405,10.6405,10.6405,10.6405,10.6405,10.6328,10.6405,10.6367,10.6367,10.6405,10.6136,10.5482,10.5366,10.502,10.4905,10.4674,10.4212,10.3558,10.2674,10.2135,10.1597,10.1404,10.1212,10.1019,10.0827,10.0635,10.0442,9.9904,9.9404,9.9442,9.9327,9.8981,9.8634,9.825,9.7788,9.725,9.7173,9.7211,9.7557,9.798,9.8365,9.8634,9.8557,9.8596,9.8827,9.9096,9.9519,9.9788,9.9712,9.9481,9.9327,9.9135,9.9058,9.6288,9.6288,9.6288,9.6288,9.6288,9.6365,9.6826,9.7596,9.8557,9.8904,9.8827,9.8942,9.9211,9.9058,9.8981,9.9442,10.0019,10.0212,10.0635,10.1019,10.1058,10.125,10.125,10.1212,10.1173,10.125,10.1289,10.1289,10.1327,10.1558,10.152,10.1635,10.1866,10.2135,10.252,10.2751,10.2443,10.2251,10.2327,10.2327,10.2135,10.2327,10.2558,10.2789,10.3097,10.3366,10.3558,10.3789,10.4251,10.4443,10.452,10.5174,10.5559,10.5559,10.5867,10.6097,10.6328,10.6367,10.6367,10.6405,10.6405,10.6405,10.6405,10.6405,10.6405,10.6405,10.6405,10.6405,10.6405,10.6405,10.6405,10.6405,10.6367,10.6213,10.6213,10.6097,10.602,10.5713,10.5213,10.4443,10.3405,10.2635,10.1866,10.1558,10.1673,10.1212,10.1096,10.1096,10.0943,10.0981,10.0596,10.0596,10.0404,10.0096,9.9673,9.9096,9.8596,9.8057,9.8211,9.8288,9.8634,9.8904,9.9211,9.9327,9.9096,9.9173,9.9635,10.0135,10.0596,10.075,10.0596,10.0519,10.0173,9.9712,9.9481,9.6288,9.6288,9.6288,9.6288,9.6365,9.6903,9.7288,9.775,9.9596,10.0289,9.975,10.0327,10.0404,10.0557,10.0596,10.0712,10.0827,10.0981,10.1096,10.125,10.1289,10.1289,10.1289,10.1289,10.1289,10.1289,10.1289,10.1366,10.152,10.1789,10.2635,10.3097,10.2904,10.3212,10.3597,10.4059,10.3635,10.3405,10.3443,10.3212,10.3097,10.3328,10.3482,10.3674,10.3905,10.4135,10.4174,10.4559,10.4943,10.4982,10.5482,10.6136,10.6174,10.6174,10.629,10.6328,10.6405,10.6405,10.6405,10.6405,10.6405,10.6405,10.6405,10.6405,10.6405,10.6405,10.6405,10.6405,10.6405,10.6405,10.6405,10.6405,10.6405,10.6405,10.6405,10.6367,10.629,10.6174,10.5636,10.4905,10.3905,10.3251,10.2481,10.2251,10.2251,10.1673,10.1327,10.1366,10.1289,10.1289,10.1289,10.125,10.1096,10.0673,10.0289,9.9788,9.9327,9.8942,9.9135,9.9327,9.9558,9.9827,10.0058,10.0135,10.0058,10.0289,10.0673,10.1019,10.1096,10.1173,10.1058,10.1058,10.0981,10.0481,10.0212,9.6288,9.6288,9.6288,9.6288,9.6442,9.7173,9.7519,9.7942,9.9865,10.0635,10.0635,10.1058,10.1289,10.1212,10.1212,10.125,10.125,10.1212,10.1289,10.1289,10.1289,10.1289,10.1289,10.1289,10.1289,10.1289,10.1366,10.152,10.1904,10.2635,10.3482,10.3712,10.3905,10.4135,10.4405,10.4713,10.4982,10.4751,10.4559,10.4251,10.4174,10.4251,10.4328,10.4443,10.4597,10.4789,10.4828,10.5405,10.552,10.5597,10.629,10.6367,10.6405,10.6405,10.6367,10.6405,10.6405,10.6405,10.6405,10.6405,10.6405,10.6405,10.6405,10.6405,10.6405,10.6405,10.6405,10.6405,10.6405,10.6405,10.6405,10.6405,10.6405,10.6405,10.6405,10.6405,10.6405,10.6405,10.5867,10.5213,10.4559,10.3982,10.352,10.3289,10.2866,10.2289,10.1827,10.1673,10.1481,10.1289,10.1289,10.1289,10.125,10.1096,10.0712,10.0481,10.0212,9.9981,10.0135,10.0366,10.0519,10.0596,10.0673,10.0904,10.1135,10.1212,10.1096,10.1173,10.125,10.1289,10.1289,10.125,10.1212,10.1058,10.0943,9.6288,9.6288,9.6288,9.6365,9.648,9.7134,9.748,9.775,9.9211,10.0327,10.0981,10.1173,10.1173,10.1289,10.1289,10.1289,10.1289,10.1289,10.1289,10.1289,10.1289,10.1289,10.1289,10.1289,10.1289,10.1289,10.1443,10.1789,10.2751,10.3558,10.4059,10.4059,10.4251,10.4674,10.5213,10.529,10.5559,10.579,10.5443,10.502,10.4672,10.4787,10.5213,10.5328,10.579,10.6251,10.6251,10.6367,10.6405,10.6405,10.6405,10.6405,10.6405,10.6405,10.6405,10.6405,10.6405,10.6405,10.6405,10.6405,10.6405,10.6405,10.6405,10.6405,10.6405,10.6405,10.6405,10.6405,10.6405,10.6405,10.6405,10.6405,10.6405,10.6405,10.6405,10.6405,10.6405,10.6367,10.6136,10.5597,10.5405,10.4789,10.4251,10.3943,10.3405,10.2866,10.2366,10.2097,10.1673,10.1366,10.1327,10.1327,10.1289,10.125,10.1173,10.0981,10.1096,10.1096,10.1019,10.1019,10.0943,10.1058,10.125,10.1289,10.1289,10.1289,10.125,10.1289,10.1289,10.1289,10.1289,10.1289,10.1289,10.1289,10.1289,9.6288,9.6288,9.6288,9.6634,9.7096,9.6749,9.7365,9.8404,9.8173,9.9019,10.0211,10.0404,10.0711,10.1173,10.1289,10.1289,10.1289,10.1289,10.1289,10.1289,10.1289,10.1289,10.1289,10.1289,10.1289,10.1289,10.152,10.2212,10.3366,10.4328,10.5174,10.5674,10.5636,10.5751,10.5905,10.5944,10.6136,10.6367,10.6136,10.5867,10.5672,10.5787,10.6097,10.6097,10.6405,10.6405,10.6405,10.6405,10.6405,10.6405,10.6405,10.6405,10.6405,10.6405,10.6405,10.6405,10.6405,10.6444,10.6482,10.6482,10.6444,10.6444,10.6444,10.6405,10.6405,10.6405,10.6405,10.6405,10.6405,10.6405,10.6405,10.6405,10.6405,10.6405,10.6405,10.6405,10.6405,10.6328,10.629,10.6174,10.6059,10.5636,10.502,10.452,10.3905,10.3366,10.2789,10.2327,10.1789,10.1443,10.1404,10.1366,10.1327,10.1289,10.1289,10.1289,10.1289,10.1289,10.1173,10.1212,10.1289,10.1289,10.1289,10.1289,10.1289,10.1289,10.1289,10.1289,10.1289,10.1289,10.1289,10.1289,10.1289,10.1289,10.1289,9.6288,9.6288,9.6288,9.6557,9.6826,9.648,9.6865,9.748,9.7173,9.7711,9.9019,9.9711,10.0365,10.0865,10.1096,10.1289,10.1289,10.1289,10.1289,10.1289,10.1289,10.1289,10.1289,10.1289,10.1289,10.1366,10.2251,10.3174,10.3982,10.5136,10.602,10.6367,10.6405,10.6405,10.6405,10.6405,10.6405,10.6405,10.6405,10.6405,10.6405,10.6405,10.6405,10.6405,10.6405,10.6405,10.6405,10.6405,10.6405,10.6405,10.6405,10.6405,10.6405,10.6405,10.6405,10.6405,10.6444,10.6559,10.6713,10.6674,10.6597,10.6674,10.6482,10.6444,10.6405,10.6405,10.6405,10.6405,10.6405,10.6405,10.6405,10.6405,10.6405,10.6405,10.6405,10.6405,10.6405,10.6367,10.6328,10.6328,10.6251,10.6136,10.5713,10.5674,10.5059,10.4443,10.3789,10.2904,10.2327,10.1673,10.1558,10.1404,10.1327,10.1289,10.1289,10.1289,10.1289,10.1289,10.1289,10.1289,10.1289,10.1289,10.1289,10.1289,10.1289,10.1289,10.1289,10.1289,10.1289,10.1289,10.1289,10.1289,10.1289,10.1289,10.1289,9.6288,9.6288,9.6288,9.6288,9.6288,9.6288,9.6326,9.6365,9.6326,9.6711,9.7596,9.9211,9.9865,10.0365,10.0865,10.1173,10.1289,10.1289,10.1289,10.1289,10.1289,10.1289,10.1289,10.1289,10.1289,10.1789,10.2635,10.3289,10.3943,10.5136,10.5944,10.629,10.6405,10.6405,10.6405,10.6405,10.6405,10.6405,10.6405,10.6405,10.6405,10.6405,10.6405,10.6405,10.6405,10.6405,10.6405,10.6405,10.6405,10.6405,10.6405,10.6405,10.6405,10.6405,10.6405,10.6405,10.6405,10.6751,10.7021,10.6713,10.6905,10.7021,10.6674,10.6444,10.6405,10.6405,10.6405,10.6405,10.6405,10.6405,10.6405,10.6405,10.6405,10.6405,10.6405,10.6405,10.6405,10.6405,10.6405,10.6405,10.6405,10.6367,10.6367,10.6367,10.5982,10.5405,10.4751,10.3905,10.3058,10.2366,10.1943,10.1597,10.1327,10.1289,10.1289,10.1289,10.1289,10.1289,10.1289,10.1289,10.1289,10.1289,10.1289,10.1289,10.1289,10.1289,10.1289,10.1289,10.1289,10.1289,10.1289,10.1289,10.1289,10.1289,10.1289,9.6288,9.6288,9.6288,9.6288,9.6288,9.6288,9.6288,9.6288,9.6288,9.6442,9.698,9.8249,9.9403,10.0134,10.0903,10.1289,10.1289,10.1289,10.1289,10.1289,10.1289,10.1289,10.1289,10.1289,10.1289,10.1789,10.252,10.3174,10.3982,10.4943,10.5751,10.6367,10.6405,10.6405,10.6405,10.6405,10.6405,10.6405,10.6405,10.6405,10.6405,10.6405,10.6405,10.6405,10.6405,10.6405,10.6405,10.6405,10.6405,10.6405,10.6405,10.6405,10.6405,10.6405,10.6405,10.6405,10.6405,10.6636,10.6751,10.6597,10.679,10.6905,10.6597,10.6444,10.6405,10.6405,10.6405,10.6405,10.6405,10.6405,10.6405,10.6405,10.6405,10.6405,10.6405,10.6405,10.6405,10.6405,10.6405,10.6405,10.6405,10.6405,10.6405,10.629,10.6059,10.5597,10.529,10.4443,10.3405,10.2866,10.2404,10.1866,10.1443,10.1289,10.1289,10.1289,10.1289,10.1289,10.1289,10.1289,10.1289,10.1289,10.1289,10.1289,10.1289,10.1289,10.1289,10.1289,10.1289,10.1289,10.1289,10.1289,10.1289,10.1289,10.1289]},{"header":{"parameterUnit":"m.s-1","parameterCategory":1,"la1":31.0,"la2":29.5877,"lo1":-88.7671,"lo2":-86.6584,"dy":0.0162,"dx":0.0185,"nx":115,"ny":88,"refTime":"2025-01-04T06:00:00:Z","depth":0,"parameterNumber":3,"parameterNumberName":"V-component_of_WINDS"},"data":[0.0,0.0,0.0,0.0,0.0,0.0,0.0,0.0,0.0,0.0,0.0,0.0,0.0,0.0,0.0,0.0,0.0,0.0,0.0,0.0,0.0,0.0,0.0,0.0,0.0,0.0,0.0,0.0,0.0,0.0,0.0,0.0,0.0,0.0,0.0,0.0,0.0,0.0,0.0,0.0,0.0,0.0,0.0,0.0,0.0,0.0,0.0,0.0,0.0,0.0,0.0,0.0,0.0,0.0,0.0,0.0,0.0,0.0,0.0,0.0,0.0,0.0,0.0,0.0,0.0,0.0,0.0,0.0,0.0,0.0,0.0,0.0,0.0,0.0,0.0,0.0,0.0,0.0,0.0,0.0,0.0,0.0,0.0,0.0,0.0,0.0,0.0,0.0,0.0,0.0,0.0,0.0,0.0,0.0,0.0,0.0,0.0,0.0,0.0,0.0,0.0,0.0,0.0,0.0,0.0,0.0,0.0,0.0,0.0,0.0,0.0,0.0,0.0,0.0,0.0,0.0,0.0,0.0,0.0,0.0,0.0,0.0,0.0,0.0,0.0,0.0,0.0,0.0,0.0,0.0,0.0,0.0,0.0,0.0,0.0,0.0,0.0,0.0,0.0,0.0,0.0,0.0,0.0,0.0,0.0,0.0,0.0,0.0,0.0,0.0,0.0,0.0,0.0,0.0,0.0,0.0,0.0,0.0,0.0,0.0,0.0,0.0,0.0,0.0,0.0,0.0,0.0,0.0,0.0,0.0,0.0,0.0,0.0,0.0,0.0,0.0,0.0,0.0,0.0,0.0,0.0,0.0,0.0,0.0,0.0,0.0,0.0,0.0,0.0,0.0,0.0,0.0,0.0,0.0,0.0,0.0,0.0,0.0,0.0,0.0,0.0,0.0,0.0,0.0,0.0,0.0,0.0,0.0,0.0,0.0,0.0,0.0,0.0,0.0,0.0,0.0,0.0,0.0,0.0,0.0,0.0,0.0,0.0,0.0,0.0,0.0,0.0,0.0,0.0,0.0,0.0,0.0,0.0,0.0,0.0,0.0,0.0,0.0,0.0,0.0,0.0,0.0,0.0,0.0,0.0,0.0,0.0,0.0,0.0,0.0,0.0,0.0,0.0,0.0,0.0,0.0,0.0,0.0,0.0,0.0,0.0,0.0,0.0,0.0,0.0,0.0,0.0,0.0,0.0,0.0,0.0,0.0,0.0,0.0,0.0,0.0,0.0,0.0,0.0,0.0,0.0,0.0,0.0,0.0,0.0,0.0,0.0,0.0,0.0,0.0,0.0,0.0,0.0,0.0,0.0,0.0,0.0,0.0,0.0,0.0,0.0,0.0,0.0,0.0,0.0,0.0,0.0,0.0,0.0,0.0,0.0,0.0,0.0,0.0,0.0,0.0,0.0,0.0,0.0,0.0,0.0,0.0,0.0,0.0,0.0,0.0,0.0,0.0,0.0,0.0,0.0,0.0,0.0,0.0,0.0,0.0,0.0,0.0,0.0,0.0,0.0,0.0,0.0,0.0,0.0,0.0,0.0,0.0,0.0,0.0,0.0,0.0,0.0,0.0,0.0,0.0,0.0,0.0,0.0,0.0,0.0,0.0,0.0,0.0,0.0,0.0,0.0,0.0,0.0,0.0,0.0,0.0,0.0,0.0,0.0,0.0,0.0,0.0,0.0,0.0,0.0,0.0,0.0,0.0,0.0,0.0,0.0,0.0,0.0,0.0,0.0,0.0,0.0,0.0,0.0,0.0,0.0,0.0,0.0,0.0,0.0,0.0,0.0,0.0,0.0,0.0,0.0,0.0,0.0,0.0,0.0,0.0,0.0,0.0,0.0,0.0,0.0,0.0,0.0,0.0,0.0,0.0,0.0,0.0,0.0,0.0,0.0,0.0,0.0,0.0,0.0,0.0,0.0,0.0,0.0,0.0,0.0,0.0,0.0,0.0,0.0,0.0,0.0,0.0,0.0,0.0,0.0,0.0,0.0,0.0,0.0,0.0,0.0,0.0,0.0,0.0,0.0,0.0,0.0,0.0,0.0,0.0,0.0,0.0,0.0,0.0,0.0,0.0,0.0,0.0,0.0,0.0,0.0,0.0,0.0,0.0,0.0,0.0,0.0,0.0,0.0,0.0,0.0,0.0,0.0,0.0,0.0,0.0,0.0,0.0,0.0,0.0,0.0,0.0,0.0,0.0,0.0,0.0,0.0,0.0,0.0,0.0,0.0,0.0,0.0,0.0,0.0,0.0,0.0,0.0,0.0,0.0,0.0,0.0,0.0,0.0,0.0,0.0,0.0,0.0,0.0,0.0,0.0,0.0,0.0,0.0,0.0,0.0,0.0,0.0,0.0,0.0,0.0,0.0,0.0,0.0,0.0,0.0,0.0,0.0,0.0,0.0,0.0,0.0,0.0,0.0,0.0,0.0,0.0,0.0,0.0,0.0,0.0,0.0,0.0,0.0,0.0,0.0,0.0,0.0,0.0,0.0,0.0,0.0,0.0,0.0,0.0,0.0,0.0,0.0,0.0,0.0,0.0,0.0,0.0,0.0,0.0,0.0,0.0,0.0,0.0,0.0,0.0,0.0,0.0,0.0,0.0,0.0,0.0,0.0,0.0,0.0,0.0,0.0,0.0,0.0,0.0,0.0,0.0,0.0,0.0,0.0,0.0,0.0,0.0,0.0,0.0,0.0,0.0,0.0,0.0,0.0,0.0,0.0,0.0,0.0,0.0,0.0,0.0,0.0,0.0,0.0,0.0,0.0,0.0,0.0,0.0,0.0,0.0,0.0,0.0,0.0,0.0,0.0,0.0,0.0,0.0,0.0,0.0,0.0,0.0,0.0,0.0,0.0,0.0,0.0,0.0,0.0,0.0,0.0,0.0,0.0,0.0,0.0,0.0,0.0,0.0,0.0,0.0,0.0,0.0,0.0,0.0,0.0,0.0,0.0,0.0,0.0,0.0,0.0,0.0,0.0,0.0,0.0,0.0,0.0,0.0,0.0,0.0,0.0,0.0,0.0,0.0,0.0,0.0,0.0,0.0,0.0,0.0,0.0,0.0,0.0,0.0,0.0,0.0,0.0,0.0,0.0,0.0,0.0,0.0,0.0,0.0,0.0,0.0,0.0,0.0,0.0,0.0,0.0,0.0,0.0,0.0,0.0,0.0,0.0,0.0,0.0,0.0,0.0,0.0,0.0,0.0,0.0,0.0,0.0,0.0,0.0,0.0,0.0,0.0,0.0,0.0,0.0,0.0,0.0,0.0,0.0,0.0,0.0,0.0,0.0,0.0,0.0,0.0,0.0,0.0,0.0,0.0,0.0,0.0,0.0,0.0,0.0,0.0,0.0,0.0,0.0,0.0,0.0,0.0,0.0,0.0,0.0,0.0,0.0,0.0,0.0,0.0,0.0,0.0,0.0,0.0,0.0,0.0,0.0,0.0,0.0,0.0,0.0,0.0,0.0,0.0,0.0,0.0,0.0,0.0,0.0,0.0,0.0,0.0,0.0,0.0,0.0,0.0,0.0,0.0,0.0,0.0,0.0,0.0,0.0,0.0,0.0,0.0,0.0,0.0,0.0,0.0,0.0,0.0,0.0,0.0,0.0,0.0,0.0,0.0,0.0,0.0,0.0,0.0,0.0,0.0,0.0,0.0,0.0,0.0,0.0,0.0,0.0,0.0,0.0,0.0,0.0,0.0,0.0,0.0,0.0,0.0,0.0,0.0,0.0,0.0,0.0,0.0,0.0,0.0,0.0,0.0,0.0,0.0,0.0,0.0,0.0,0.0,0.0,0.0,0.0,0.0,0.0,0.0,0.0,0.0,0.0,0.0,0.0,0.0,0.0,0.0,0.0,0.0,0.0,0.0,0.0,0.0,0.0,0.0,0.0,0.0,0.0,0.0,0.0,0.0,0.0,0.0,0.0,0.0,0.0,0.0,0.0,0.0,0.0,0.0,0.0,0.0,0.0,0.0,0.0,0.0,0.0,0.0,0.0,0.0,0.0,0.0,0.0,0.0,0.0,0.0,0.0,0.0,0.0,0.0,0.0,0.0,0.0,0.0,0.0,0.0,0.0,0.0,0.0,0.0,0.0,0.0,0.0,0.0,0.0,0.0,0.0,0.0,0.0,0.0,0.0,0.0,0.0,0.0,0.0,0.0,0.0,0.0,0.0,0.0,0.0,0.0,0.0,0.0,0.0,0.0,0.0,0.0,0.0,0.0,0.0,0.0,0.0,0.0,0.0,0.0,0.0,0.0,0.0,0.0,0.0,0.0,0.0,-1.5418,0.0,0.0,0.0,0.0,0.0,0.0,0.0,0.0,0.0,0.0,0.0,0.0,0.0,0.0,0.0,0.0,0.0,0.0,0.0,0.0,0.0,0.0,0.0,0.0,0.0,0.0,0.0,0.0,0.0,0.0,0.0,0.0,0.0,0.0,0.0,0.0,0.0,0.0,0.0,0.0,0.0,0.0,0.0,0.0,0.0,0.0,0.0,0.0,0.0,0.0,0.0,0.0,0.0,0.0,0.0,0.0,0.0,0.0,0.0,0.0,0.0,0.0,0.0,0.0,0.0,0.0,0.0,0.0,0.0,0.0,0.0,0.0,0.0,0.0,0.0,0.0,0.0,0.0,0.0,0.0,0.0,0.0,0.0,0.0,0.0,0.0,0.0,0.0,0.0,0.0,0.0,0.0,0.0,0.0,0.0,0.0,0.0,0.0,0.0,0.0,0.0,0.0,0.0,0.0,0.0,0.0,0.0,0.0,0.0,0.0,-1.5832,-1.5832,-1.5832,-1.5765,-1.5645,0.0,0.0,0.0,0.0,0.0,0.0,0.0,0.0,0.0,0.0,0.0,0.0,0.0,0.0,0.0,0.0,0.0,0.0,0.0,0.0,0.0,0.0,0.0,0.0,0.0,0.0,0.0,0.0,0.0,0.0,0.0,0.0,0.0,0.0,0.0,0.0,0.0,0.0,0.0,0.0,0.0,0.0,0.0,0.0,0.0,0.0,0.0,0.0,0.0,0.0,0.0,0.0,0.0,0.0,0.0,0.0,0.0,0.0,0.0,0.0,0.0,0.0,0.0,0.0,0.0,0.0,0.0,0.0,0.0,0.0,0.0,0.0,0.0,0.0,0.0,0.0,0.0,0.0,0.0,0.0,0.0,0.0,0.0,0.0,0.0,0.0,0.0,0.0,0.0,0.0,0.0,0.0,0.0,0.0,0.0,0.0,0.0,0.0,0.0,0.0,0.0,0.0,0.0,0.0,0.0,0.0,0.0,0.0,0.0,0.0,0.0,0.0,-1.5823,-1.6032,-1.6326,0.0,0.0,0.0,0.0,0.0,0.0,0.0,0.0,0.0,0.0,0.0,0.0,0.0,0.0,0.0,0.0,0.0,0.0,0.0,0.0,0.0,0.0,0.0,0.0,0.0,0.0,0.0,0.0,0.0,0.0,0.0,0.0,0.0,0.0,0.0,0.0,0.0,0.0,0.0,0.0,0.0,0.0,0.0,0.0,0.0,0.0,0.0,0.0,0.0,0.0,0.0,0.0,0.0,0.0,0.0,0.0,0.0,0.0,0.0,0.0,0.0,0.0,0.0,0.0,0.0,0.0,0.0,0.0,0.0,0.0,0.0,0.0,0.0,0.0,0.0,0.0,0.0,0.0,0.0,0.0,0.0,0.0,0.0,0.0,0.0,0.0,0.0,0.0,0.0,0.0,0.0,0.0,0.0,0.0,0.0,0.0,0.0,0.0,0.0,0.0,0.0,0.0,0.0,0.0,0.0,0.0,0.0,0.0,0.0,0.0,-1.3434,-1.5935,-1.6066,0.0,-1.7716,0.0,0.0,0.0,0.0,0.0,0.0,0.0,0.0,0.0,0.0,0.0,0.0,0.0,0.0,0.0,0.0,0.0,0.0,0.0,0.0,0.0,0.0,0.0,0.0,0.0,0.0,0.0,0.0,0.0,0.0,0.0,0.0,0.0,0.0,0.0,0.0,0.0,0.0,0.0,0.0,0.0,0.0,0.0,0.0,0.0,0.0,0.0,0.0,0.0,0.0,0.0,0.0,0.0,0.0,0.0,0.0,0.0,0.0,0.0,0.0,0.0,0.0,0.0,0.0,0.0,0.0,0.0,0.0,0.0,0.0,0.0,0.0,0.0,0.0,0.0,0.0,0.0,0.0,0.0,0.0,0.0,0.0,0.0,0.0,0.0,0.0,0.0,0.0,0.0,0.0,0.0,0.0,0.0,0.0,0.0,0.0,0.0,0.0,0.0,0.0,0.0,0.0,0.0,0.0,0.0,0.0,0.0,0.0,0.0,0.0,0.0,-1.6138,-1.6817,-1.7482,0.0,0.0,0.0,0.0,0.0,0.0,0.0,0.0,0.0,0.0,0.0,0.0,0.0,0.0,0.0,0.0,0.0,0.0,0.0,0.0,0.0,0.0,0.0,0.0,0.0,0.0,0.0,0.0,0.0,0.0,0.0,0.0,0.0,0.0,0.0,0.0,0.0,0.0,0.0,0.0,0.0,0.0,0.0,0.0,0.0,0.0,0.0,0.0,0.0,0.0,0.0,0.0,0.0,0.0,0.0,0.0,0.0,0.0,0.0,0.0,0.0,0.0,0.0,0.0,0.0,0.0,0.0,0.0,0.0,0.0,0.0,0.0,0.0,0.0,0.0,0.0,0.0,0.0,0.0,0.0,0.0,0.0,0.0,0.0,0.0,0.0,0.0,0.0,0.0,0.0,0.0,0.0,0.0,0.0,0.0,0.0,0.0,0.0,0.0,0.0,0.0,0.0,0.0,0.0,0.0,0.0,0.0,0.0,0.0,0.0,-1.5085,0.0,-1.541,-1.673,-1.7436,-1.7378,0.0,0.0,0.0,0.0,0.0,0.0,0.0,0.0,0.0,0.0,0.0,0.0,0.0,0.0,0.0,0.0,0.0,0.0,0.0,0.0,0.0,0.0,0.0,0.0,0.0,0.0,0.0,0.0,0.0,0.0,0.0,0.0,0.0,0.0,0.0,0.0,0.0,0.0,0.0,0.0,0.0,0.0,0.0,0.0,0.0,0.0,0.0,0.0,0.0,0.0,0.0,0.0,0.0,0.0,0.0,0.0,0.0,0.0,0.0,0.0,0.0,0.0,0.0,0.0,0.0,0.0,0.0,0.0,0.0,0.0,0.0,0.0,0.0,0.0,0.0,0.0,0.0,0.0,0.0,0.0,0.0,0.0,0.0,0.0,0.0,0.0,0.0,0.0,0.0,0.0,0.0,0.0,0.0,0.0,0.0,0.0,0.0,0.0,0.0,0.0,0.0,0.0,0.0,0.0,0.0,0.0,0.0,0.0,0.0,-1.2302,-1.162,-1.3394,-1.5085,-1.5881,0.0,0.0,0.0,0.0,0.0,0.0,0.0,0.0,0.0,0.0,0.0,0.0,0.0,0.0,0.0,0.0,0.0,0.0,0.0,0.0,0.0,0.0,0.0,0.0,0.0,0.0,0.0,0.0,0.0,0.0,0.0,0.0,0.0,0.0,0.0,0.0,0.0,0.0,0.0,0.0,0.0,0.0,0.0,0.0,0.0,0.0,0.0,0.0,0.0,0.0,0.0,0.0,0.0,0.0,0.0,0.0,0.0,0.0,0.0,0.0,0.0,0.0,0.0,0.0,0.0,0.0,0.0,0.0,0.0,0.0,0.0,0.0,0.0,0.0,0.0,0.0,0.0,0.0,0.0,0.0,0.0,0.0,0.0,0.0,0.0,0.0,0.0,0.0,0.0,0.0,0.0,0.0,0.0,0.0,0.0,0.0,0.0,0.0,0.0,0.0,0.0,0.0,0.0,0.0,0.0,0.0,0.0,0.0,0.0,-1.0642,-1.1142,-1.2302,-1.3752,-1.4411,-1.4724,0.0,0.0,0.0,0.0,0.0,0.0,0.0,0.0,0.0,0.0,0.0,0.0,0.0,0.0,0.0,0.0,0.0,0.0,0.0,0.0,0.0,0.0,0.0,0.0,0.0,0.0,0.0,0.0,0.0,0.0,0.0,0.0,0.0,0.0,0.0,0.0,0.0,0.0,0.0,0.0,0.0,0.0,0.0,0.0,0.0,0.0,0.0,0.0,0.0,0.0,0.0,0.0,0.0,0.0,0.0,0.0,0.0,0.0,0.0,0.0,0.0,0.0,0.0,0.0,0.0,0.0,0.0,0.0,0.0,0.0,0.0,0.0,0.0,0.0,0.0,0.0,0.0,0.0,0.0,0.0,0.0,0.0,0.0,0.0,0.0,0.0,0.0,0.0,0.0,0.0,0.0,0.0,0.0,0.0,0.0,0.0,0.0,0.0,0.0,0.0,0.0,0.0,0.0,0.0,0.0,0.0,0.0,0.0,0.0,-0.8797,0.0,-1.2168,0.0,-1.3268,-1.3347,0.0,0.0,0.0,0.0,0.0,0.0,0.0,0.0,0.0,0.0,0.0,0.0,0.0,0.0,0.0,0.0,0.0,0.0,0.0,0.0,0.0,0.0,0.0,0.0,0.0,0.0,0.0,0.0,0.0,0.0,0.0,0.0,0.0,0.0,0.0,0.0,0.0,0.0,0.0,0.0,0.0,0.0,0.0,0.0,0.0,0.0,0.0,0.0,0.0,0.0,0.0,0.0,0.0,0.0,0.0,0.0,0.0,0.0,0.0,0.0,0.0,0.0,0.0,0.0,0.0,0.0,0.0,0.0,0.0,0.0,0.0,0.0,0.0,0.0,0.0,0.0,0.0,0.0,0.0,0.0,0.0,0.0,0.0,0.0,0.0,0.0,0.0,0.0,0.0,0.0,0.0,0.0,0.0,0.0,0.0,0.0,0.0,0.0,0.0,0.0,0.0,0.0,0.0,0.0,0.0,0.0,0.0,0.0,0.0,-0.9958,-1.0568,-1.074,-1.0218,-1.1638,-1.1362,0.0,0.0,0.0,0.0,0.0,0.0,0.0,0.0,0.0,0.0,0.0,0.0,0.0,0.0,0.0,0.0,0.0,0.0,0.0,0.0,0.0,0.0,0.0,0.0,0.0,0.0,0.0,0.0,0.0,0.0,0.0,0.0,0.0,0.0,0.0,0.0,0.0,0.0,0.0,0.0,0.0,0.0,0.0,0.0,0.0,0.0,0.0,0.0,0.0,0.0,0.0,0.0,0.0,0.0,0.0,0.0,0.0,0.0,0.0,0.0,0.0,0.0,0.0,0.0,0.0,0.0,0.0,0.0,0.0,0.0,0.0,0.0,0.0,0.0,0.0,0.0,0.0,0.0,0.0,0.0,0.0,0.0,0.0,0.0,0.0,0.0,0.0,0.0,0.0,0.0,0.0,0.0,0.0,0.0,0.0,0.0,0.0,0.0,0.0,0.0,0.0,0.0,0.0,0.0,0.0,0.0,0.0,0.0,0.0,-1.1093,-1.0479,-1.0487,-1.0758,-1.0105,-0.9735,0.0,0.0,0.0,0.0,0.0,0.0,0.0,0.0,0.0,0.0,0.0,0.0,0.0,0.0,0.0,0.0,0.0,0.0,0.0,0.0,0.0,0.0,0.0,0.0,0.0,0.0,0.0,0.0,0.0,0.0,0.0,0.0,0.0,0.0,0.0,0.0,0.0,0.0,0.0,0.0,0.0,0.0,0.0,0.0,0.0,0.0,0.0,0.0,0.0,0.0,0.0,0.0,0.0,0.0,0.0,0.0,0.0,0.0,0.0,0.0,0.0,0.0,0.0,0.0,0.0,0.0,0.0,0.0,0.0,0.0,0.0,0.0,0.0,0.0,0.0,0.0,0.0,0.0,0.0,0.0,0.0,0.0,0.0,0.0,0.0,0.0,0.0,0.0,0.0,0.0,0.0,0.0,0.0,0.0,0.0,0.0,0.0,0.0,0.0,0.0,0.0,0.0,0.0,0.0,0.0,0.0,0.0,0.0,0.0,-1.2657,-1.1652,-1.1077,-1.1158,-0.9903,-0.93,-0.9429,0.0,0.0,0.0,0.0,0.0,0.0,0.0,0.0,0.0,0.0,0.0,0.0,0.0,0.0,0.0,0.0,0.0,0.0,0.0,0.0,0.0,0.0,0.0,0.0,0.0,0.0,0.0,0.0,0.0,0.0,0.0,0.0,0.0,0.0,0.0,0.0,0.0,0.0,0.0,0.0,0.0,0.0,0.0,0.0,0.0,0.0,0.0,0.0,0.0,0.0,0.0,0.0,0.0,0.0,0.0,0.0,0.0,0.0,0.0,0.0,0.0,0.0,0.0,0.0,0.0,0.0,0.0,0.0,0.0,0.0,0.0,0.0,0.0,0.0,0.0,0.0,0.0,0.0,0.0,0.0,0.0,0.0,0.0,0.0,0.0,0.0,0.0,0.0,0.0,0.0,0.0,0.0,0.0,0.0,0.0,0.0,0.0,0.0,0.0,0.0,0.0,0.0,0.0,0.0,0.0,0.0,0.0,0.0,-1.4809,-1.3487,-1.2359,-1.1355,-1.0792,-0.9917,0.0,0.0,0.0,0.0,0.0,0.0,0.0,0.0,0.0,0.0,0.0,0.0,0.0,0.0,0.0,0.0,0.0,0.0,0.0,0.0,0.0,0.0,0.0,0.0,0.0,0.0,0.0,0.0,0.0,0.0,0.0,0.0,0.0,0.0,0.0,0.0,0.0,0.0,0.0,0.0,0.0,0.0,0.0,0.0,0.0,0.0,0.0,0.0,0.0,0.0,0.0,0.0,0.0,0.0,0.0,0.0,0.0,0.0,0.0,0.0,0.0,0.0,0.0,0.0,0.0,0.0,0.0,0.0,0.0,0.0,0.0,0.0,0.0,0.0,0.0,0.0,0.0,0.0,0.0,0.0,0.0,0.0,0.0,0.0,0.0,0.0,0.0,0.0,0.0,0.0,0.0,0.0,0.0,0.0,0.0,0.0,0.0,0.0,0.0,0.0,0.0,0.0,0.0,0.0,0.0,0.0,0.0,0.0,0.0,-1.5614,-1.4907,-1.3939,-1.299,-1.1586,-1.0616,0.0,0.0,0.0,0.0,0.0,0.0,0.0,0.0,0.0,0.0,0.0,0.0,0.0,0.0,0.0,0.0,0.0,0.0,0.0,0.0,0.0,0.0,0.0,0.0,0.0,0.0,0.0,0.0,0.0,0.0,0.0,0.0,0.0,0.0,0.0,0.0,0.0,0.0,0.0,0.0,0.0,0.0,0.0,0.0,0.0,0.0,0.0,0.0,0.0,0.0,0.0,0.0,0.0,0.0,0.0,0.0,0.0,0.0,0.0,0.0,0.0,0.0,0.0,0.0,0.0,0.0,0.0,0.0,0.0,0.0,0.0,0.0,0.0,0.0,0.0,0.0,0.0,0.0,0.0,0.0,0.0,0.0,0.0,0.0,0.0,0.0,0.0,0.0,0.0,0.0,0.0,0.0,0.0,0.0,0.0,0.0,0.0,0.0,0.0,0.0,0.0,0.0,0.0,0.0,0.0,0.0,0.0,0.0,-1.3461,-1.612,-1.5518,-1.5004,-1.4489,-1.2976,-1.1674,0.0,0.0,0.0,0.0,0.0,0.0,0.0,0.0,0.0,0.0,0.0,0.0,0.0,0.0,0.0,0.0,0.0,0.0,0.0,0.0,0.0,0.0,0.0,0.0,0.0,0.0,0.0,0.0,0.0,0.0,0.0,0.0,0.0,0.0,0.0,0.0,0.0,0.0,0.0,0.0,0.0,0.0,0.0,0.0,0.0,0.0,0.0,0.0,0.0,0.0,0.0,0.0,0.0,0.0,0.0,0.0,0.0,0.0,0.0,0.0,0.0,0.0,0.0,0.0,0.0,0.0,0.0,0.0,0.0,0.0,0.0,0.0,0.0,0.0,0.0,0.0,0.0,0.0,0.0,0.0,0.0,0.0,0.0,0.0,0.0,0.0,0.0,0.0,0.0,0.0,0.0,0.0,0.0,0.0,0.0,0.0,0.0,0.0,0.0,0.0,0.0,0.0,0.0,0.0,0.0,0.0,0.0,0.0,-1.3971,-1.6431,-1.599,-1.5716,-1.5649,-1.4475,-1.2827,0.0,0.0,0.0,0.0,0.0,0.0,0.0,0.0,0.0,0.0,0.0,0.0,0.0,0.0,0.0,0.0,0.0,0.0,0.0,0.0,0.0,0.0,0.0,0.0,0.0,0.0,0.0,0.0,0.0,0.0,0.0,0.0,0.0,0.0,0.0,0.0,0.0,0.0,0.0,0.0,0.0,0.0,0.0,0.0,0.0,0.0,0.0,0.0,0.0,0.0,0.0,0.0,0.0,0.0,0.0,0.0,0.0,0.0,0.0,0.0,0.0,0.0,0.0,0.0,0.0,0.0,0.0,0.0,0.0,0.0,0.0,0.0,0.0,0.0,0.0,0.0,0.0,0.0,0.0,0.0,0.0,0.0,0.0,0.0,0.0,0.0,0.0,0.0,0.0,0.0,0.0,0.0,0.0,0.0,0.0,0.0,0.0,0.0,0.0,0.0,0.0,0.0,0.0,0.0,0.0,0.0,0.0,0.0,-1.4449,-1.6435,-1.6454,-1.6225,-1.5988,-1.4482,-1.3064,0.0,0.0,0.0,0.0,0.0,0.0,0.0,0.0,0.0,0.0,0.0,0.0,0.0,0.0,0.0,0.0,0.0,0.0,0.0,0.0,0.0,0.0,0.0,0.0,0.0,0.0,0.0,0.0,0.0,0.0,0.0,0.0,0.0,0.0,0.0,0.0,0.0,0.0,0.0,0.0,0.0,0.0,0.0,0.0,0.0,0.0,0.0,0.0,-1.4456,0.0,0.0,0.0,0.0,0.0,0.0,0.0,0.0,0.0,0.0,0.0,0.0,0.0,0.0,0.0,0.0,0.0,0.0,0.0,0.0,0.0,0.0,0.0,0.0,0.0,0.0,0.0,0.0,0.0,0.0,0.0,0.0,0.0,0.0,0.0,0.0,0.0,0.0,0.0,0.0,0.0,0.0,0.0,0.0,0.0,0.0,0.0,0.0,0.0,0.0,0.0,0.0,0.0,0.0,0.0,0.0,0.0,0.0,0.0,-1.4889,-1.6656,-1.6515,-1.6381,-1.6246,-1.497,-1.36,0.0,0.0,0.0,0.0,0.0,0.0,0.0,0.0,0.0,0.0,0.0,0.0,0.0,0.0,0.0,0.0,0.0,0.0,0.0,0.0,0.0,0.0,0.0,0.0,0.0,0.0,0.0,0.0,0.0,0.0,0.0,0.0,0.0,0.0,0.0,0.0,0.0,0.0,0.0,0.0,0.0,0.0,0.0,0.0,0.0,0.0,0.0,0.0,0.0,0.0,0.0,0.0,0.0,0.0,0.0,0.0,0.0,0.0,0.0,0.0,0.0,0.0,0.0,0.0,0.0,0.0,0.0,0.0,0.0,0.0,0.0,0.0,0.0,0.0,0.0,0.0,0.0,0.0,0.0,0.0,0.0,0.0,0.0,0.0,0.0,0.0,0.0,0.0,0.0,0.0,0.0,0.0,0.0,0.0,0.0,0.0,0.0,0.0,0.0,0.0,0.0,0.0,0.0,0.0,0.0,0.0,0.0,-1.3323,-1.519,-1.6921,-1.6508,-1.6415,-1.6469,-1.5547,-1.4197,0.0,0.0,0.0,0.0,0.0,0.0,0.0,0.0,0.0,0.0,0.0,0.0,0.0,0.0,0.0,0.0,0.0,0.0,0.0,0.0,0.0,0.0,0.0,0.0,0.0,0.0,0.0,0.0,0.0,0.0,0.0,0.0,0.0,0.0,0.0,0.0,0.0,0.0,0.0,-1.3788,-1.5538,0.0,0.0,0.0,0.0,0.0,0.0,0.0,0.0,-1.5551,0.0,0.0,0.0,0.0,0.0,0.0,0.0,0.0,0.0,0.0,0.0,0.0,0.0,0.0,0.0,0.0,0.0,0.0,0.0,0.0,0.0,0.0,0.0,0.0,0.0,0.0,0.0,0.0,0.0,0.0,0.0,0.0,0.0,0.0,0.0,0.0,0.0,0.0,0.0,0.0,0.0,0.0,0.0,0.0,0.0,0.0,0.0,0.0,0.0,0.0,0.0,0.0,0.0,0.0,0.0,0.0,-1.3661,-1.3994,-1.508,-1.7031,-1.681,-1.6571,-1.6341,-1.5689,-1.4496,-1.2739,0.0,0.0,0.0,0.0,0.0,0.0,0.0,0.0,0.0,0.0,0.0,0.0,0.0,0.0,0.0,0.0,0.0,0.0,0.0,0.0,0.0,0.0,0.0,0.0,0.0,0.0,0.0,0.0,0.0,0.0,0.0,0.0,0.0,0.0,0.0,0.0,0.0,0.0,0.0,-1.8023,-1.8718,0.0,0.0,0.0,0.0,0.0,0.0,0.0,0.0,-1.5324,0.0,0.0,0.0,0.0,0.0,0.0,0.0,0.0,0.0,0.0,0.0,0.0,0.0,0.0,0.0,0.0,0.0,0.0,0.0,0.0,0.0,0.0,0.0,0.0,0.0,0.0,0.0,0.0,0.0,0.0,0.0,0.0,0.0,0.0,0.0,0.0,0.0,0.0,0.0,0.0,0.0,0.0,0.0,0.0,0.0,0.0,0.0,0.0,0.0,0.0,0.0,0.0,0.0,0.0,0.0,-1.1866,-1.3859,-1.565,-1.7009,-1.6845,-1.653,-1.6293,-1.5201,-1.3973,0.0,0.0,0.0,0.0,0.0,0.0,0.0,0.0,0.0,0.0,0.0,0.0,0.0,0.0,0.0,0.0,0.0,0.0,0.0,0.0,0.0,0.0,0.0,0.0,0.0,0.0,0.0,0.0,0.0,0.0,0.0,0.0,0.0,0.0,0.0,0.0,0.0,0.0,0.0,0.0,-1.8557,-1.9078,-1.9559,0.0,0.0,0.0,0.0,0.0,0.0,-1.6794,-1.5992,0.0,0.0,0.0,0.0,0.0,0.0,0.0,0.0,0.0,0.0,0.0,0.0,0.0,0.0,0.0,0.0,0.0,0.0,0.0,0.0,0.0,0.0,0.0,0.0,0.0,0.0,0.0,0.0,0.0,0.0,0.0,0.0,0.0,0.0,0.0,0.0,0.0,0.0,0.0,0.0,0.0,0.0,0.0,0.0,0.0,0.0,0.0,0.0,0.0,0.0,0.0,0.0,0.0,0.0,0.0,-1.003,-1.3506,-1.5866,-1.6865,-1.6585,-1.6422,-1.6198,-1.4821,-1.3553,0.0,0.0,0.0,0.0,0.0,0.0,0.0,0.0,0.0,0.0,0.0,0.0,0.0,0.0,0.0,0.0,0.0,0.0,0.0,0.0,0.0,0.0,0.0,0.0,0.0,0.0,0.0,0.0,0.0,0.0,0.0,0.0,0.0,0.0,0.0,0.0,0.0,0.0,0.0,0.0,0.0,-1.9573,-2.0374,-1.9399,0.0,0.0,0.0,0.0,-1.8945,-1.8357,0.0,0.0,0.0,0.0,0.0,0.0,0.0,0.0,0.0,0.0,0.0,0.0,0.0,0.0,0.0,0.0,0.0,0.0,0.0,0.0,0.0,0.0,0.0,0.0,0.0,0.0,0.0,0.0,0.0,0.0,0.0,0.0,0.0,0.0,0.0,0.0,0.0,0.0,0.0,0.0,0.0,0.0,0.0,0.0,0.0,0.0,0.0,0.0,0.0,0.0,0.0,0.0,0.0,0.0,0.0,0.0,-1.1763,-1.3722,-1.5398,-1.6483,-1.653,-1.6327,-1.5913,-1.5215,-1.398,0.0,0.0,0.0,0.0,0.0,0.0,0.0,0.0,0.0,0.0,0.0,0.0,0.0,0.0,0.0,0.0,0.0,0.0,0.0,0.0,0.0,0.0,0.0,0.0,0.0,0.0,0.0,0.0,0.0,0.0,0.0,0.0,0.0,0.0,0.0,0.0,0.0,0.0,0.0,0.0,0.0,-2.1456,-2.0094,-2.0174,-2.0267,0.0,0.0,-2.0134,-2.1056,-2.1296,0.0,0.0,0.0,0.0,0.0,0.0,0.0,0.0,0.0,0.0,0.0,0.0,0.0,0.0,0.0,0.0,0.0,0.0,0.0,0.0,0.0,0.0,0.0,0.0,0.0,0.0,0.0,0.0,0.0,0.0,0.0,0.0,0.0,0.0,0.0,0.0,0.0,0.0,0.0,0.0,0.0,0.0,0.0,0.0,0.0,0.0,0.0,0.0,0.0,0.0,0.0,0.0,0.0,0.0,0.0,-1.1214,-1.2976,-1.4543,-1.5662,-1.6476,-1.6442,-1.6185,-1.5744,-1.4658,-1.337,0.0,0.0,0.0,0.0,0.0,0.0,0.0,0.0,0.0,0.0,0.0,0.0,0.0,0.0,0.0,0.0,0.0,0.0,0.0,0.0,0.0,0.0,0.0,0.0,0.0,0.0,0.0,0.0,0.0,0.0,0.0,0.0,0.0,0.0,0.0,0.0,0.0,0.0,0.0,0.0,0.0,0.0,-2.151,-2.1483,0.0,0.0,0.0,-2.159,-2.2645,0.0,0.0,0.0,0.0,0.0,0.0,0.0,0.0,0.0,0.0,0.0,0.0,0.0,0.0,0.0,0.0,0.0,0.0,0.0,0.0,0.0,0.0,0.0,0.0,0.0,0.0,0.0,0.0,0.0,0.0,0.0,0.0,0.0,0.0,0.0,0.0,0.0,0.0,0.0,0.0,0.0,0.0,0.0,0.0,0.0,0.0,0.0,0.0,0.0,0.0,0.0,0.0,0.0,0.0,0.0,0.0,0.0,-1.3619,-1.5004,-1.5927,-1.6388,-1.6341,-1.6076,-1.5574,-1.434,0.0,0.0,0.0,0.0,0.0,0.0,0.0,0.0,0.0,0.0,0.0,0.0,0.0,0.0,0.0,0.0,0.0,0.0,0.0,0.0,0.0,0.0,0.0,0.0,0.0,0.0,0.0,-0.9432,0.0,0.0,0.0,0.0,0.0,0.0,0.0,0.0,0.0,0.0,0.0,0.0,0.0,0.0,-2.1456,-2.2699,-2.2806,-2.3046,0.0,0.0,-2.318,-2.4075,-2.3701,-2.2432,0.0,0.0,0.0,0.0,0.0,0.0,0.0,0.0,0.0,0.0,0.0,0.0,0.0,0.0,0.0,0.0,0.0,0.0,0.0,0.0,0.0,0.0,0.0,0.0,0.0,0.0,0.0,0.0,0.0,0.0,0.0,0.0,0.0,0.0,0.0,0.0,0.0,0.0,0.0,0.0,0.0,0.0,0.0,0.0,0.0,0.0,0.0,0.0,0.0,0.0,0.0,0.0,0.0,0.0,0.0,-1.3653,-1.5053,-1.592,-1.611,-1.6246,-1.6029,-1.5438,-1.478,-1.3478,0.0,0.0,0.0,0.0,0.0,0.0,0.0,0.0,0.0,0.0,0.0,0.0,0.0,0.0,0.0,0.0,0.0,0.0,0.0,0.0,0.0,0.0,0.0,0.0,0.0,0.0,0.0,0.0,0.0,0.0,0.0,0.0,0.0,0.0,0.0,0.0,0.0,0.0,0.0,0.0,0.0,-2.2138,-2.2779,-2.4022,-2.5077,0.0,0.0,-2.5304,-2.5384,-2.6239,-2.5291,-2.0548,0.0,0.0,0.0,0.0,0.0,0.0,0.0,0.0,0.0,0.0,0.0,0.0,0.0,0.0,0.0,0.0,0.0,0.0,0.0,0.0,0.0,0.0,0.0,0.0,0.0,0.0,0.0,0.0,0.0,0.0,0.0,0.0,0.0,0.0,0.0,0.0,0.0,0.0,0.0,0.0,0.0,0.0,0.0,0.0,0.0,0.0,0.0,0.0,0.0,0.0,0.0,0.0,0.0,-1.1811,-1.3283,-1.4874,-1.5744,-1.6069,-1.6137,-1.5927,-1.5425,-1.4828,-1.3614,0.0,0.0,0.0,0.0,0.0,0.0,0.0,0.0,0.0,0.0,0.0,0.0,0.0,0.0,0.0,0.0,0.0,0.0,0.0,0.0,0.0,0.0,0.0,0.0,0.0,0.0,0.0,0.0,-1.2973,-1.3133,-1.2625,0.0,0.0,0.0,0.0,0.0,0.0,0.0,0.0,0.0,0.0,-2.306,-2.4556,-2.5251,0.0,0.0,-2.636,-2.6306,-2.7028,-2.6146,-2.4476,-2.183,-2.0067,0.0,0.0,0.0,0.0,0.0,0.0,0.0,0.0,0.0,0.0,0.0,0.0,0.0,0.0,0.0,0.0,0.0,0.0,0.0,0.0,0.0,0.0,0.0,0.0,0.0,0.0,0.0,0.0,0.0,0.0,0.0,0.0,0.0,0.0,0.0,0.0,0.0,0.0,0.0,0.0,0.0,0.0,0.0,0.0,0.0,0.0,0.0,0.0,0.0,0.0,0.0,0.0,-1.1633,-1.3017,-1.4597,-1.5601,-1.6008,-1.6008,-1.5798,-1.535,-1.4801,-1.3729,0.0,0.0,0.0,0.0,0.0,0.0,0.0,0.0,0.0,0.0,0.0,0.0,0.0,0.0,0.0,0.0,0.0,0.0,0.0,0.0,0.0,0.0,0.0,0.0,0.0,0.0,0.0,0.0,-1.3935,-1.3694,-1.2599,0.0,0.0,0.0,0.0,0.0,0.0,0.0,0.0,0.0,0.0,-2.4075,-2.5932,-2.6293,-2.66,-2.7295,-2.6747,-2.6547,-2.7362,-2.5999,-2.4249,-2.2445,0.0,0.0,0.0,0.0,0.0,0.0,0.0,0.0,0.0,0.0,0.0,0.0,0.0,0.0,0.0,0.0,0.0,0.0,0.0,0.0,0.0,0.0,0.0,0.0,0.0,0.0,0.0,0.0,0.0,0.0,-0.5922,0.0,0.0,0.0,0.0,0.0,0.0,0.0,0.0,0.0,0.0,0.0,0.0,0.0,0.0,0.0,0.0,0.0,0.0,0.0,0.0,0.0,0.0,0.0,-1.3159,-1.445,-1.5355,-1.5845,-1.5852,-1.5642,-1.5208,-1.4746,-1.3871,-1.2501,0.0,0.0,0.0,0.0,0.0,0.0,0.0,0.0,0.0,0.0,0.0,0.0,0.0,0.0,0.0,0.0,0.0,0.0,0.0,0.0,0.0,0.0,0.0,0.0,0.0,0.0,-1.3587,-1.34,-1.2919,0.0,0.0,0.0,0.0,0.0,0.0,0.0,0.0,0.0,0.0,-2.33,-2.513,-2.66,-2.7054,-2.7348,-2.7642,-2.6734,-2.6012,-2.6092,-2.6186,-2.5264,0.0,0.0,0.0,0.0,0.0,0.0,0.0,0.0,0.0,0.0,0.0,0.0,0.0,0.0,0.0,0.0,0.0,0.0,0.0,0.0,0.0,0.0,0.0,0.0,0.0,0.0,0.0,-0.7169,-0.6406,0.0,0.0,0.0,0.0,0.0,0.0,0.0,0.0,0.0,0.0,0.0,-1.0134,-0.9948,0.0,0.0,0.0,0.0,0.0,0.0,0.0,0.0,0.0,0.0,0.0,0.0,-1.1633,-1.3024,-1.4407,-1.5309,-1.5696,-1.5703,-1.5588,-1.5337,-1.4896,-1.3844,-1.2108,0.0,0.0,0.0,0.0,0.0,0.0,0.0,0.0,0.0,0.0,0.0,0.0,0.0,0.0,0.0,0.0,0.0,0.0,0.0,0.0,0.0,0.0,0.0,0.0,0.0,-1.2782,0.0,0.0,0.0,0.0,0.0,0.0,0.0,0.0,0.0,0.0,0.0,-2.0441,-2.2979,-2.4756,-2.6186,-2.7268,-2.7655,-2.7883,0.0,0.0,0.0,0.0,0.0,0.0,0.0,0.0,0.0,0.0,0.0,0.0,0.0,0.0,-2.342,-1.9613,-1.8437,-1.813,-1.841,0.0,0.0,0.0,0.0,0.0,0.0,0.0,0.0,0.0,0.0,0.0,0.0,0.0,0.0,0.0,0.0,-0.6608,0.0,0.0,0.0,0.0,0.0,0.0,0.0,0.0,-1.0555,-1.1233,-1.1436,-1.1677,-1.1576,0.0,-1.1263,-1.0362,0.0,0.0,0.0,0.0,0.0,0.0,0.0,0.0,-1.1735,-1.3173,-1.4182,-1.4973,-1.554,-1.5368,-1.5294,-1.533,-1.4848,-1.3892,-1.242,-1.1525,-1.0636,0.0,0.0,0.0,0.0,0.0,0.0,0.0,0.0,0.0,0.0,0.0,0.0,0.0,0.0,0.0,0.0,0.0,0.0,0.0,0.0,0.0,0.0,0.0,-1.2296,0.0,0.0,0.0,0.0,0.0,0.0,0.0,0.0,0.0,-1.8397,-2.0428,-2.2699,-2.4836,-2.6119,-2.7094,-2.7762,0.0,0.0,0.0,0.0,0.0,0.0,0.0,-2.5478,-2.5638,-2.4917,-2.4275,-2.4222,-2.5438,-2.6266,-2.5758,0.0,0.0,-2.2525,-2.1323,-2.1029,-2.143,-2.1724,-2.2044,-2.2539,-2.31,-2.3581,0.0,0.0,0.0,0.0,0.0,0.0,0.0,0.0,-0.9415,-0.951,0.0,-0.7844,0.0,0.0,0.0,0.0,0.0,0.0,0.0,0.0,-1.2101,-1.2745,-1.2752,-1.2931,-1.2855,-1.2556,-1.2807,-1.2265,-1.0941,-0.9266,0.0,0.0,0.0,0.0,0.0,0.0,-1.2006,-1.3593,-1.433,-1.4919,-1.5391,-1.5207,-1.5133,-1.5174,-1.4624,-1.4034,-1.3431,-1.282,-1.1972,-1.0819,-1.0039,0.0,0.0,0.0,0.0,0.0,0.0,0.0,0.0,0.0,0.0,0.0,0.0,0.0,0.0,0.0,0.0,0.0,0.0,0.0,0.0,-1.0603,0.0,0.0,0.0,0.0,0.0,0.0,0.0,0.0,0.0,0.0,-2.0863,-2.2846,-2.4903,-2.6587,0.0,0.0,0.0,0.0,-2.7856,-2.8163,-2.7468,-2.7041,-2.7348,-2.7549,-2.7321,-2.6293,0.0,0.0,-2.6413,-2.7281,-2.7762,-2.6386,-2.7335,-2.8016,-2.7362,-2.5745,-2.485,-2.5331,-2.485,-2.4676,-2.5424,-2.6026,-2.66,-1.2018,0.0,0.0,0.0,0.0,-1.0724,-1.1172,-1.1972,-1.1565,-1.128,-1.107,-1.1214,0.0,0.0,0.0,0.0,0.0,0.0,-1.1151,-1.187,-1.2678,-1.3214,-1.3526,-1.381,-1.3782,-1.3451,-1.3683,-1.3468,-1.2359,-1.1545,-1.0202,-0.8404,0.0,0.0,0.0,0.0,-1.2664,-1.3756,-1.4383,-1.4865,-1.5242,-1.5248,-1.5174,-1.5038,-1.476,-1.438,-1.3892,-1.3403,-1.2739,-1.187,-1.0921,0.0,0.0,0.0,0.0,0.0,0.0,0.0,0.0,0.0,0.0,0.0,0.0,0.0,0.0,0.0,0.0,0.0,0.0,0.0,-0.9025,-1.0594,-1.189,0.0,0.0,0.0,0.0,0.0,0.0,0.0,0.0,0.0,-2.2627,-2.4367,-2.6106,0.0,0.0,-2.8297,-2.8163,-2.843,-2.8764,-2.9058,0.0,0.0,0.0,-2.8511,-2.819,-2.8698,-2.9392,-2.9753,-2.9459,-2.9593,-2.9593,-2.9138,-2.9272,-2.9352,-2.9125,-2.7896,-2.6947,-2.7041,-2.7201,-2.7468,-2.7936,-2.8497,-2.8871,-1.4173,-1.3363,-1.3015,-1.2698,-1.2216,-1.2101,-1.2467,-1.3112,-1.2779,-1.2549,-1.2386,-1.2402,-1.1762,-1.0595,-1.0573,0.0,0.0,0.0,-1.2074,-1.284,-1.3247,-1.3648,-1.4014,-1.4122,-1.4116,-1.4007,-1.421,-1.3971,-1.3308,-1.2983,-1.1864,-1.0066,0.0,0.0,-1.0839,-1.2108,-1.318,-1.4007,-1.4464,-1.4845,-1.5181,-1.5181,-1.514,-1.5052,-1.4909,-1.4672,-1.4346,-1.4021,-1.3526,-1.2847,-1.1932,-1.0894,0.0,0.0,0.0,0.0,0.0,0.0,0.0,0.0,0.0,0.0,0.0,-0.6695,0.0,0.0,0.0,0.0,-0.7441,-0.8258,-0.9265,-1.0412,0.0,0.0,0.0,0.0,0.0,0.0,0.0,-2.0163,-2.1778,-2.3466,-2.4845,-2.4863,-2.5057,-2.6525,-2.8076,-2.8925,-2.8858,0.0,-2.9499,-2.9793,-2.8911,-2.8822,-3.0013,-2.8743,-2.8346,-2.996,-3.0408,-3.0581,-3.0742,-3.0648,-3.0541,-3.0515,-3.0381,-3.0261,-3.0261,-2.9513,-2.8831,-2.8644,-2.8965,-2.9352,-2.9539,-2.994,-3.0207,-1.532,-1.5097,-1.4674,-1.4059,-1.3295,-1.3431,-1.3492,-1.3492,-1.3349,-1.3424,-1.3627,-1.2363,-1.202,-1.2663,-1.1986,0.0,0.0,-1.263,-1.3125,-1.3688,-1.3817,-1.4027,-1.4292,-1.4299,-1.4299,-1.4299,-1.4338,-1.4194,-1.3871,-1.3743,-1.3261,-1.2447,-1.2162,-1.2128,-1.2345,-1.2942,-1.3614,-1.4326,-1.4577,-1.4859,-1.5174,-1.5174,-1.5167,-1.516,-1.5018,-1.4862,-1.4719,-1.457,-1.4231,-1.3661,-1.2935,-1.1945,-1.0656,0.0,0.0,0.0,0.0,0.0,0.0,0.0,0.0,0.0,0.0,0.0,0.0,0.0,0.0,0.0,-0.8852,0.0,-0.9849,-1.0256,0.0,0.0,0.0,-1.2463,-1.4205,-1.5635,-1.7812,-2.0989,0.0,0.0,0.0,0.0,-2.2557,-2.4969,-2.7533,-2.9264,-2.9541,-2.9774,-3.0087,-3.0003,-2.8357,-2.7879,-2.9857,-2.8508,-2.7925,-2.9896,-3.0677,-3.0889,-3.0902,-3.0889,-3.0875,-3.0875,-3.0862,-3.0862,-3.0862,-3.0795,-3.0688,-3.0127,-3.0234,-3.0408,-3.0421,-3.0648,-3.0835,-1.5657,-1.5404,-1.5313,-1.4881,-1.4204,-1.4231,-1.4312,-1.4407,-1.4258,-1.4109,-1.3946,-1.3445,-1.3411,-1.3836,-1.3144,-1.2969,-1.3268,-1.3478,-1.3777,-1.4136,-1.4177,-1.4231,-1.4299,-1.4299,-1.4299,-1.4299,-1.4265,-1.4231,-1.419,-1.4156,-1.3973,-1.3668,-1.3688,-1.3349,-1.2691,-1.3559,-1.4231,-1.4631,-1.4964,-1.5147,-1.5181,-1.5079,-1.5018,-1.5018,-1.476,-1.4604,-1.4563,-1.4428,-1.4177,-1.3797,-1.3186,-1.244,-1.1552,-1.0025,0.0,0.0,0.0,0.0,0.0,0.0,0.0,0.0,0.0,-0.856,-0.6736,0.0,-0.9035,0.0,-0.9585,-1.0141,-1.0317,-1.0534,0.0,0.0,-1.2708,-1.2939,-1.5705,-1.6423,-1.7117,-1.8548,-2.0067,-2.1008,-2.0856,-2.1488,-2.1742,-2.102,-2.4419,-2.7148,-2.7403,-2.9324,-2.9938,-2.847,-2.9105,-2.9594,-2.8484,-2.7986,-2.7771,-2.8367,-3.0101,-3.1463,-3.1463,-3.1463,-3.1463,-3.1463,-3.1463,-3.1463,-3.145,-3.1463,-3.1423,-3.1263,-3.1129,-3.1022,-3.1022,-3.1249,-3.1396,-1.5938,-1.5925,-1.5863,-1.5588,-1.5011,-1.4943,-1.4882,-1.4835,-1.4753,-1.4584,-1.4353,-1.4129,-1.4235,-1.4182,-1.3844,-1.3763,-1.3933,-1.4007,-1.4136,-1.4299,-1.4299,-1.4299,-1.4299,-1.4299,-1.4299,-1.4299,-1.4299,-1.4299,-1.4299,-1.4299,-1.4258,-1.4177,-1.4258,-1.4041,-1.3573,-1.417,-1.4577,-1.474,-1.5031,-1.5153,-1.4899,-1.5011,-1.4875,-1.4679,-1.457,-1.4353,-1.4027,-1.3939,-1.3729,-1.3356,-1.2847,-1.2311,-1.1748,-1.0561,-0.9639,0.0,0.0,0.0,0.0,0.0,0.0,0.0,0.0,0.0,0.0,0.0,-0.9958,0.0,-1.0772,0.0,-1.1565,-1.1904,-1.2733,-1.4258,-1.349,-1.3676,-1.5368,-1.5592,-1.6294,-1.789,-1.8476,-1.9062,-2.0087,-1.9745,-1.975,-2.0693,-2.2329,-2.4165,-2.6375,-2.7557,-2.7594,-2.7533,-2.6782,-2.5847,-2.4442,-2.6409,-2.7395,-2.6602,-2.8164,-2.9911,-3.0102,-3.089,-3.1677,-3.1677,-3.1677,-3.1677,-3.1677,-3.1677,-3.1677,-3.165,-3.153,-3.1436,-3.1423,-3.1557,-3.161,-1.6103,-1.6076,-1.6147,-1.589,-1.5655,-1.5527,-1.5303,-1.5025,-1.5025,-1.493,-1.476,-1.4611,-1.4536,-1.435,-1.4414,-1.436,-1.436,-1.4353,-1.436,-1.4353,-1.4353,-1.436,-1.4353,-1.4353,-1.4353,-1.436,-1.4353,-1.4346,-1.4326,-1.4326,-1.4326,-1.4326,-1.4326,-1.4401,-1.4543,-1.4692,-1.478,-1.4801,-1.5052,-1.512,-1.4805,-1.4957,-1.4733,-1.4326,-1.4367,-1.4068,-1.3383,-1.3383,-1.32,-1.2779,-1.242,-1.2088,-1.1769,-1.105,-1.0432,0.0,-0.9673,0.0,0.0,0.0,0.0,0.0,0.0,0.0,0.0,-1.0568,-1.1016,-1.1518,-1.2108,-1.263,-1.3037,-1.3573,-1.3858,-1.377,-1.4129,-1.4387,-1.4414,-1.4536,-1.5447,-1.794,-1.6457,-1.6966,-2.0842,-1.8216,-1.7433,-2.0991,-2.0474,-2.1054,-2.5141,-2.5089,-2.4819,-2.6613,-2.2906,-2.0738,-2.0942,-2.388,-2.5829,-2.4064,-2.5625,-2.7191,-2.7384,-2.9135,-3.0496,-3.0496,-3.07,-3.108,-3.1284,-3.1474,-3.1677,-3.1677,-3.165,-3.165,-3.165,-3.165,-3.1677,-1.6151,-1.6042,-1.6213,-1.5934,-1.5811,-1.5784,-1.5601,-1.533,-1.5323,-1.5181,-1.5107,-1.4767,-1.4699,-1.4692,-1.4672,-1.4658,-1.4658,-1.4652,-1.4658,-1.4658,-1.4658,-1.4658,-1.4658,-1.4464,-1.447,-1.4658,-1.4658,-1.459,-1.4475,-1.4475,-1.4468,-1.4468,-1.4468,-1.4543,-1.4699,0.0,0.0,0.0,-1.5153,-1.5174,-1.5133,-1.4903,-1.4631,-1.4306,-1.3973,0.0,-1.3085,-1.3275,-1.3254,-1.2942,-1.3064,0.0,0.0,0.0,0.0,0.0,0.0,0.0,0.0,0.0,0.0,0.0,-1.1721,-1.1457,-1.1029,-1.1898,-1.2488,-1.2494,-1.3024,-1.3458,-1.3661,-1.3994,-1.4251,-1.4346,-1.4645,-1.4889,-1.5004,-1.5147,-1.5499,-1.6053,-1.5725,-1.5938,-1.6736,-1.63,-1.621,-1.7411,-1.713,-1.7985,-2.0889,-2.2673,-2.3092,-2.1725,-2.0559,-1.9978,-1.997,-2.0951,-2.1735,-2.1147,-2.2906,-2.4463,-2.4657,-2.5045,-2.5432,-2.5625,-2.7191,-2.856,-2.856,-3.0115,-3.1664,-3.1677,-3.1677,-3.1677,-3.1677,-3.1677,-3.1677,-1.6118,0.0,-1.6191,-1.6103,0.0,-1.5967,-1.5839,-1.5615,-1.5472,-1.5289,-1.5252,-1.4923,-1.4855,-1.4848,-1.4774,-1.474,-1.474,-1.474,-1.474,-1.474,-1.474,-1.474,-1.474,-1.4551,-1.4551,-1.474,-1.4922,-1.4888,-1.4624,-1.4624,-1.4624,-1.4624,-1.4624,-1.4699,-1.4855,-1.5004,-1.5113,-1.5181,-1.5181,-1.5147,-1.5259,-1.4855,-1.4563,-1.4197,0.0,0.0,0.0,0.0,0.0,0.0,0.0,0.0,0.0,0.0,0.0,-1.2047,-1.1904,-1.1857,-1.1932,-1.221,-1.2569,-1.3017,-1.3261,-1.3098,-1.2433,-1.3078,-1.3539,-1.3607,-1.3892,-1.4122,-1.4278,-1.4557,-1.476,-1.4848,-1.5113,-1.533,-1.5404,-1.5472,-1.5554,-1.5628,-1.5696,-1.5744,-1.5744,-1.5872,-1.5961,-1.5967,-1.6029,-1.6672,-1.784,-1.9207,-1.9396,-1.8426,-1.9388,-1.9593,-1.8418,-1.9396,-1.9388,-1.8813,-2.0175,-2.1735,-2.1921,-2.3092,-2.388,-2.4074,-2.5045,-2.6216,-2.7588,-2.8943,-3.0115,-3.1284,-3.1677,-3.1677,-3.1677,-3.1677,-3.1677,-1.6266,-1.6341,-1.6112,-1.6031,-1.6117,-1.609,-1.5995,-1.5832,0.0,0.0,0.0,-1.5072,-1.5011,-1.519,-1.4875,-1.4814,-1.4821,-1.4814,-1.4821,-1.4821,-1.4821,-1.4814,-1.4814,-1.4821,-1.4821,-1.4821,-1.5011,-1.4998,-1.478,-1.478,-1.478,-1.478,-1.478,-1.4855,-1.5011,-1.5126,-1.5181,-1.5181,-1.5181,-1.5126,-1.5197,-1.4862,-1.4577,-1.4163,-1.3946,-1.3573,-1.3024,-1.2901,-1.2725,-1.2461,-1.2427,-1.2501,-1.2691,-1.2745,-1.2929,-1.3261,-1.3431,-1.3539,-1.36,-1.3851,-1.4034,-1.4109,-1.4462,-1.4428,-1.3871,-1.4048,-1.4312,-1.4604,-1.4631,-1.4699,-1.4882,-1.5113,-1.5262,-1.5262,-1.5513,-1.5676,-1.5676,-1.5703,-1.573,-1.573,-1.5832,-1.5893,-1.59,-1.5995,-1.6083,-1.6076,-1.6076,-1.6083,-1.6083,-1.6474,-1.6474,-1.6474,-1.7833,-1.8426,-1.7055,-1.7642,-1.8426,-1.6665,-1.8031,-1.9199,-1.9585,-2.1147,-2.2321,-2.2126,-2.2711,-2.4269,-2.6409,-2.7588,-2.8752,-3.127,-3.1677,-3.1677,-3.1677,-3.1677,-3.1677,-1.6845,-1.6898,-1.6361,-1.6091,-1.6266,-1.6137,-1.5995,-1.5832,-1.554,-1.5398,-1.5174,-1.5215,-1.5153,-1.5153,-1.5133,-1.512,-1.512,-1.512,-1.512,0.0,-1.512,-1.512,-1.512,-1.512,-1.512,-1.512,-1.512,-1.5059,-1.495,-1.4943,-1.4936,-1.4936,-1.4936,-1.5011,-1.514,-1.5174,-1.5181,-1.5181,-1.5181,-1.5174,-1.5153,-1.5011,-1.478,-1.4455,-1.4055,-1.362,-1.3166,-1.3254,-1.3227,-1.3071,-1.3519,-1.3695,-1.3492,-1.3702,-1.3824,-1.3763,-1.3892,-1.4089,-1.434,-1.4516,-1.478,-1.5147,-1.5248,-1.5086,-1.4638,-1.4624,-1.4774,-1.5052,-1.5079,-1.5208,-1.5472,-1.554,-1.556,-1.5581,-1.5723,-1.5825,-1.5825,-1.5927,-1.6001,-1.5995,-1.6029,-1.6042,-1.6035,-1.6062,-1.6083,-1.6083,-1.6083,-1.6083,-1.6083,-1.6083,-1.6083,-1.6083,-1.6275,-1.6474,-1.6275,-1.6275,-1.6672,-1.6275,-1.6474,-1.7055,-1.7055,-1.7452,-1.784,-1.7452,-1.9207,-2.1343,-2.388,-2.6409,-2.8164,-3.0496,-3.108,-3.127,-3.1284,-3.1474,-3.1677,-1.7003,-1.7064,-1.6783,-1.6503,-1.6415,-1.6266,-1.6117,-1.5961,-1.5744,-1.5408,-1.5334,-1.5267,-1.5384,-1.5113,-1.5303,-1.5262,-1.5181,-1.5181,-1.5181,-1.5181,-1.5181,-1.5181,-1.5181,-1.5181,-1.5181,-1.5181,-1.5181,-1.5147,-1.5092,-1.5086,-1.5086,-1.5086,-1.5086,-1.5113,-1.5181,-1.5181,-1.5181,-1.5181,-1.5181,-1.5181,-1.5181,-1.5045,-1.4903,-1.476,-1.4394,-1.4116,-1.3912,-1.3892,-1.3858,-1.379,-1.4048,-1.417,-1.4122,-1.4238,-1.4312,-1.4333,-1.4475,-1.4652,-1.4862,-1.5092,-1.5316,-1.552,-1.5533,-1.5452,-1.5248,-1.5228,-1.5289,-1.5418,-1.5432,-1.5486,-1.5628,-1.571,-1.5757,-1.5757,-1.5886,-1.5974,-1.5981,-1.6035,-1.6076,-1.6083,-1.6083,-1.6083,-1.6083,-1.6083,-1.6083,-1.6083,-1.6083,-1.6083,-1.6083,-1.6083,-1.6083,-1.6083,-1.6083,-1.6083,-1.6083,-1.6083,-1.6083,-1.6083,-1.6083,-1.6083,-1.6083,-1.6083,-1.6083,-1.6083,-1.7253,-1.8813,-2.1343,-2.2711,-2.4646,-2.6795,-2.7564,-2.7768,-2.9135,-3.0687,-3.1664,-1.6917,-1.7016,-1.6975,-1.6872,-1.651,-1.6368,-1.6246,-1.6123,-1.5967,-1.5643,-1.5535,-1.5475,-1.5574,-1.5466,-1.5425,-1.5343,-1.5242,-1.5201,-1.5181,-1.5181,-1.5181,-1.5181,-1.5181,-1.5181,-1.5181,-1.5181,-1.5181,-1.5181,-1.5181,-1.5181,-1.5181,-1.5181,-1.5181,-1.5201,-1.5235,-1.5235,-1.5248,-1.5282,-1.5282,-1.5248,-1.5181,-1.5106,-1.5065,-1.5052,-1.4841,-1.4713,-1.4706,-1.4577,-1.4502,-1.4502,-1.4529,-1.4597,-1.4706,-1.4746,-1.4821,-1.4936,-1.5052,-1.5187,-1.533,-1.5547,-1.5703,-1.5737,-1.5737,-1.5737,-1.5737,-1.5737,-1.5723,-1.5696,-1.5676,-1.5696,-1.575,-1.5839,-1.5906,-1.5913,-1.6042,-1.613,-1.613,-1.613,-1.6137,-1.613,-1.6103,-1.6083,-1.6083,-1.6083,-1.6083,-1.6083,-1.6083,-1.6083,-1.6083,-1.6083,-1.6083,-1.6083,-1.6083,-1.6083,-1.6083,-1.6083,-1.6083,-1.6083,-1.6083,-1.6083,-1.6083,-1.6083,-1.6083,-1.6083,-1.6083,-1.7452,-1.9396,-2.0166,-2.1343,-2.3686,-2.4463,-2.5045,-2.7576,-2.9924,-3.1664,-1.6971,-1.6937,-1.703,-1.6872,-1.6517,-1.6381,-1.6307,-1.6266,-1.6123,-1.6056,-1.6001,-1.5757,-1.5642,-1.5994,-1.5479,-1.5221,-1.5377,-1.5248,-1.5187,-1.5187,-1.5181,-1.5181,-1.5187,-1.5187,-1.5181,-1.5187,-1.5194,-1.5194,-1.5181,-1.5187,-1.5187,-1.5181,-1.5181,-1.5262,-1.5371,-1.5391,-1.5261,-1.5195,-1.5401,-1.5466,-1.5208,-1.5303,-1.5371,-1.5371,-1.5343,-1.5323,-1.5296,-1.5181,-1.5099,-1.5113,-1.5221,-1.5303,-1.533,-1.5452,-1.5533,-1.5533,-1.556,-1.5642,-1.5778,-1.5818,-1.59,-1.6022,-1.6042,-1.6042,-1.6042,-1.6042,-1.5981,-1.5886,-1.5845,-1.5886,-1.6022,-1.6049,-1.6062,-1.6069,-1.6198,-1.6286,-1.6293,-1.6293,-1.6286,-1.6293,-1.6178,-1.6083,-1.6096,-1.609,-1.6083,-1.6083,-1.6083,-1.6083,-1.6083,-1.6083,-1.6083,-1.6083,-1.6083,-1.6083,-1.6083,-1.6083,-1.6083,-1.6083,-1.6083,-1.6083,-1.6083,-1.6083,-1.6083,-1.6083,-1.6083,-1.7055,-1.8813,-1.997,-2.0755,-2.2126,-2.3296,-2.4657,-2.7191,-2.9911,-3.1474,-1.6978,-1.6971,-1.6917,-1.6802,-1.6659,-1.6592,-1.6469,-1.6307,-1.6246,-1.6164,-1.6076,-1.5954,-1.6055,-1.6161,-1.5897,-1.5628,-1.5547,-1.5479,-1.5404,-1.5323,-1.5316,-1.5316,-1.5316,-1.5316,-1.5316,-1.5323,-1.5316,-1.5276,-1.5208,-1.5269,-1.5316,-1.533,-1.5404,-1.5486,-1.554,-1.5547,-1.5574,-1.5435,-1.5442,-1.5581,-1.5677,-1.552,-1.5547,-1.5547,-1.5547,-1.5547,-1.554,-1.5479,-1.5452,-1.5452,-1.5513,-1.5547,-1.5547,-1.5608,-1.5635,-1.5649,-1.5805,-1.5967,-1.611,-1.6198,-1.6273,-1.6341,-1.6341,-1.6341,-1.6341,-1.6341,-1.6313,-1.6246,-1.609,-1.6015,-1.6083,-1.6164,-1.6218,-1.6232,-1.6347,-1.6435,-1.6435,-1.6435,-1.6435,-1.6422,-1.6307,-1.6212,-1.6198,-1.6137,-1.609,-1.6083,-1.6083,-1.6083,-1.6083,-1.6083,-1.6083,-1.6083,-1.6083,-1.6083,-1.6083,-1.6083,-1.6083,-1.6083,-1.6083,-1.6083,-1.6083,-1.6083,-1.6083,-1.6083,-1.6083,-1.6474,-1.7253,-1.7642,-1.8228,-1.979,-2.2516,-2.4269,-2.5432,-2.8752,-3.1133,-1.6978,-1.6978,-1.6978,-1.6917,-1.6809,-1.6768,-1.6632,-1.6435,-1.6388,-1.6286,-1.6151,-1.6144,-1.6062,-1.6124,-1.6076,-1.5993,-1.5703,-1.5655,-1.5581,-1.5479,-1.5472,-1.5472,-1.5472,-1.5479,-1.5479,-1.5472,-1.5664,-1.5418,-1.533,-1.5411,-1.5472,-1.5493,-1.5588,-1.5655,-1.5696,-1.5696,-1.5716,-1.5757,-1.5757,-1.5764,-1.5966,-1.5959,-1.5737,-1.5703,-1.5744,-1.5764,-1.5757,-1.5764,-1.5757,-1.5757,-1.5757,-1.5757,-1.5764,-1.5798,-1.5839,-1.5893,-1.6083,-1.6246,-1.6361,-1.6463,-1.6517,-1.6517,-1.6517,-1.6517,-1.6517,-1.6517,-1.6517,-1.6497,-1.6327,-1.6205,-1.6218,-1.63,-1.6361,-1.6381,-1.6497,-1.6578,-1.6585,-1.6585,-1.6585,-1.6571,-1.6456,-1.6368,-1.6347,-1.6246,-1.6157,-1.6151,-1.611,-1.6083,-1.6083,-1.6083,-1.6083,-1.6083,-1.6083,-1.6083,-1.6083,-1.6083,-1.6083,-1.6083,-1.6083,-1.6083,-1.6083,-1.6083,-1.6083,-1.6083,-1.6083,-1.6275,-1.6672,-1.6275,-1.6282,-1.7062,-1.9593,-2.2702,-2.2897,-2.6795,-2.9437,-1.6978,-1.6978,-1.6978,-1.6971,-1.6958,-1.6822,-1.6748,-1.6693,-1.6571,-1.6429,-1.6105,-1.6091,-1.6212,-1.6069,-1.6144,-1.6055,-1.5832,-1.5716,-1.5649,-1.5628,-1.5628,-1.5628,-1.5628,-1.5635,-1.5635,-1.5628,-1.5635,-1.5622,-1.5601,-1.5622,-1.5628,-1.5635,-1.5655,-1.5716,-1.5825,-1.5845,-1.5913,-1.6015,-1.6029,-1.6049,-1.6049,-1.6049,-1.5974,-1.5872,-1.5981,-1.6042,-1.6049,-1.6056,-1.6049,-1.6056,-1.6042,-1.6049,-1.6069,-1.6191,-1.6313,-1.6435,-1.6476,-1.6497,-1.651,-1.6537,-1.6544,-1.6537,-1.6558,-1.6537,-1.6564,-1.6564,-1.6564,-1.653,-1.653,-1.6503,-1.6503,-1.6503,-1.6517,-1.6524,-1.6653,-1.6727,-1.6741,-1.6741,-1.6741,-1.672,-1.6605,-1.651,-1.6497,-1.6388,-1.6307,-1.6259,-1.6178,-1.609,-1.6083,-1.6083,-1.6083,-1.6083,-1.6083,-1.6083,-1.6083,-1.6083,-1.6083,-1.6083,-1.6083,-1.6083,-1.6083,-1.6083,-1.6083,-1.6083,-1.6083,-1.6083,-1.6083,-1.6083,-1.6083,-1.6864,-1.8616,-2.0371,-2.1147,-2.2711,-2.5172,-1.6978,-1.6978,-1.6978,-1.6978,-1.6971,-1.6917,-1.6842,-1.6748,-1.6693,-1.6585,-1.6252,-1.6232,-1.6152,-1.6024,-1.6171,-1.609,-1.6001,-1.594,-1.5872,-1.5784,-1.5778,-1.5778,-1.5778,-1.5778,-1.5973,-1.598,-1.5778,-1.573,-1.5655,-1.573,-1.5778,-1.5798,-1.5872,-1.5954,-1.5995,-1.5995,-1.6029,-1.6076,-1.6083,-1.6083,-1.6083,-1.6083,-1.6056,-1.6008,-1.6049,-1.6083,-1.6083,-1.6083,-1.6083,-1.6083,-1.6083,-1.6123,-1.6232,-1.6368,-1.6463,-1.6524,-1.6612,-1.6666,-1.668,-1.6761,-1.6815,-1.6815,-1.6815,-1.6809,-1.6815,-1.6815,-1.6815,-1.6815,-1.6815,-1.6815,-1.6795,-1.6727,-1.6666,-1.6686,-1.6802,-1.689,-1.6897,-1.6897,-1.6897,-1.6876,-1.6761,-1.6639,-1.6551,-1.6476,-1.6415,-1.6327,-1.6259,-1.6191,-1.6103,-1.6083,-1.6083,-1.6083,-1.6083,-1.6083,-1.6083,-1.6083,-1.6083,-1.6083,-1.6083,-1.6083,-1.6083,-1.6083,-1.6083,-1.6083,-1.6083,-1.6096,-1.6096,-1.609,-1.609,-1.6494,-1.8251,-1.9232,-1.997,-2.1434,-2.3365,-1.6978,-1.6978,-1.6978,-1.6978,-1.6978,-1.6978,-1.6924,-1.6829,-1.6822,-1.6741,-1.6619,-1.6386,-1.6306,-1.6388,-1.6125,-1.6051,-1.6151,-1.6103,-1.6029,-1.5934,-1.5927,-1.5927,-1.5927,-1.5927,-1.5934,-1.6131,-1.5927,-1.5872,-1.5805,-1.5879,-1.5927,-1.5934,-1.6035,-1.6083,-1.6083,-1.6083,-1.6083,-1.6083,-1.6083,-1.6083,-1.6083,-1.6083,-1.6083,-1.6083,-1.6083,-1.6083,-1.6083,-1.6083,-1.6083,-1.6083,-1.6123,-1.6246,-1.6435,-1.6544,-1.6619,-1.6673,-1.6768,-1.6822,-1.6836,-1.6924,-1.6978,-1.6978,-1.6978,-1.6978,-1.6978,-1.6978,-1.6978,-1.6978,-1.6978,-1.6978,-1.6965,-1.6883,-1.6829,-1.6836,-1.6917,-1.6978,-1.6978,-1.6978,-1.6971,-1.6958,-1.689,-1.6781,-1.6686,-1.6625,-1.6558,-1.6456,-1.6381,-1.6259,-1.6178,-1.611,-1.6083,-1.6083,-1.6083,-1.6083,-1.6083,-1.6083,-1.6083,-1.6083,-1.6083,-1.6083,-1.6083,-1.6083,-1.6083,-1.6083,-1.609,-1.611,-1.611,-1.6103,-1.6117,-1.6337,-1.6956,-1.7953,-1.8956,-1.9809,-2.1541,-1.6978,-1.6978,-1.6978,-1.6978,-1.6978,-1.6978,-1.6978,-1.6965,-1.6965,-1.6883,-1.6975,-1.6968,-1.6879,-1.6939,-1.6415,-1.6118,-1.6293,-1.6185,-1.6103,-1.6062,-1.6062,-1.6062,-1.6062,-1.6056,-1.6056,-1.6062,-1.6076,-1.6083,-1.6069,-1.609,-1.6103,-1.609,-1.6096,-1.6103,-1.6083,-1.6083,-1.6083,-1.6083,-1.6083,-1.6083,-1.6083,-1.6083,-1.6083,-1.6083,-1.609,-1.6103,-1.6096,-1.6096,-1.6103,-1.6117,-1.6232,-1.6442,-1.6673,-1.6741,-1.6809,-1.6917,-1.6965,-1.6971,-1.6971,-1.6971,-1.6978,-1.6978,-1.6978,-1.6978,-1.6978,-1.6978,-1.6978,-1.6978,-1.6978,-1.6978,-1.6978,-1.6965,-1.6958,-1.6978,-1.6971,-1.6978,-1.6978,-1.6978,-1.6978,-1.6978,-1.6958,-1.6971,-1.6937,-1.6836,-1.6734,-1.6659,-1.651,-1.6354,-1.6313,-1.6218,-1.6117,-1.6096,-1.6117,-1.613,-1.6103,-1.6083,-1.6083,-1.6083,-1.6083,-1.6083,-1.6083,-1.6083,-1.6083,-1.6083,-1.6083,-1.6096,-1.6151,-1.6151,-1.6191,-1.6419,-1.6834,-1.6869,-1.7501,-1.8351,-1.8878,-1.6978,-1.6978,-1.6978,-1.6978,-1.6978,-1.6978,-1.6978,-1.6978,-1.6978,-1.6951,-1.6917,-1.691,-1.7037,-1.6913,-1.6838,-1.6558,-1.6456,-1.6395,-1.6279,-1.6117,-1.6083,-1.609,-1.609,-1.6083,-1.6083,-1.6103,-1.6191,-1.6239,-1.6252,-1.6334,-1.6341,-1.6259,-1.6239,-1.6185,-1.6096,-1.6083,-1.6083,-1.6083,-1.6083,-1.6083,-1.6083,-1.6083,-1.6083,-1.609,-1.6185,-1.6239,-1.6239,-1.6239,-1.6239,-1.6239,-1.6381,-1.6544,-1.672,-1.6849,-1.6931,-1.6971,-1.6978,-1.6978,-1.6978,-1.6978,-1.6978,-1.6978,-1.6978,-1.6978,-1.6978,-1.6978,-1.6978,-1.6978,-1.6978,-1.6978,-1.6978,-1.6978,-1.6978,-1.6978,-1.6978,-1.6978,-1.6978,-1.6978,-1.6978,-1.6978,-1.6978,-1.6978,-1.6971,-1.691,-1.6863,-1.6775,-1.6659,-1.6571,-1.6469,-1.6402,-1.6334,-1.6266,-1.6246,-1.6198,-1.6151,-1.6137,-1.6137,-1.6103,-1.6083,-1.6083,-1.6083,-1.6083,-1.6083,-1.6117,-1.611,-1.6151,-1.6191,-1.6225,-1.6279,-1.6334,-1.6577,-1.6598,-1.6408,-1.6898,-1.7639,-1.6978,-1.6978,-1.6978,-1.6978,-1.6978,-1.6978,-1.6978,-1.6978,-1.6978,-1.6978,-1.6978,-1.6978,-1.6931,-1.7051,-1.6996,-1.6907,-1.6605,-1.6551,-1.6422,-1.6252,-1.6178,-1.6191,-1.6232,-1.6038,-1.6239,-1.6259,-1.6347,-1.6388,-1.6395,-1.6469,-1.6476,-1.6402,-1.6388,-1.6347,-1.6252,-1.6246,-1.6246,-1.6246,-1.6246,-1.6246,-1.6246,-1.6246,-1.6246,-1.6259,-1.6341,-1.6388,-1.6388,-1.6435,-1.6449,-1.6429,-1.653,-1.6673,-1.6822,-1.6924,-1.6978,-1.6978,-1.6978,-1.6978,-1.6978,-1.6978,-1.6978,-1.6978,-1.6978,-1.6978,-1.6978,-1.6978,-1.6978,-1.6978,-1.6978,-1.6978,-1.6978,-1.6978,-1.6978,-1.6978,-1.6978,-1.6978,-1.6978,-1.6978,-1.6978,-1.6978,-1.6978,-1.6978,-1.6978,-1.6978,-1.6944,-1.6849,-1.6781,-1.6734,-1.6619,-1.6551,-1.6469,-1.6415,-1.6395,-1.6313,-1.6205,-1.6191,-1.6198,-1.6144,-1.6083,-1.6083,-1.6083,-1.6083,-1.609,-1.6212,-1.6246,-1.6381,-1.6435,-1.6395,-1.6415,-1.6463,-1.6517,-1.6524,-1.6551,-1.67,-1.7217,-1.6978,-1.6978,-1.6978,-1.6978,-1.6978,-1.6978,-1.6978,-1.6978,-1.6978,-1.6978,-1.6978,-1.6978,-1.6978,-1.6944,-1.7051,-1.6989,-1.6741,-1.6646,-1.6585,-1.6517,-1.6429,-1.6402,-1.6463,-1.6259,-1.6252,-1.6483,-1.6517,-1.653,-1.6537,-1.6578,-1.6537,-1.6537,-1.653,-1.6524,-1.6483,-1.651,-1.6483,-1.6476,-1.649,-1.649,-1.649,-1.6497,-1.6497,-1.6497,-1.6517,-1.6537,-1.6551,-1.6659,-1.6686,-1.6592,-1.6693,-1.6822,-1.6944,-1.6978,-1.6978,-1.6978,-1.6978,-1.6978,-1.6978,-1.6978,-1.6978,-1.6978,-1.6978,-1.6978,-1.6978,-1.6978,-1.6978,-1.6978,-1.6978,-1.6978,-1.6978,-1.6978,-1.6978,-1.6978,-1.6978,-1.6978,-1.6978,-1.6978,-1.6978,-1.6978,-1.6978,-1.6978,-1.6978,-1.6978,-1.6971,-1.6944,-1.6856,-1.6795,-1.6761,-1.6686,-1.6578,-1.6544,-1.6537,-1.6456,-1.6354,-1.6341,-1.6347,-1.63,-1.6218,-1.6191,-1.6171,-1.6171,-1.6198,-1.6307,-1.6408,-1.6558,-1.6612,-1.6537,-1.6551,-1.6625,-1.6653,-1.6653,-1.6727,-1.6863,-1.6904,-1.6978,-1.6978,-1.6978,-1.6978,-1.6978,-1.6978,-1.6978,-1.6978,-1.6978,-1.6978,-1.6978,-1.6978,-1.6978,-1.6971,-1.6944,-1.6924,-1.6897,-1.687,-1.6863,-1.6836,-1.6707,-1.6578,-1.653,-1.6524,-1.653,-1.6551,-1.6646,-1.69,-1.67,-1.6788,-1.6788,-1.6693,-1.6686,-1.6632,-1.6544,-1.6537,-1.6517,-1.6517,-1.6524,-1.653,-1.6537,-1.6537,-1.6517,-1.653,-1.6632,-1.6686,-1.67,-1.6836,-1.691,-1.687,-1.689,-1.6937,-1.6971,-1.6978,-1.6978,-1.6978,-1.6978,-1.6978,-1.6978,-1.6978,-1.6978,-1.6978,-1.6978,-1.6978,-1.6978,-1.6978,-1.6978,-1.6978,-1.6978,-1.6978,-1.6978,-1.6978,-1.6978,-1.6978,-1.6978,-1.6978,-1.6978,-1.6978,-1.6978,-1.6978,-1.6978,-1.6978,-1.6978,-1.6978,-1.6978,-1.6971,-1.6937,-1.6904,-1.687,-1.6863,-1.6775,-1.6707,-1.6673,-1.6598,-1.653,-1.651,-1.649,-1.6463,-1.6415,-1.6374,-1.6361,-1.6354,-1.6402,-1.6476,-1.653,-1.6653,-1.6646,-1.6605,-1.6686,-1.6781,-1.6815,-1.6829,-1.687,-1.6958,-1.6951,-1.6978,-1.6978,-1.6978,-1.6978,-1.6978,-1.6978,-1.6978,-1.6978,-1.6978,-1.6978,-1.6978,-1.6978,-1.6978,-1.6978,-1.6978,-1.6978,-1.6978,-1.6978,-1.6971,-1.6965,-1.6883,-1.6761,-1.6666,-1.6666,-1.6714,-1.672,-1.6802,-1.6842,-1.6863,-1.6944,-1.6924,-1.6863,-1.6842,-1.6795,-1.6741,-1.6714,-1.6714,-1.672,-1.6714,-1.6714,-1.6714,-1.6714,-1.6714,-1.6727,-1.6809,-1.6849,-1.6863,-1.6931,-1.6978,-1.6978,-1.6978,-1.6978,-1.6978,-1.6978,-1.6978,-1.6978,-1.6978,-1.6978,-1.6978,-1.6978,-1.6978,-1.6978,-1.6978,-1.6978,-1.6978,-1.6978,-1.6978,-1.6978,-1.6978,-1.6978,-1.6978,-1.6978,-1.6978,-1.6978,-1.6978,-1.6978,-1.6978,-1.6978,-1.6978,-1.6978,-1.6978,-1.6978,-1.6978,-1.6978,-1.6978,-1.6978,-1.6978,-1.6965,-1.6965,-1.6978,-1.6958,-1.687,-1.6815,-1.6748,-1.6714,-1.6693,-1.6612,-1.6585,-1.6598,-1.6558,-1.653,-1.653,-1.6578,-1.6625,-1.6673,-1.6714,-1.6727,-1.6754,-1.6822,-1.6904,-1.6951,-1.6965,-1.6971,-1.6978,-1.6978,-1.6978,-1.6978,-1.6978,-1.6978,-1.6978,-1.6978,-1.6978,-1.6978,-1.6978,-1.6978,-1.6978,-1.6978,-1.6978,-1.6978,-1.6978,-1.6978,-1.6978,-1.6978,-1.6978,-1.6978,-1.6951,-1.689,-1.6802,-1.6876,-1.6924,-1.6937,-1.6971,-1.6965,-1.6958,-1.6971,-1.6978,-1.6958,-1.6965,-1.6971,-1.6924,-1.6944,-1.6971,-1.6944,-1.6924,-1.6924,-1.6924,-1.6924,-1.6917,-1.6924,-1.6931,-1.6951,-1.6958,-1.6978,-1.6978,-1.6978,-1.6978,-1.6978,-1.6978,-1.6978,-1.6978,-1.6978,-1.6978,-1.6985,-1.7005,-1.7026,-1.7032,-1.7053,-1.706,-1.7026,-1.706,-1.7053,-1.7026,-1.7026,-1.6992,-1.6978,-1.6985,-1.6992,-1.6998,-1.6992,-1.6978,-1.6978,-1.6978,-1.6978,-1.6978,-1.6978,-1.6978,-1.6978,-1.6978,-1.6978,-1.6978,-1.6978,-1.6978,-1.6978,-1.6978,-1.6978,-1.6978,-1.6958,-1.6924,-1.691,-1.689,-1.6876,-1.6775,-1.67,-1.6754,-1.6741,-1.6693,-1.67,-1.6748,-1.6788,-1.6815,-1.6856,-1.6897,-1.6937,-1.6958,-1.6958,-1.6971,-1.6971,-1.6978,-1.6978,-1.6978,-1.6978,-1.6978,-1.6978,-1.6978,-1.6978,-1.6978,-1.6978,-1.6978,-1.6978,-1.6978,-1.6978,-1.6978,-1.6978,-1.6978,-1.6978,-1.6978,-1.6978,-1.6978,-1.6978,-1.6978,-1.6978,-1.6971,-1.6931,-1.6971,-1.6978,-1.6978,-1.6978,-1.6978,-1.6978,-1.6978,-1.6978,-1.6978,-1.6978,-1.6978,-1.6978,-1.6978,-1.6978,-1.6978,-1.6978,-1.6978,-1.6978,-1.6978,-1.6978,-1.6978,-1.6978,-1.6978,-1.6978,-1.6978,-1.6978,-1.6978,-1.6985,-1.6998,-1.6998,-1.6998,-1.7012,-1.7012,-1.7005,-1.7039,-1.7121,-1.7154,-1.7202,-1.7283,-1.729,-1.7331,-1.7317,-1.7202,-1.7154,-1.7127,-1.7053,-1.7012,-1.7026,-1.7093,-1.7093,-1.7046,-1.6998,-1.6992,-1.6978,-1.6978,-1.6978,-1.6978,-1.6978,-1.6978,-1.6978,-1.6978,-1.6978,-1.6978,-1.6978,-1.6978,-1.6978,-1.6978,-1.6978,-1.6978,-1.6971,-1.6944,-1.6944,-1.6931,-1.6883,-1.6815,-1.6856,-1.6883,-1.6836,-1.6829,-1.6863,-1.6904,-1.6944,-1.6978,-1.6978,-1.6978,-1.6971,-1.6978,-1.6978,-1.6978,-1.6978,-1.6978,-1.6978,-1.6978,-1.6978,-1.6978,-1.6978,-1.6978,-1.6978,-1.6978,-1.6978,-1.6978,-1.6978,-1.6978,-1.6978,-1.6978,-1.6978,-1.6978,-1.6978,-1.6978,-1.6978,-1.6978,-1.6978,-1.6978,-1.6978,-1.6978,-1.6978,-1.6978,-1.6978,-1.6978,-1.6978,-1.6978,-1.6978,-1.6978,-1.6978,-1.6978,-1.6978,-1.6978,-1.6978,-1.6978,-1.6978,-1.6978,-1.6978,-1.6978,-1.6978,-1.6978,-1.6978,-1.6978,-1.6978,-1.6978,-1.6978,-1.7019,-1.706,-1.708,-1.708,-1.71,-1.7148,-1.7182,-1.7188,-1.7188,-1.7216,-1.7283,-1.7304,-1.7331,-1.7419,-1.7419,-1.7419,-1.7412,-1.7338,-1.7311,-1.729,-1.7243,-1.7188,-1.7188,-1.7236,-1.7243,-1.7202,-1.7121,-1.708,-1.7066,-1.7026,-1.6978,-1.6978,-1.6978,-1.6978,-1.6978,-1.6978,-1.6978,-1.6978,-1.6978,-1.6978,-1.6978,-1.6978,-1.6978,-1.6978,-1.6978,-1.6971,-1.6971,-1.6971,-1.6965,-1.6931,-1.6931,-1.6944,-1.6924,-1.6937,-1.6965,-1.6978,-1.6978,-1.6978,-1.6978,-1.6978,-1.6978,-1.6978,-1.6978,-1.6978,-1.6978,-1.6978,-1.6978,-1.6978,-1.6978,-1.6978,-1.6978,-1.6978,-1.6978,-1.6978,-1.6978,-1.6978,-1.6978,-1.6978,-1.6978,-1.6978,-1.6978,-1.6978,-1.6978,-1.6978,-1.6978,-1.6978,-1.6978,-1.6978,-1.6978,-1.6978,-1.6978,-1.6978,-1.6978,-1.6978,-1.6978,-1.6978,-1.6978,-1.6978,-1.6978,-1.6978,-1.6978,-1.6978,-1.6978,-1.6978,-1.6978,-1.6978,-1.6978,-1.6978,-1.6978,-1.6992,-1.7032,-1.7032,-1.706,-1.708,-1.7093,-1.7114,-1.7216,-1.7249,-1.7263,-1.729,-1.7338,-1.7419,-1.7405,-1.7385,-1.7405,-1.7439,-1.746,-1.7467,-1.748,-1.75,-1.75,-1.7507,-1.748,-1.746,-1.7453,-1.7433,-1.7419,-1.7426,-1.7439,-1.7433,-1.7392,-1.729,-1.7229,-1.7175,-1.708,-1.7032,-1.6978,-1.6978,-1.6978,-1.6978,-1.6978,-1.6978,-1.6978,-1.6978,-1.6978,-1.6978,-1.6978,-1.6978,-1.6978,-1.6978,-1.6978,-1.6978,-1.6978,-1.6978,-1.6978,-1.6978,-1.6978,-1.6978,-1.6978,-1.6978,-1.6978,-1.6978,-1.6978,-1.6978,-1.6978,-1.6978,-1.6978,-1.6978,-1.6978,-1.6978,-1.6978,-1.6978,-1.6978,-1.6978,-1.6978,-1.6978,-1.6978,-1.6978,-1.6978,-1.6978,-1.6978,-1.6978,-1.6978,-1.6978,-1.6978,-1.6978,-1.6978,-1.6978,-1.6978,-1.6978,-1.6978,-1.6978,-1.6978,-1.6978,-1.6978,-1.6978,-1.6978,-1.6978,-1.6978,-1.6978,-1.6978,-1.6978,-1.6978,-1.6978,-1.6978,-1.6978,-1.6978,-1.6978,-1.6978,-1.6978,-1.6978,-1.6978,-1.6978,-1.6998,-1.706,-1.7141,-1.7161,-1.7209,-1.7304,-1.7338,-1.7358,-1.7392,-1.7507,-1.7555,-1.7541,-1.7487,-1.7453,-1.746,-1.7467,-1.7514,-1.7595,-1.7616,-1.7677,-1.7751,-1.7765,-1.7765,-1.7745,-1.7684,-1.7623,-1.7609,-1.7595,-1.7568,-1.7439,-1.7541,-1.7534,-1.7467,-1.7405,-1.7344,-1.7243,-1.7182,-1.7107,-1.7032,-1.7005,-1.6978,-1.6978,-1.6978,-1.6978,-1.6978,-1.6978,-1.6978,-1.6978,-1.6978,-1.6978,-1.6978,-1.6978,-1.6978,-1.6978,-1.6978,-1.6978,-1.6978,-1.6978,-1.6978,-1.6978,-1.6978,-1.6978,-1.6978,-1.6978,-1.6978,-1.6978,-1.6978,-1.6978,-1.6978,-1.6978,-1.6978,-1.6978,-1.6978,-1.6978,-1.6978,-1.6978,-1.6978,-1.6978,-1.6978,-1.6978,-1.6978,-1.6978,-1.6978,-1.6978,-1.6978,-1.6978,-1.6978,-1.6978,-1.6978,-1.6978,-1.6978,-1.6978,-1.6978,-1.6978,-1.6978,-1.6978,-1.6978,-1.6978,-1.6978,-1.6978,-1.6978,-1.6978,-1.6978,-1.6978,-1.6978,-1.6978,-1.6978,-1.6978,-1.6978,-1.6978,-1.6978,-1.6978,-1.6978,-1.6978,-1.6992,-1.7046,-1.7168,-1.727,-1.7311,-1.7351,-1.7392,-1.7419,-1.746,-1.7528,-1.7609,-1.7684,-1.7711,-1.7697,-1.7643,-1.7643,-1.7636,-1.7663,-1.7745,-1.7758,-1.7792,-1.784,-1.786,-1.786,-1.7853,-1.7792,-1.7758,-1.7758,-1.7758,-1.7731,-1.767,-1.7711,-1.7711,-1.7663,-1.7589,-1.7507,-1.7433,-1.7358,-1.7243,-1.7107,-1.7039,-1.7005,-1.6978,-1.6978,-1.6978,-1.6978,-1.6978,-1.6978,-1.6978,-1.6978,-1.6978,-1.6978,-1.6978,-1.6978,-1.6978,-1.6978,-1.6978,-1.6978,-1.6978,-1.6978,-1.6978,-1.6978,-1.6978,-1.6978,-1.6978,-1.6978,-1.6978,-1.6978,-1.6978,-1.6978,-1.6978,-1.6978,-1.6978,-1.6978,-1.6978,-1.6978,-1.6978,-1.6978,-1.6978,-1.6978,-1.6978,-1.6978,-1.6978,-1.6978,-1.6978,-1.6978,-1.6978,-1.6978,-1.6978,-1.6978,-1.6978,-1.6978,-1.6978,-1.6978,-1.6978,-1.6978,-1.6978,-1.6978,-1.6978,-1.6978,-1.6978,-1.6978,-1.6978,-1.6978,-1.6978,-1.6978,-1.6978,-1.6978,-1.6978,-1.6978,-1.6978,-1.6978,-1.6978,-1.6978,-1.6985,-1.7053,-1.7168,-1.7311,-1.7446,-1.7467,-1.748,-1.7541,-1.7548,-1.7595,-1.7663,-1.7711,-1.7745,-1.784,-1.786,-1.786,-1.786,-1.786,-1.786,-1.7853,-1.7853,-1.7846,-1.786,-1.786,-1.786,-1.786,-1.7853,-1.7846,-1.786,-1.7853,-1.7846,-1.7819,-1.7853,-1.7853,-1.7826,-1.7745,-1.767,-1.7602,-1.7514,-1.7399,-1.7263,-1.7114,-1.7032,-1.7012,-1.6978,-1.6978,-1.6978,-1.6978,-1.6978,-1.6978,-1.6978,-1.6978,-1.6978,-1.6978,-1.6978,-1.6978,-1.6978,-1.6978,-1.6978,-1.6978,-1.6978,-1.6978,-1.6978,-1.6978,-1.6978,-1.6978,-1.6978,-1.6978,-1.6978,-1.6978,-1.6978,-1.6978,-1.6978,-1.6978,-1.6978,-1.6978,-1.6978,-1.6978,-1.6978,-1.6978,-1.6978,-1.6978,-1.6978,-1.6978,-1.6978,-1.6978,-1.6978,-1.6978,-1.6978,-1.6978,-1.6978,-1.6978,-1.6978,-1.6978,-1.6978,-1.6978,-1.6978,-1.6978,-1.6978,-1.6978,-1.6978,-1.6978,-1.6978,-1.6978,-1.6978,-1.6978,-1.6978,-1.6978,-1.6978,-1.6978,-1.6978,-1.6978,-1.6978,-1.6978,-1.6985,-1.7053,-1.7401,-1.7324,-1.7467,-1.7582,-1.7629,-1.7663,-1.7738,-1.7751,-1.7792,-1.7806,-1.7826,-1.784,-1.786,-1.786,-1.786,-1.786,-1.786,-1.786,-1.786,-1.786,-1.786,-1.7867,-1.788,-1.7867,-1.788,-1.7867,-1.786,-1.786,-1.786,-1.786,-1.786,-1.786,-1.786,-1.786,-1.7833,-1.7751,-1.769,-1.767,-1.7555,-1.7433,-1.7297,-1.7148,-1.706,-1.7012,-1.6978,-1.6978,-1.6978,-1.6978,-1.6978,-1.6978,-1.6978,-1.6978,-1.6978,-1.6978,-1.6978,-1.6978,-1.6978,-1.6978,-1.6978,-1.6978,-1.6978,-1.6978,-1.6978,-1.6978,-1.6978,-1.6978,-1.6978,-1.6978,-1.6978,-1.6978,-1.6978,-1.6978,-1.6978,-1.6978,-1.6978,-1.6978,-1.6978,-1.6978,-1.6978,-1.6978,-1.6978,-1.6978,-1.6978,-1.6978,-1.6978,-1.6978,-1.6978,-1.6978,-1.6978,-1.6978,-1.6978,-1.6978,-1.6978,-1.6978,-1.6978,-1.6978,-1.6978,-1.6978,-1.6978,-1.6978,-1.6978,-1.6978,-1.6978,-1.6978,-1.6985,-1.6978,-1.6985,-1.6985,-1.6978,-1.7012,-1.6985,-1.6978,-1.6998,-1.7066,-1.7222,-1.7628,-1.7528,-1.7623,-1.7758,-1.7765,-1.7806,-1.784,-1.786,-1.786,-1.786,-1.786,-1.786,-1.786,-1.786,-1.786,-1.786,-1.786,-1.786,-1.786,-1.7867,-1.7874,-1.7901,-1.7941,-1.7996,-1.7982,-1.7921,-1.7874,-1.786,-1.786,-1.7867,-1.7867,-1.786,-1.786,-1.7867,-1.7874,-1.784,-1.7785,-1.7779,-1.7717,-1.7595,-1.748,-1.7338,-1.7188,-1.7093,-1.7046,-1.7012,-1.6998,-1.6992,-1.6985,-1.6978,-1.6978,-1.6978,-1.6978,-1.6978,-1.6978,-1.6978,-1.6978,-1.6978,-1.6978,-1.6978,-1.6978,-1.6978,-1.6978,-1.6978,-1.6978,-1.6978,-1.6978,-1.6978,-1.6978,-1.6978,-1.6978,-1.6978,-1.6978,-1.6978,-1.6978,-1.6978,-1.6978,-1.6978,-1.6978,-1.6978,-1.6978,-1.6978,-1.6978,-1.6978,-1.6978,-1.6978,-1.6978,-1.6978,-1.6978,-1.6978,-1.6978,-1.6978,-1.6978,-1.6978,-1.6978,-1.6978,-1.6978,-1.6978,-1.6978,-1.6978,-1.6985,-1.7039,-1.7046,-1.706,-1.708,-1.71,-1.7039,-1.7053,-1.7073,-1.7093,-1.7121,-1.7127,-1.6922,-1.7256,-1.7426,-1.782,-1.7677,-1.7758,-1.7826,-1.786,-1.786,-1.786,-1.786,-1.786,-1.786,-1.786,-1.786,-1.786,-1.786,-1.7901,-1.7921,-1.7941,-1.7975,-1.7982,-1.7982,-1.7948,-1.8002,-1.8057,-1.8145,-1.8138,-1.803,-1.7948,-1.7948,-1.7996,-1.7955,-1.7901,-1.7921,-1.7948,-1.7935,-1.7907,-1.7887,-1.7867,-1.784,-1.7812,-1.7731,-1.7629,-1.7561,-1.7405,-1.7222,-1.7127,-1.706,-1.7032,-1.7019,-1.6998,-1.6992,-1.6978,-1.6978,-1.6978,-1.6978,-1.6978,-1.6978,-1.6978,-1.6978,-1.6978,-1.6978,-1.6978,-1.6978,-1.6978,-1.6978,-1.6978,-1.6978,-1.6978,-1.6978,-1.6978,-1.6978,-1.6978,-1.6978,-1.6978,-1.6978,-1.6978,-1.6978,-1.6978,-1.6978,-1.6978,-1.6978,-1.6978,-1.6978,-1.6978,-1.6978,-1.6978,-1.6978,-1.6978,-1.6978,-1.6978,-1.6978,-1.6978,-1.6978,-1.6978,-1.6998,-1.6998,-1.6985,-1.7012,-1.7026,-1.7026,-1.7005,-1.7039,-1.7127,-1.7175,-1.7202,-1.7277,-1.7256,-1.7202,-1.7195,-1.727,-1.7311,-1.7311,-1.7123,-1.715,-1.7264,-1.7575,-1.7909,-1.7985,-1.784,-1.7846,-1.786,-1.786,-1.786,-1.786,-1.786,-1.786,-1.786,-1.7894,-1.7901,-1.7874,-1.7914,-1.8043,-1.8043,-1.8104,-1.8186,-1.8152,-1.8158,-1.824,-1.828,-1.8287,-1.8294,-1.8294,-1.8219,-1.8104,-1.8152,-1.8111,-1.8063,-1.8063,-1.8091,-1.8002,-1.7955,-1.7935,-1.7907,-1.7867,-1.784,-1.7819,-1.7765,-1.769,-1.7643,-1.7473,-1.729,-1.7222,-1.7114,-1.71,-1.7032,-1.7012,-1.6985,-1.6978,-1.6978,-1.6978,-1.6978,-1.6978,-1.6978,-1.6978,-1.6978,-1.6978,-1.6978,-1.6978,-1.6978,-1.6978,-1.6978,-1.6978,-1.6978,-1.6978,-1.6978,-1.6978,-1.6978,-1.6978,-1.6978,-1.6978,-1.6978,-1.6978,-1.6978,-1.6978,-1.6978,-1.6978,-1.6978,-1.6978,-1.6978,-1.6978,-1.6978,-1.6978,-1.6978,-1.6978,-1.6978,-1.6978,-1.6978,-1.6992,-1.708,-1.71,-1.7107,-1.7114,-1.7161,-1.7182,-1.7168,-1.7154,-1.7229,-1.7311,-1.7338,-1.7344,-1.7426,-1.7467,-1.7433,-1.7385,-1.7365,-1.7405,-1.7453,-1.7264,-1.7337,-1.7404,-1.7684,-1.7785,-1.7819,-1.786,-1.786,-1.786,-1.786,-1.786,-1.786,-1.786,-1.7867,-1.7867,-1.7914,-1.7968,-1.7921,-1.8002,-1.8179,-1.8158,-1.824,-1.8382,-1.8335,-1.8301,-1.8389,-1.8382,-1.8362,-1.8437,-1.8382,-1.8314,-1.8274,-1.8294,-1.8253,-1.8226,-1.824,-1.8233,-1.8091,-1.8023,-1.8016,-1.7962,-1.7928,-1.7894,-1.7887,-1.7853,-1.7799,-1.7772,-1.7731,-1.7548,-1.7385,-1.727,-1.7175,-1.7121,-1.7073,-1.7066,-1.7039,-1.7032,-1.7012,-1.7012,-1.6998,-1.6978,-1.6978,-1.6978,-1.6978,-1.6978,-1.6978,-1.6978,-1.6978,-1.6985,-1.6992,-1.6992,-1.6978,-1.6978,-1.6978,-1.6978,-1.6978,-1.6978,-1.6985,-1.6978,-1.6978,-1.6978,-1.6978,-1.6978,-1.6978,-1.6978,-1.6978,-1.6978,-1.6978,-1.6978,-1.6978,-1.6978,-1.6978,-1.6978,-1.6978,-1.7019,-1.7066,-1.7141,-1.7209,-1.7243,-1.7277,-1.7331,-1.7344,-1.7338,-1.7304,-1.7419,-1.748,-1.7494,-1.7487,-1.7528,-1.7609,-1.765,-1.7616,-1.7575,-1.7568,-1.7555,-1.7609,-1.7684,-1.7724,-1.7751,-1.7853,-1.786,-1.786,-1.786,-1.786,-1.786,-1.786,-1.7867,-1.7901,-1.7907,-1.7928,-1.7982,-1.803,-1.807,-1.8118,-1.8233,-1.8321,-1.8348,-1.8491,-1.8538,-1.8498,-1.8572,-1.8538,-1.8538,-1.8545,-1.8504,-1.8477,-1.8396,-1.8416,-1.8423,-1.8382,-1.8396,-1.8362,-1.8247,-1.826,-1.824,-1.8104,-1.8036,-1.7989,-1.7955,-1.7907,-1.7846,-1.7833,-1.7799,-1.769,-1.7514,-1.7385,-1.7311,-1.7277,-1.7229,-1.7188,-1.7154,-1.7114,-1.7087,-1.7053,-1.7019,-1.6992,-1.6978,-1.6978,-1.6978,-1.6978,-1.6985,-1.6985,-1.6978,-1.6985,-1.6998,-1.7019,-1.7032,-1.7005,-1.6978,-1.6992,-1.7012,-1.7039,-1.7046,-1.6992,-1.6978,-1.6978,-1.6978,-1.6978,-1.6978,-1.6978,-1.6985,-1.7005,-1.7019,-1.7012,-1.7005,-1.7005,-1.7019,-1.7019,-1.7053,-1.7107,-1.7188,-1.7222,-1.7297,-1.7392,-1.7412,-1.7426,-1.7439,-1.7446,-1.7453,-1.7467,-1.7561,-1.7643,-1.7643,-1.7724,-1.7806,-1.7826,-1.7785,-1.7785,-1.784,-1.7846,-1.7853,-1.7853,-1.7846,-1.7853,-1.786,-1.786,-1.786,-1.786,-1.786,-1.786,-1.786,-1.7901,-1.7955,-1.8016,-1.7982,-1.8077,-1.8253,-1.8158,-1.824,-1.8484,-1.8498,-1.8572,-1.8721,-1.8735,-1.8728,-1.8715,-1.866,-1.8694,-1.8728,-1.8715,-1.8654,-1.8545,-1.8613,-1.8572,-1.8545,-1.8531,-1.8477,-1.843,-1.8437,-1.8382,-1.824,-1.8152,-1.8104,-1.803,-1.7935,-1.7867,-1.786,-1.784,-1.7779,-1.7656,-1.7514,-1.7439,-1.7419,-1.7351,-1.7304,-1.7277,-1.7229,-1.7168,-1.7127,-1.7046,-1.7005,-1.6992,-1.6985,-1.6992,-1.7012,-1.7032,-1.7026,-1.7005,-1.706,-1.7141,-1.7121,-1.7093,-1.7127,-1.7161,-1.7066,-1.7066,-1.71,-1.7127,-1.7107,-1.6978,-1.6978,-1.6978,-1.6978,-1.6978,-1.6978,-1.7032,-1.7134,-1.7216,-1.7216,-1.7154,-1.7216,-1.7277,-1.7277,-1.7263,-1.729,-1.7344,-1.7473,-1.7555,-1.7561,-1.7568,-1.7643,-1.7656,-1.7616,-1.7616,-1.7704,-1.7779,-1.7785,-1.7792,-1.7846,-1.7853,-1.786,-1.786,-1.786,-1.786,-1.786,-1.786,-1.786,-1.786,-1.786,-1.7867,-1.7867,-1.7874,-1.7874,-1.788,-1.7894,-1.7901,-1.7968,-1.8057,-1.8131,-1.8091,-1.8247,-1.8396,-1.8321,-1.8382,-1.8579,-1.862,-1.8606,-1.8715,-1.8755,-1.8755,-1.8762,-1.8762,-1.8762,-1.8762,-1.8762,-1.8721,-1.8694,-1.8715,-1.8674,-1.8687,-1.8681,-1.8633,-1.8518,-1.8484,-1.8423,-1.8328,-1.828,-1.8226,-1.8118,-1.8023,-1.7928,-1.7887,-1.7867,-1.7812,-1.7772,-1.7643,-1.7595,-1.7568,-1.746,-1.7385,-1.7378,-1.7344,-1.7277,-1.7216,-1.7168,-1.7093,-1.706,-1.7046,-1.7032,-1.7053,-1.7114,-1.7168,-1.7209,-1.7249,-1.7283,-1.727,-1.7277,-1.7358,-1.7372,-1.7304,-1.7256,-1.729,-1.7317,-1.7317,-1.6978,-1.6978,-1.6978,-1.6978,-1.6978,-1.6978,-1.7066,-1.7202,-1.7351,-1.7358,-1.7304,-1.7378,-1.7412,-1.7412,-1.7419,-1.7473,-1.75,-1.7589,-1.7704,-1.7711,-1.7724,-1.7772,-1.7792,-1.7779,-1.7765,-1.7846,-1.786,-1.7853,-1.7846,-1.786,-1.786,-1.786,-1.7867,-1.7907,-1.7928,-1.7955,-1.7921,-1.7914,-1.7901,-1.7921,-1.7907,-1.7907,-1.7948,-1.7968,-1.7996,-1.8036,-1.8057,-1.8111,-1.8192,-1.824,-1.8308,-1.843,-1.8498,-1.8518,-1.8531,-1.8647,-1.8694,-1.8674,-1.8735,-1.8762,-1.8762,-1.8762,-1.8762,-1.8762,-1.8762,-1.8762,-1.8762,-1.8749,-1.8762,-1.8755,-1.8755,-1.8762,-1.8715,-1.8599,-1.8579,-1.8518,-1.8498,-1.8457,-1.8375,-1.826,-1.8104,-1.8009,-1.7914,-1.788,-1.7846,-1.7812,-1.7779,-1.7745,-1.7711,-1.7616,-1.7528,-1.7534,-1.7514,-1.7453,-1.7392,-1.7324,-1.7243,-1.7148,-1.7134,-1.7141,-1.7202,-1.7277,-1.7344,-1.7392,-1.7378,-1.7385,-1.7426,-1.7473,-1.7548,-1.7595,-1.7582,-1.7541,-1.7514,-1.748,-1.7467,-1.6978,-1.6978,-1.6978,-1.6978,-1.6978,-1.6992,-1.7073,-1.7209,-1.7378,-1.7439,-1.7426,-1.7446,-1.7494,-1.7689,-1.7676,-1.7534,-1.7636,-1.767,-1.7745,-1.7812,-1.7819,-1.7853,-1.7853,-1.7846,-1.784,-1.7853,-1.786,-1.786,-1.7867,-1.7907,-1.7901,-1.7921,-1.7962,-1.8009,-1.8077,-1.8118,-1.8063,-1.803,-1.8043,-1.8043,-1.8009,-1.8043,-1.8084,-1.8124,-1.8179,-1.8226,-1.826,-1.8301,-1.8382,-1.8416,-1.843,-1.8545,-1.8613,-1.8613,-1.8667,-1.8708,-1.8749,-1.8755,-1.8755,-1.8762,-1.8762,-1.8762,-1.8762,-1.8762,-1.8762,-1.8762,-1.8762,-1.8762,-1.8762,-1.8762,-1.8762,-1.8762,-1.8755,-1.8728,-1.8728,-1.8708,-1.8694,-1.864,-1.8552,-1.8416,-1.8233,-1.8097,-1.7962,-1.7907,-1.7928,-1.7846,-1.7826,-1.7826,-1.7799,-1.7806,-1.7738,-1.7738,-1.7704,-1.765,-1.7575,-1.7473,-1.7385,-1.729,-1.7317,-1.7331,-1.7392,-1.7439,-1.7494,-1.7514,-1.7473,-1.7487,-1.7568,-1.7656,-1.7738,-1.7765,-1.7738,-1.7724,-1.7663,-1.7582,-1.7541,-1.6978,-1.6978,-1.6978,-1.6978,-1.6992,-1.7087,-1.7154,-1.7236,-1.7561,-1.7684,-1.7364,-1.769,-1.7704,-1.7957,-1.7738,-1.7758,-1.7779,-1.7806,-1.7826,-1.7853,-1.786,-1.786,-1.786,-1.786,-1.786,-1.786,-1.786,-1.7874,-1.7901,-1.7948,-1.8097,-1.8179,-1.8145,-1.8199,-1.8267,-1.8348,-1.8274,-1.8233,-1.824,-1.8199,-1.8179,-1.8219,-1.8247,-1.828,-1.8321,-1.8362,-1.8369,-1.8437,-1.8504,-1.8511,-1.8599,-1.8715,-1.8721,-1.8721,-1.8742,-1.8749,-1.8762,-1.8762,-1.8762,-1.8762,-1.8762,-1.8762,-1.8762,-1.8762,-1.8762,-1.8762,-1.8762,-1.8762,-1.8762,-1.8762,-1.8762,-1.8762,-1.8762,-1.8762,-1.8762,-1.8755,-1.8742,-1.8721,-1.8626,-1.8498,-1.8321,-1.8206,-1.807,-1.803,-1.803,-1.7928,-1.7867,-1.7874,-1.786,-1.786,-1.786,-1.7853,-1.7826,-1.7751,-1.7684,-1.7595,-1.7514,-1.7446,-1.748,-1.7514,-1.7555,-1.7602,-1.7643,-1.7656,-1.7643,-1.7684,-1.7751,-1.7812,-1.7826,-1.784,-1.7819,-1.7819,-1.7806,-1.7717,-1.767,-1.6978,-1.6978,-1.6978,-1.6978,-1.7005,-1.7134,-1.7195,-1.727,-1.7609,-1.7745,-1.7745,-1.7819,-1.786,-1.7846,-1.7846,-1.7853,-1.7853,-1.7846,-1.786,-1.786,-1.786,-1.786,-1.786,-1.786,-1.786,-1.786,-1.7874,-1.7901,-1.7968,-1.8097,-1.8247,-1.8287,-1.8321,-1.8362,-1.8409,-1.8464,-1.8511,-1.847,-1.8437,-1.8382,-1.8369,-1.8382,-1.8396,-1.8416,-1.8443,-1.8477,-1.8484,-1.8586,-1.8606,-1.862,-1.8742,-1.8755,-1.8762,-1.8762,-1.8755,-1.8762,-1.8762,-1.8762,-1.8762,-1.8762,-1.8762,-1.8762,-1.8762,-1.8762,-1.8762,-1.8762,-1.8762,-1.8762,-1.8762,-1.8762,-1.8762,-1.8762,-1.8762,-1.8762,-1.8762,-1.8762,-1.8762,-1.8762,-1.8667,-1.8552,-1.8437,-1.8335,-1.8253,-1.8213,-1.8138,-1.8036,-1.7955,-1.7928,-1.7894,-1.786,-1.786,-1.786,-1.7853,-1.7826,-1.7758,-1.7717,-1.767,-1.7629,-1.7656,-1.7697,-1.7724,-1.7738,-1.7751,-1.7792,-1.7833,-1.7846,-1.7826,-1.784,-1.7853,-1.786,-1.786,-1.7853,-1.7846,-1.7819,-1.7799,-1.6978,-1.6978,-1.6978,-1.6992,-1.7012,-1.7127,-1.7188,-1.7236,-1.7494,-1.769,-1.7806,-1.784,-1.784,-1.786,-1.786,-1.786,-1.786,-1.786,-1.786,-1.786,-1.786,-1.786,-1.786,-1.786,-1.786,-1.786,-1.7887,-1.7948,-1.8118,-1.826,-1.8348,-1.8348,-1.8382,-1.8457,-1.8552,-1.8565,-1.8613,-1.8654,-1.8593,-1.8518,-1.8692,-1.8713,-1.8552,-1.8572,-1.8654,-1.8735,-1.8735,-1.8755,-1.8762,-1.8762,-1.8762,-1.8762,-1.8762,-1.8762,-1.8762,-1.8762,-1.8762,-1.8762,-1.8762,-1.8762,-1.8762,-1.8762,-1.8762,-1.8762,-1.8762,-1.8762,-1.8762,-1.8762,-1.8762,-1.8762,-1.8762,-1.8762,-1.8762,-1.8762,-1.8762,-1.8762,-1.8762,-1.8755,-1.8715,-1.862,-1.8586,-1.8477,-1.8382,-1.8328,-1.8233,-1.8138,-1.805,-1.8002,-1.7928,-1.7874,-1.7867,-1.7867,-1.786,-1.7853,-1.784,-1.7806,-1.7826,-1.7826,-1.7812,-1.7812,-1.7799,-1.7819,-1.7853,-1.786,-1.786,-1.786,-1.7853,-1.786,-1.786,-1.786,-1.786,-1.786,-1.786,-1.786,-1.786,-1.6978,-1.6978,-1.6978,-1.7039,-1.7121,-1.706,-1.7168,-1.7351,-1.7311,-1.746,-1.7895,-1.793,-1.7985,-1.784,-1.786,-1.786,-1.786,-1.786,-1.786,-1.786,-1.786,-1.786,-1.786,-1.786,-1.786,-1.786,-1.7901,-1.8023,-1.8226,-1.8396,-1.8545,-1.8633,-1.8626,-1.8647,-1.8674,-1.8681,-1.8715,-1.8755,-1.8715,-1.8667,-1.8871,-1.8891,-1.8708,-1.8708,-1.8762,-1.8762,-1.8762,-1.8762,-1.8762,-1.8762,-1.8762,-1.8762,-1.8762,-1.8762,-1.8762,-1.8762,-1.8762,-1.8769,-1.8776,-1.8776,-1.8769,-1.8769,-1.8769,-1.8762,-1.8762,-1.8762,-1.8762,-1.8762,-1.8762,-1.8762,-1.8762,-1.8762,-1.8762,-1.8762,-1.8762,-1.8762,-1.8762,-1.8749,-1.8742,-1.8721,-1.8701,-1.8626,-1.8518,-1.843,-1.8321,-1.8226,-1.8124,-1.8043,-1.7948,-1.7887,-1.788,-1.7874,-1.7867,-1.786,-1.786,-1.786,-1.786,-1.786,-1.784,-1.7846,-1.786,-1.786,-1.786,-1.786,-1.786,-1.786,-1.786,-1.786,-1.786,-1.786,-1.786,-1.786,-1.786,-1.786,-1.786,-1.6978,-1.6978,-1.6978,-1.7026,-1.7073,-1.7012,-1.708,-1.7188,-1.7134,-1.7229,-1.746,-1.7806,-1.7923,-1.8012,-1.7826,-1.786,-1.786,-1.786,-1.786,-1.786,-1.786,-1.786,-1.786,-1.786,-1.786,-1.7874,-1.803,-1.8192,-1.8335,-1.8538,-1.8694,-1.8755,-1.8762,-1.8762,-1.8762,-1.8762,-1.8762,-1.8762,-1.8762,-1.8762,-1.8762,-1.8762,-1.8762,-1.8762,-1.8762,-1.8762,-1.8762,-1.8762,-1.8762,-1.8762,-1.8762,-1.8762,-1.8762,-1.8762,-1.8762,-1.8762,-1.8769,-1.8789,-1.8816,-1.881,-1.8796,-1.881,-1.8776,-1.8769,-1.8762,-1.8762,-1.8762,-1.8762,-1.8762,-1.8762,-1.8762,-1.8762,-1.8762,-1.8762,-1.8762,-1.8762,-1.8762,-1.8755,-1.8749,-1.8749,-1.8735,-1.8715,-1.864,-1.8633,-1.8525,-1.8416,-1.8301,-1.8145,-1.8043,-1.7928,-1.7907,-1.788,-1.7867,-1.786,-1.786,-1.786,-1.786,-1.786,-1.786,-1.786,-1.786,-1.786,-1.786,-1.786,-1.786,-1.786,-1.786,-1.786,-1.786,-1.786,-1.786,-1.786,-1.786,-1.786,-1.786,-1.6978,-1.6978,-1.6978,-1.6978,-1.6978,-1.6978,-1.6985,-1.6992,-1.6985,-1.7053,-1.7209,-1.7494,-1.7834,-1.7923,-1.8012,-1.784,-1.786,-1.786,-1.786,-1.786,-1.786,-1.786,-1.786,-1.786,-1.786,-1.7948,-1.8097,-1.8213,-1.8328,-1.8538,-1.8681,-1.8742,-1.8762,-1.8762,-1.8762,-1.8762,-1.8762,-1.8762,-1.8762,-1.8762,-1.8762,-1.8762,-1.8762,-1.8762,-1.8762,-1.8762,-1.8762,-1.8762,-1.8762,-1.8762,-1.8762,-1.8762,-1.8762,-1.8762,-1.8762,-1.8762,-1.8762,-1.8823,-1.8871,-1.8816,-1.885,-1.8871,-1.881,-1.8769,-1.8762,-1.8762,-1.8762,-1.8762,-1.8762,-1.8762,-1.8762,-1.8762,-1.8762,-1.8762,-1.8762,-1.8762,-1.8762,-1.8762,-1.8762,-1.8762,-1.8762,-1.8755,-1.8755,-1.8755,-1.8687,-1.8586,-1.847,-1.8321,-1.8172,-1.805,-1.7975,-1.7914,-1.7867,-1.786,-1.786,-1.786,-1.786,-1.786,-1.786,-1.786,-1.786,-1.786,-1.786,-1.786,-1.786,-1.786,-1.786,-1.786,-1.786,-1.786,-1.786,-1.786,-1.786,-1.786,-1.786,-1.6978,-1.6978,-1.6978,-1.6978,-1.6978,-1.6978,-1.6978,-1.6978,-1.6978,-1.7005,-1.71,-1.7103,-1.7304,-1.7882,-1.8019,-1.786,-1.786,-1.786,-1.786,-1.786,-1.786,-1.786,-1.786,-1.786,-1.786,-1.7948,-1.8077,-1.8192,-1.8335,-1.8504,-1.8647,-1.8755,-1.8762,-1.8762,-1.8762,-1.8762,-1.8762,-1.8762,-1.8762,-1.8762,-1.8762,-1.8762,-1.8762,-1.8762,-1.8762,-1.8762,-1.8762,-1.8762,-1.8762,-1.8762,-1.8762,-1.8762,-1.8762,-1.8762,-1.8762,-1.8762,-1.8762,-1.8803,-1.8823,-1.8796,-1.883,-1.885,-1.8796,-1.8769,-1.8762,-1.8762,-1.8762,-1.8762,-1.8762,-1.8762,-1.8762,-1.8762,-1.8762,-1.8762,-1.8762,-1.8762,-1.8762,-1.8762,-1.8762,-1.8762,-1.8762,-1.8762,-1.8762,-1.8742,-1.8701,-1.862,-1.8565,-1.8416,-1.8233,-1.8138,-1.8057,-1.7962,-1.7887,-1.786,-1.786,-1.786,-1.786,-1.786,-1.786,-1.786,-1.786,-1.786,-1.786,-1.786,-1.786,-1.786,-1.786,-1.786,-1.786,-1.786,-1.786,-1.786,-1.786,-1.786,-1.786]}]]